[[{"header":{"parameterUnit":"m.s-1","parameterCategory":1,"la1":30.6,"la2":28.766,"lo1":-90.7593,"lo2":-88.6598,"dy":0.0162,"dx":0.0183,"nx":116,"ny":114,"refTime":"2023-08-27T00:00:00:Z","depth":0,"parameterNumber":2,"parameterNumberName":"U-component_of_WINDS"},"data":[0.0,0.0,0.0,0.0,0.0,0.0,0.0,0.0,0.0,0.0,0.0,0.0,0.0,0.0,0.0,0.0,0.0,0.0,0.0,0.0,0.0,0.0,0.0,0.0,0.0,0.0,0.0,0.0,0.0,0.0,0.0,0.0,0.0,0.0,0.0,0.0,0.0,0.0,0.0,0.0,0.0,0.0,0.0,0.0,0.0,0.0,0.0,0.0,0.0,0.0,0.0,0.0,0.0,0.0,0.0,0.0,0.0,0.0,0.0,0.0,0.0,0.0,0.0,0.0,0.0,0.0,0.0,0.0,0.0,0.0,0.0,0.0,0.0,0.0,0.0,0.0,0.0,0.0,0.0,0.0,0.0,0.0,0.0,0.0,0.0,0.0,0.0,0.0,0.0,0.0,0.0,0.0,0.0,0.0,0.0,0.0,0.0,0.0,0.0,0.0,0.0,0.0,0.0,0.0,0.0,0.0,0.0,0.0,0.0,0.0,0.0,0.0,0.0,0.0,0.0,0.0,0.0,0.0,0.0,0.0,0.0,0.0,0.0,0.0,0.0,0.0,0.0,0.0,0.0,0.0,0.0,0.0,0.0,0.0,0.0,0.0,0.0,0.0,0.0,0.0,0.0,0.0,0.0,0.0,0.0,0.0,0.0,0.0,0.0,0.0,0.0,0.0,0.0,0.0,0.0,0.0,0.0,0.0,0.0,0.0,0.0,0.0,0.0,0.0,0.0,0.0,0.0,0.0,0.0,0.0,0.0,0.0,0.0,0.0,0.0,0.0,0.0,0.0,0.0,0.0,0.0,0.0,0.0,0.0,0.0,0.0,0.0,0.0,0.0,0.0,0.0,0.0,0.0,0.0,0.0,0.0,0.0,0.0,0.0,0.0,0.0,0.0,0.0,0.0,0.0,0.0,0.0,0.0,0.0,0.0,0.0,0.0,0.0,0.0,0.0,0.0,0.0,0.0,0.0,0.0,0.0,0.0,0.0,0.0,0.0,0.0,0.0,0.0,0.0,0.0,0.0,0.0,0.0,0.0,0.0,0.0,0.0,0.0,0.0,0.0,0.0,0.0,0.0,0.0,0.0,0.0,0.0,0.0,0.0,0.0,0.0,0.0,0.0,0.0,0.0,0.0,0.0,0.0,0.0,0.0,0.0,0.0,0.0,0.0,0.0,0.0,0.0,0.0,0.0,0.0,0.0,0.0,0.0,0.0,0.0,0.0,0.0,0.0,0.0,0.0,0.0,0.0,0.0,0.0,0.0,0.0,0.0,0.0,0.0,0.0,0.0,0.0,0.0,0.0,0.0,0.0,0.0,0.0,0.0,0.0,0.0,0.0,0.0,0.0,0.0,0.0,0.0,0.0,0.0,0.0,0.0,0.0,0.0,0.0,0.0,0.0,0.0,0.0,0.0,0.0,0.0,0.0,0.0,0.0,0.0,0.0,0.0,0.0,0.0,0.0,0.0,0.0,0.0,0.0,0.0,0.0,0.0,0.0,0.0,0.0,0.0,0.0,0.0,0.0,0.0,0.0,0.0,0.0,0.0,0.0,0.0,0.0,0.0,0.0,0.0,0.0,0.0,0.0,0.0,0.0,0.0,0.0,0.0,0.0,0.0,0.0,0.0,0.0,0.0,0.0,0.0,0.0,0.0,0.0,0.0,0.0,0.0,0.0,0.0,0.0,0.0,0.0,0.0,0.0,0.0,0.0,0.0,0.0,0.0,0.0,0.0,0.0,0.0,0.0,0.0,0.0,0.0,0.0,0.0,0.0,0.0,0.0,0.0,0.0,0.0,0.0,0.0,0.0,0.0,0.0,0.0,0.0,0.0,0.0,0.0,0.0,0.0,0.0,0.0,0.0,0.0,0.0,0.0,0.0,0.0,0.0,0.0,0.0,0.0,0.0,0.0,0.0,0.0,0.0,0.0,0.0,0.0,0.0,0.0,0.0,0.0,0.0,0.0,0.0,0.0,0.0,0.0,0.0,0.0,0.0,0.0,0.0,0.0,0.0,0.0,0.0,0.0,0.0,0.0,0.0,0.0,0.0,0.0,0.0,0.0,0.0,0.0,0.0,0.0,0.0,0.0,0.0,0.0,0.0,0.0,0.0,0.0,0.0,0.0,0.0,0.0,0.0,0.0,0.0,0.0,0.0,0.0,0.0,0.0,0.0,0.0,0.0,0.0,0.0,0.0,0.0,0.0,0.0,0.0,0.0,0.0,0.0,0.0,0.0,0.0,0.0,0.0,0.0,0.0,0.0,0.0,0.0,0.0,0.0,0.0,0.0,0.0,0.0,0.0,0.0,0.0,0.0,0.0,0.0,0.0,0.0,0.0,0.0,0.0,0.0,0.0,0.0,0.0,0.0,0.0,0.0,0.0,0.0,0.0,0.0,0.0,0.0,0.0,0.0,0.0,0.0,0.0,0.0,0.0,0.0,0.0,0.0,0.0,0.0,0.0,0.0,0.0,0.0,0.0,0.0,0.0,0.0,0.0,0.0,0.0,0.0,0.0,0.0,0.0,0.0,0.0,0.0,0.0,0.0,0.0,0.0,0.0,0.0,0.0,0.0,0.0,0.0,0.0,0.0,0.0,0.0,0.0,0.0,0.0,0.0,0.0,0.0,0.0,0.0,0.0,0.0,0.0,0.0,0.0,0.0,0.0,0.0,0.0,0.0,0.0,0.0,0.0,0.0,0.0,0.0,0.0,0.0,0.0,0.0,0.0,0.0,0.0,0.0,0.0,0.0,0.0,0.0,0.0,0.0,0.0,0.0,0.0,0.0,0.0,0.0,0.0,0.0,0.0,0.0,0.0,0.0,0.0,0.0,0.0,0.0,0.0,0.0,0.0,0.0,0.0,0.0,0.0,0.0,0.0,0.0,0.0,0.0,0.0,0.0,0.0,0.0,0.0,0.0,0.0,0.0,0.0,0.0,0.0,0.0,0.0,0.0,0.0,0.0,0.0,0.0,0.0,0.0,0.0,0.0,0.0,0.0,0.0,0.0,0.0,0.0,0.0,0.0,0.0,0.0,0.0,0.0,0.0,0.0,0.0,0.0,0.0,0.0,0.0,0.0,0.0,0.0,0.0,0.0,0.0,0.0,0.0,0.0,0.0,0.0,0.0,0.0,0.0,0.0,0.0,0.0,0.0,0.0,0.0,0.0,0.0,0.0,0.0,0.0,0.0,0.0,0.0,0.0,0.0,0.0,0.0,0.0,0.0,0.0,0.0,0.0,0.0,0.0,0.0,0.0,0.0,0.0,0.0,0.0,0.0,0.0,0.0,0.0,0.0,0.0,0.0,0.0,0.0,0.0,0.0,0.0,0.0,0.0,0.0,0.0,0.0,0.0,0.0,0.0,0.0,0.0,0.0,0.0,0.0,0.0,0.0,0.0,0.0,0.0,0.0,0.0,0.0,0.0,0.0,0.0,0.0,0.0,0.0,0.0,0.0,0.0,0.0,0.0,0.0,0.0,0.0,0.0,0.0,0.0,0.0,0.0,0.0,0.0,0.0,0.0,0.0,0.0,0.0,0.0,0.0,0.0,0.0,0.0,0.0,0.0,0.0,0.0,0.0,0.0,0.0,0.0,0.0,0.0,0.0,0.0,0.0,0.0,0.0,0.0,0.0,0.0,0.0,0.0,0.0,0.0,0.0,0.0,0.0,0.0,0.0,0.0,0.0,0.0,0.0,0.0,0.0,0.0,0.0,0.0,0.0,0.0,0.0,0.0,0.0,0.0,0.0,0.0,0.0,0.0,0.0,0.0,0.0,0.0,0.0,0.0,0.0,0.0,0.0,0.0,0.0,0.0,0.0,0.0,0.0,0.0,0.0,0.0,0.0,0.0,0.0,0.0,0.0,0.0,0.0,0.0,0.0,0.0,0.0,0.0,0.0,0.0,0.0,0.0,0.0,0.0,0.0,0.0,0.0,0.0,0.0,0.0,0.0,0.0,0.0,0.0,0.0,0.0,0.0,0.0,0.0,0.0,0.0,0.0,0.0,0.0,0.0,0.0,0.0,0.0,0.0,0.0,0.0,0.0,0.0,0.0,0.0,0.0,0.0,0.0,0.0,0.0,0.0,0.0,0.0,0.0,0.0,0.0,0.0,0.0,0.0,0.0,0.0,0.0,0.0,0.0,0.0,0.0,0.0,0.0,0.0,0.0,0.0,0.0,0.0,0.0,0.0,0.0,0.0,0.0,0.0,0.0,0.0,0.0,0.0,0.0,0.0,0.0,0.0,0.0,0.0,0.0,0.0,0.0,0.0,0.0,0.0,0.0,0.0,0.0,0.0,0.0,0.0,0.0,0.0,0.0,0.0,0.0,0.0,0.0,0.0,0.0,0.0,0.0,0.0,0.0,0.0,0.0,0.0,0.0,0.0,0.0,0.0,0.0,0.0,0.0,0.0,0.0,0.0,0.0,0.0,0.0,0.0,0.0,0.0,0.0,0.0,0.0,0.0,0.0,0.0,0.0,0.0,0.0,0.0,0.0,0.0,0.0,0.0,0.0,0.0,0.0,0.0,0.0,0.0,0.0,0.0,0.0,0.0,0.0,0.0,0.0,0.0,0.0,0.0,0.0,0.0,0.0,0.0,0.0,0.0,0.0,0.0,0.0,0.0,0.0,0.0,0.0,0.0,0.0,0.0,0.0,0.0,0.0,0.0,0.0,0.0,0.0,0.0,0.0,0.0,0.0,0.0,0.0,0.0,0.0,0.0,0.0,0.0,0.0,0.0,0.0,0.0,0.0,0.0,0.0,0.0,0.0,0.0,0.0,0.0,0.0,0.0,0.0,0.0,0.0,0.0,0.0,0.0,0.0,0.0,0.0,0.0,0.0,0.0,0.0,0.0,0.0,0.0,0.0,0.0,0.0,0.0,0.0,0.0,0.0,0.0,0.0,0.0,0.0,0.0,0.0,0.0,0.0,0.0,0.0,0.0,0.0,0.0,0.0,0.0,0.0,0.0,0.0,0.0,0.0,0.0,0.0,0.0,0.0,0.0,0.0,0.0,0.0,0.0,0.0,0.0,0.0,0.0,0.0,0.0,0.0,0.0,0.0,0.0,0.0,0.0,0.0,0.0,0.0,0.0,0.0,0.0,0.0,0.0,0.0,0.0,0.0,0.0,0.0,0.0,0.0,0.0,0.0,0.0,0.0,0.0,0.0,0.0,0.0,0.0,0.0,0.0,0.0,0.0,0.0,0.0,0.0,0.0,0.0,0.0,0.0,0.0,0.0,0.0,0.0,0.0,0.0,0.0,0.0,0.0,0.0,0.0,0.0,0.0,0.0,0.0,0.0,0.0,0.0,0.0,0.0,0.0,0.0,0.0,0.0,0.0,0.0,0.0,0.0,0.0,0.0,0.0,0.0,0.0,0.0,0.0,0.0,0.0,0.0,0.0,0.0,0.0,0.0,0.0,0.0,0.0,0.0,0.0,0.0,0.0,0.0,0.0,0.0,0.0,0.0,0.0,0.0,0.0,0.0,0.0,0.0,0.0,0.0,0.0,0.0,0.0,0.0,0.0,0.0,0.0,0.0,0.0,0.0,0.0,0.0,0.0,0.0,0.0,0.0,0.0,0.0,0.0,0.0,0.0,0.0,0.0,0.0,0.0,0.0,0.0,0.0,0.0,0.0,0.0,0.0,0.0,0.0,0.0,0.0,0.0,0.0,0.0,0.0,0.0,0.0,0.0,0.0,0.0,0.0,0.0,0.0,0.0,0.0,0.0,0.0,0.0,0.0,0.0,0.0,0.0,0.0,0.0,0.0,0.0,0.0,0.0,0.0,0.0,0.0,0.0,0.0,0.0,0.0,0.0,0.0,0.0,0.0,0.0,0.0,0.0,0.0,0.0,0.0,0.0,0.0,0.0,0.0,0.0,0.0,0.0,0.0,0.0,0.0,0.0,0.0,0.0,0.0,0.0,0.0,0.0,0.0,0.0,0.0,0.0,0.0,0.0,0.0,0.0,0.0,0.0,0.0,0.0,0.0,0.0,0.0,0.0,0.0,0.0,0.0,0.0,0.0,0.0,0.0,0.0,0.0,0.0,0.0,0.0,0.0,0.0,0.0,0.0,0.0,0.0,0.0,0.0,0.0,0.0,0.0,0.0,0.0,1.9192,2.0308,0.0,0.0,0.0,0.0,0.0,0.0,0.0,0.0,0.0,0.0,0.0,0.0,0.0,0.0,0.0,0.0,0.0,0.0,0.0,0.0,0.0,0.0,0.0,0.0,0.0,0.0,0.0,0.0,0.0,0.0,0.0,0.0,0.0,0.0,0.0,0.0,0.0,0.0,0.0,0.0,0.0,0.0,0.0,0.0,0.0,0.0,0.0,0.0,0.0,0.0,0.0,0.0,0.0,0.0,0.0,0.0,0.0,0.0,0.0,0.0,0.0,0.0,0.0,0.0,0.0,0.0,0.0,0.0,0.0,0.0,0.0,0.0,0.0,0.0,0.0,0.0,0.0,0.0,0.0,0.0,0.0,0.0,0.0,0.0,0.0,0.0,0.0,0.0,0.0,0.0,0.0,0.0,0.0,0.0,0.0,0.0,0.0,0.0,0.0,0.0,0.0,0.0,0.0,0.0,0.0,0.0,0.0,0.0,0.0,0.0,0.0,0.0,0.0,0.0,1.9906,2.0293,0.0,0.0,0.0,0.0,0.0,0.0,0.0,0.0,0.0,0.0,0.0,0.0,0.0,0.0,0.0,0.0,0.0,0.0,0.0,0.0,0.0,0.0,0.0,0.0,0.0,0.0,0.0,0.0,0.0,0.0,0.0,0.0,0.0,0.0,0.0,0.0,0.0,0.0,0.0,0.0,0.0,0.0,0.0,0.0,0.0,0.0,0.0,0.0,0.0,0.0,0.0,0.0,0.0,0.0,0.0,0.0,0.0,0.0,0.0,0.0,0.0,0.0,0.0,0.0,0.0,0.0,0.0,0.0,0.0,0.0,0.0,0.0,0.0,0.0,0.0,0.0,0.0,0.0,0.0,0.0,0.0,0.0,0.0,0.0,0.0,0.0,0.0,0.0,0.0,0.0,0.0,0.0,0.0,0.0,0.0,0.0,0.0,0.0,0.0,0.0,0.0,0.0,0.0,0.0,0.0,0.0,0.0,0.0,2.2484,2.2959,2.3843,2.3191,2.2508,2.1803,2.1088,2.0765,2.0816,2.1534,0.0,0.0,0.0,0.0,0.0,0.0,0.0,0.0,0.0,0.0,0.0,0.0,0.0,0.0,0.0,0.0,0.0,0.0,0.0,0.0,0.0,1.6008,1.6337,1.6479,1.6522,1.6522,0.0,0.0,0.0,0.0,0.0,0.0,0.0,0.0,0.0,0.0,0.0,0.0,1.899,1.8776,1.8932,1.9284,1.7375,0.0,0.0,0.0,0.0,0.0,0.0,0.0,0.0,0.0,0.0,0.0,0.0,0.0,0.0,0.0,0.0,0.0,0.0,0.0,0.0,0.0,0.0,0.0,0.0,0.0,0.0,0.0,0.0,0.0,0.0,0.0,0.0,0.0,0.0,0.0,0.0,0.0,0.0,0.0,0.0,0.0,0.0,0.0,1.9443,1.9729,0.0,0.0,0.0,0.0,0.0,0.0,0.0,0.0,0.0,0.0,0.0,0.0,0.0,2.0893,2.1529,2.1637,2.1902,2.2337,2.2325,2.2547,2.2969,2.2921,2.2842,2.2724,2.2674,0.0,2.2564,2.2739,0.0,0.0,0.0,0.0,0.0,0.0,0.0,0.0,0.0,0.0,0.0,0.0,0.0,0.0,0.0,0.0,0.0,0.0,0.0,0.0,0.0,1.6504,1.6729,1.7393,1.8016,1.7978,1.7061,0.0,0.0,0.0,0.0,0.0,0.0,0.0,0.0,0.0,1.8685,1.911,1.9441,1.9444,1.9761,2.0238,1.9271,1.9045,1.9334,1.9297,0.0,0.0,0.0,0.0,0.0,0.0,0.0,0.0,0.0,0.0,0.0,0.0,0.0,0.0,0.0,0.0,0.0,0.0,0.0,0.0,0.0,0.0,0.0,0.0,0.0,0.0,0.0,0.0,0.0,0.0,0.0,0.0,0.0,0.0,0.0,0.0,0.0,0.0,0.0,2.0317,2.0127,2.009,2.0726,2.1177,0.0,0.0,0.0,0.0,0.0,0.0,0.0,0.0,0.0,2.1599,2.2242,2.2334,2.1823,2.2701,2.3051,2.2865,2.343,2.4072,2.4755,2.4457,2.4861,2.5792,2.5382,2.5425,2.5717,2.4266,2.4053,2.462,0.0,0.0,0.0,0.0,2.3971,2.3408,0.0,0.0,0.0,0.0,0.0,0.0,0.0,0.0,0.0,0.0,0.0,0.0,1.7364,1.7294,1.7543,1.872,1.956,1.9447,1.8091,1.8505,0.0,0.0,0.0,0.0,0.0,0.0,0.0,1.8182,1.9159,1.9917,2.0448,2.056,2.1117,2.192,2.1706,2.1026,2.0082,2.0579,2.0246,0.0,0.0,0.0,0.0,0.0,0.0,0.0,0.0,0.0,0.0,0.0,0.0,0.0,0.0,0.0,0.0,0.0,0.0,0.0,0.0,0.0,0.0,0.0,0.0,0.0,0.0,0.0,0.0,0.0,0.0,0.0,0.0,0.0,0.0,0.0,0.0,0.0,0.0,2.0237,2.0147,2.008,2.05,2.0964,0.0,0.0,0.0,0.0,0.0,0.0,2.1027,2.2172,2.2648,2.221,2.3511,2.3818,2.3037,2.4224,2.4615,2.4227,2.4808,2.5532,2.6256,2.5677,2.6265,2.7713,2.7127,2.7324,2.7909,2.5853,2.4937,2.4889,2.5293,2.5437,2.5457,2.5447,2.4649,2.3621,0.0,0.0,0.0,0.0,0.0,0.0,0.0,0.0,0.0,0.0,0.0,1.6173,1.7947,1.8582,1.9321,2.0451,2.0643,2.0351,1.9723,1.8781,1.7978,0.0,0.0,0.0,0.0,0.0,0.0,1.8213,2.0401,2.1714,2.2216,2.2711,2.3816,2.5322,2.4435,2.3579,2.2702,1.9997,1.9794,2.1267,2.0213,0.0,0.0,0.0,0.0,0.0,0.0,0.0,0.0,0.0,0.0,0.0,0.0,0.0,0.0,0.0,0.0,0.0,0.0,0.0,0.0,0.0,0.0,0.0,0.0,0.0,0.0,0.0,0.0,0.0,0.0,0.0,0.0,0.0,0.0,0.0,0.0,0.0,0.0,1.8882,1.9906,0.0,0.0,0.0,0.0,2.3061,2.3014,2.2982,2.2959,2.2632,2.3105,2.4596,2.4357,2.4878,2.634,2.6438,2.6561,2.671,2.6191,2.6026,2.6198,2.565,2.5894,2.6774,2.6788,2.7266,2.7968,2.7387,2.7026,2.6754,2.5707,2.5312,2.5311,2.5322,2.5264,2.5303,0.0,0.0,0.0,0.0,0.0,0.0,0.0,0.0,0.0,1.405,1.4967,1.6349,1.8406,1.953,2.0665,2.2133,2.2598,2.241,2.1481,2.0727,1.9911,0.0,0.0,0.0,0.0,0.0,2.0107,1.9233,2.1963,2.3123,2.2874,2.413,2.5003,2.5469,2.5591,2.5938,2.6133,2.3679,2.2024,2.1052,2.0655,2.0309,0.0,0.0,0.0,0.0,0.0,0.0,0.0,0.0,0.0,0.0,0.0,0.0,0.0,0.0,0.0,0.0,0.0,0.0,0.0,0.0,0.0,0.0,0.0,0.0,0.0,0.0,0.0,0.0,0.0,0.0,0.0,0.0,0.0,0.0,0.0,0.0,0.0,2.0358,2.1714,0.0,2.2773,2.3271,2.3597,2.359,2.3709,2.3731,2.3551,2.409,2.4646,2.5223,2.5837,2.6289,2.6594,2.709,2.716,2.671,2.675,2.7098,2.7663,2.7208,2.7787,2.911,2.8581,2.8834,2.959,2.9457,2.869,2.7572,2.7514,2.66,2.5446,2.6553,2.7671,2.8627,0.0,0.0,0.0,0.0,0.0,0.0,0.0,0.0,0.0,1.3732,1.4993,1.6658,1.894,2.0761,2.246,2.4104,2.4431,2.4142,2.3213,2.1933,2.079,0.0,0.0,0.0,0.0,2.0603,2.1372,2.0652,2.3197,2.4347,2.428,2.514,2.5903,2.6485,2.6479,2.7299,2.8561,2.7112,2.4906,2.237,2.1851,2.1733,2.1655,0.0,0.0,0.0,0.0,0.0,0.0,0.0,0.0,0.0,0.0,0.0,0.0,0.0,0.0,0.0,0.0,0.0,0.0,0.0,0.0,0.0,0.0,0.0,0.0,0.0,0.0,0.0,0.0,0.0,0.0,0.0,0.0,0.0,0.0,2.0439,2.0814,2.1852,2.2892,2.3654,2.4011,2.4035,2.4028,2.4028,2.4424,2.4611,2.4431,2.523,2.5884,2.6309,2.6903,2.7268,2.7419,2.7944,2.7944,2.7419,2.7474,2.783,2.8442,2.7988,2.8587,3.0006,2.9417,2.9829,3.0902,3.0641,3.0006,2.9151,2.8882,2.7841,2.6675,2.795,2.9109,3.0055,0.0,0.0,0.0,0.0,0.0,0.0,0.0,1.2881,1.3104,1.3684,1.5339,1.7249,1.9479,2.2305,2.4682,2.6408,2.5937,2.5385,2.4883,2.2234,2.0439,0.0,0.0,0.0,1.9083,2.19,2.2998,2.2359,2.4103,2.5523,2.644,2.579,2.6643,2.8562,2.7206,2.7782,2.9882,2.9872,2.821,2.539,2.3816,2.354,2.384,0.0,0.0,0.0,0.0,0.0,0.0,0.0,0.0,0.0,0.0,0.0,0.0,0.0,0.0,0.0,0.0,0.0,0.0,0.0,0.0,0.0,0.0,0.0,0.0,0.0,0.0,0.0,0.0,0.0,0.0,0.0,0.0,0.0,2.0643,2.0737,2.14,2.3163,2.328,2.3663,2.4715,2.4692,2.4637,2.4647,2.528,2.5715,2.5715,2.6017,2.6725,2.7929,2.7531,2.7848,2.9035,2.9053,2.9012,2.8975,2.8411,2.824,2.842,2.7846,2.8157,2.9133,2.9133,3.011,3.1588,3.0756,3.0891,3.1484,2.9655,2.8929,2.8952,2.9312,2.9418,2.9377,0.0,0.0,0.0,0.0,0.0,0.0,0.0,1.2881,1.2968,1.3152,1.5376,1.7691,1.9505,2.2616,2.5259,2.6917,2.6163,2.5536,2.5385,2.2799,2.1016,0.0,0.0,0.0,2.138,2.3106,2.3859,2.354,2.5767,2.6437,2.5753,2.717,2.752,2.7194,2.8356,2.9624,3.0938,3.0669,3.006,2.8888,2.6076,2.4795,2.4406,0.0,0.0,0.0,0.0,0.0,0.0,0.0,0.0,0.0,0.0,0.0,0.0,0.0,0.0,0.0,0.0,0.0,0.0,0.0,0.0,0.0,0.0,0.0,0.0,0.0,0.0,0.0,0.0,0.0,0.0,0.0,2.0824,2.1191,2.1411,2.1859,2.2838,2.4673,2.5629,2.6442,2.7175,2.7555,2.7756,2.7759,2.7946,2.8065,2.8065,2.8168,2.8629,2.9555,2.944,2.9522,2.9881,2.9881,2.9577,2.8994,2.9182,2.9289,2.9341,2.9518,2.9771,3.004,3.004,3.0302,3.0737,3.0497,3.0548,3.0698,3.0179,2.9601,2.9138,2.986,2.9721,2.9171,0.0,0.0,0.0,0.0,0.0,0.0,0.0,1.2881,1.2881,1.2881,1.5618,1.8073,1.9564,2.2774,2.5398,2.6816,2.5912,2.5272,2.5272,2.3326,0.0,0.0,0.0,2.2359,2.3339,2.4783,2.5473,2.5372,2.702,2.7481,2.6791,2.8101,2.8673,2.8614,2.9877,3.0871,3.164,3.147,3.1208,3.0771,2.8812,2.757,2.6628,2.4504,2.3662,2.3399,2.1747,2.1312,2.1193,1.9659,0.0,0.0,0.0,0.0,0.0,0.0,0.0,0.0,0.0,0.0,0.0,0.0,0.0,0.0,0.0,0.0,0.0,0.0,0.0,0.0,0.0,0.0,0.0,0.0,2.2484,2.3122,2.3668,2.3621,2.4215,2.6109,2.6936,2.7669,2.8518,2.8858,2.9006,2.8982,2.8999,2.8999,2.8999,2.8999,2.9396,3.0173,3.0198,3.0375,3.0693,3.0691,3.0314,2.9504,2.9766,2.9789,2.9588,2.995,3.0148,3.0263,3.0737,3.0941,3.0929,3.0945,3.0938,3.0922,0.0,0.0,0.0,0.0,3.016,2.9621,0.0,0.0,0.0,0.0,0.0,0.0,0.0,1.2881,1.2881,1.2881,1.5706,1.81,1.9171,2.2249,2.4751,2.6183,2.5087,2.4427,2.4503,0.0,0.0,2.1895,2.3816,2.4971,2.5096,2.659,2.7369,2.7369,2.7921,2.8337,2.8675,2.88,2.9806,3.1596,3.1724,3.1937,3.2263,3.2219,3.1928,3.1587,3.1587,3.0896,2.9591,2.6967,2.6214,2.6264,2.4104,2.2736,2.1813,2.1082,0.0,0.0,0.0,0.0,0.0,0.0,0.0,0.0,0.0,0.0,0.0,0.0,0.0,0.0,0.0,0.0,0.0,0.0,0.0,0.0,0.0,0.0,0.0,0.0,2.4313,2.5257,2.6626,2.5879,2.5788,2.7396,2.7624,2.811,2.9207,2.9274,2.9269,2.9259,2.9343,2.9376,2.9376,2.9465,0.0,0.0,0.0,3.0821,3.1447,3.147,3.1094,3.0336,3.0365,3.0131,2.9679,2.987,3.0075,3.034,3.1357,3.1761,3.1691,3.1703,3.1638,3.1472,3.0775,3.0487,3.0487,3.0448,3.0333,3.0121,0.0,0.0,0.0,0.0,0.0,0.0,0.0,1.2881,1.2881,1.2881,1.4643,1.6146,1.6907,1.9218,2.1842,2.4786,2.2995,2.1886,0.0,0.0,2.2523,2.4104,2.4996,2.5875,2.6791,2.7557,2.7946,2.7946,2.8374,2.8462,2.8225,2.9204,3.0703,3.2776,3.3675,3.3959,3.3781,3.3642,3.328,3.2754,3.2754,3.1838,3.0306,2.8837,2.7808,2.6892,2.5121,2.4632,2.4494,2.2614,2.2731,2.3354,2.1569,2.0348,0.0,0.0,0.0,0.0,0.0,0.0,0.0,0.0,0.0,0.0,0.0,0.0,0.0,0.0,0.0,0.0,0.0,0.0,0.0,2.3987,2.5243,2.6479,2.7991,2.8461,2.8547,2.8309,2.9186,2.9902,3.0087,3.0505,3.0762,3.0752,3.1331,3.1664,3.1664,3.2247,3.2508,3.2457,3.2465,3.2265,3.1883,3.1889,3.1634,3.1162,3.1396,0.0,3.1341,3.1549,3.1784,3.2023,3.2247,3.2102,3.1705,3.1698,3.1299,3.0641,3.0487,3.0417,3.0352,2.964,2.8967,2.8467,0.0,0.0,0.0,0.0,0.0,0.0,0.0,1.2881,1.2881,1.2881,1.4346,1.5731,1.6503,1.8148,2.0026,2.2204,2.1588,2.1205,0.0,2.2788,2.4167,2.5586,2.6678,2.7657,2.8524,2.8812,2.895,2.895,2.9135,2.9142,2.9015,3.0258,3.1984,3.3905,3.4178,3.4395,3.4401,3.435,3.4161,3.3872,3.3608,3.2993,3.2077,3.0407,2.9428,2.8775,2.7381,2.6866,2.6603,2.4946,2.457,2.4467,2.2491,2.1425,2.0484,0.0,0.0,0.0,0.0,0.0,0.0,0.0,0.0,0.0,0.0,0.0,0.0,0.0,0.0,2.0923,2.1801,0.0,2.4047,2.6833,2.7798,2.8626,2.9873,3.034,3.0175,2.9118,2.9855,3.0354,3.0312,3.0858,3.119,3.119,3.1523,3.1725,3.1742,3.2446,3.2909,3.2976,3.335,3.3481,3.3357,3.3216,3.2857,3.2246,3.221,3.1985,3.1611,3.1838,3.202,3.2185,3.2847,3.2513,3.1473,3.1174,3.1056,3.0999,3.0417,3.0283,3.034,2.991,2.9506,2.9217,0.0,0.0,0.0,0.0,0.0,0.0,0.0,0.0,1.2881,1.2881,1.4102,1.5258,1.6145,1.7059,1.8078,1.9243,2.043,0.0,0.0,2.3937,2.5852,2.6904,2.8323,2.9315,2.9779,2.9892,2.9955,2.9955,2.9836,2.9899,3.014,3.1951,3.3594,3.5033,3.4553,3.4602,3.4889,3.5002,3.4977,3.4839,3.4274,3.3997,3.3671,3.1574,3.0771,3.0608,2.9365,2.836,2.7519,2.6841,2.5677,2.4284,2.3132,2.2468,2.1559,1.8967,1.7593,0.0,0.0,0.0,0.0,0.0,0.0,0.0,0.0,1.9368,1.958,2.1122,2.1774,2.259,2.3989,2.4797,2.6246,2.9267,3.0043,3.0528,3.1324,3.1603,3.1132,2.9711,3.006,3.0315,3.0136,3.0778,3.119,3.119,3.1331,3.1463,3.1605,3.2326,3.2896,3.3283,3.3854,3.4301,3.4588,3.4351,3.3946,3.3331,3.3066,3.2547,3.1864,3.2092,3.2228,3.2326,3.3294,3.2947,3.1667,3.1053,3.1102,3.146,3.0598,3.0261,3.0237,3.0138,3.0086,3.0093,0.0,0.0,0.0,0.0,0.0,0.0,0.0,0.0,0.0,1.2881,1.3057,1.3343,1.3817,1.4009,1.476,1.6407,0.0,0.0,2.2777,2.3836,2.57,2.8487,2.9327,2.9729,2.9792,3.0269,3.052,3.052,3.0072,3.0302,3.1323,3.4451,3.6021,3.6178,3.616,3.5881,3.5491,3.5968,3.5893,3.5403,3.4851,3.4336,3.3709,3.1964,3.1298,3.1097,2.9503,2.762,2.6013,2.6892,2.546,2.345,2.4236,2.3479,2.2021,2.0862,1.9512,1.8442,1.8322,1.7424,1.7123,1.9683,1.9635,1.9945,0.0,2.3617,2.2898,2.407,2.4353,2.4487,2.4669,2.5587,2.6856,2.8445,2.9854,3.0849,3.1119,3.1883,3.1708,2.9833,3.0048,3.0143,2.9546,3.0516,3.119,3.119,3.1805,3.2468,3.3128,3.3854,3.4284,3.4348,3.4421,3.4353,3.4158,3.4132,3.4132,3.4173,3.4109,3.3925,3.3542,3.356,3.3715,3.3905,3.3577,3.3327,3.3114,3.2513,3.1764,3.1008,3.1111,3.059,2.9702,2.9179,2.8983,2.9,0.0,0.0,0.0,0.0,0.0,0.0,0.0,0.0,0.0,0.0,1.2881,1.3037,1.3467,1.3955,1.4541,1.5254,0.0,0.0,2.1265,2.3293,2.5491,2.7867,2.9158,2.9942,3.0269,3.0507,3.0758,3.1072,3.0827,3.0943,3.1455,3.4856,3.6393,3.6353,3.6447,3.6307,3.6031,3.6257,3.6219,3.5943,3.5077,3.4399,3.3721,3.2039,3.0595,2.9263,2.7866,2.6562,0.0,2.4747,2.3942,2.3143,2.324,2.2864,2.2204,2.1364,2.0339,1.9392,1.8995,1.8797,1.9066,2.074,2.1531,2.2397,2.4255,2.4381,2.4392,2.5582,2.6277,2.6834,2.7101,2.7831,2.8991,3.0598,3.1439,3.2024,3.2434,3.2134,3.118,2.9237,2.9104,2.9251,2.9399,3.0883,3.1664,3.1224,3.2281,3.2877,3.2774,3.386,3.4515,3.4482,3.4936,3.5099,3.497,3.4807,3.4746,3.4826,3.4474,3.4228,3.4072,3.388,3.3962,3.4163,3.3455,3.355,3.4066,3.2791,3.2296,3.2305,3.1793,3.1311,3.0849,3.0246,2.9801,2.9575,0.0,0.0,0.0,0.0,0.0,0.0,0.0,0.0,0.0,0.0,0.0,1.3086,1.3623,1.4346,1.4883,0.0,0.0,0.0,0.0,2.2488,2.4847,2.7102,2.8717,2.9866,3.0608,3.0909,3.1235,3.1625,3.176,3.2043,3.2376,3.5105,3.6434,3.643,3.6364,3.6358,3.6358,3.6358,3.6358,3.627,3.5165,3.4399,3.3684,3.17,2.9599,2.7618,2.6408,2.5129,2.3838,2.2541,2.1981,2.1815,2.1795,2.179,2.1533,2.0759,1.982,1.8951,1.897,1.9552,2.0428,2.1822,2.3468,2.4833,2.5448,2.5912,2.6477,2.7444,2.8134,2.8698,2.9086,2.9745,3.0611,3.198,3.2675,3.2994,3.3099,3.221,3.0875,2.9093,2.8574,2.8493,2.8848,3.0577,3.1495,3.0981,3.2123,3.2673,3.2357,3.352,3.4303,3.4499,3.5459,3.5836,3.5622,3.5639,3.5493,3.5194,3.4764,3.4467,3.4283,3.3962,3.3925,3.4054,3.3486,3.3697,3.4357,3.3158,3.2864,3.3107,3.241,3.196,3.1654,3.1436,3.0864,3.0281,0.0,0.0,0.0,0.0,0.0,0.0,0.0,0.0,0.0,0.0,0.0,0.0,0.0,0.0,1.5117,0.0,0.0,0.0,0.0,2.1541,2.3641,2.6677,2.8195,2.9464,3.062,3.1637,3.2177,3.219,3.2748,3.3568,3.4675,3.5805,3.6443,3.6439,3.6358,3.6358,3.6358,3.6358,3.6358,3.627,3.5165,3.4399,3.3608,3.0871,2.8632,2.6719,2.5756,2.3316,2.0593,2.0864,1.9854,1.8726,2.0365,2.0441,1.9811,1.916,1.7764,1.6688,1.8038,1.8874,2.0061,2.3191,2.5152,2.7024,2.9126,2.9628,2.9829,3.0336,3.0077,2.9741,2.9754,3.0547,3.1151,3.1255,3.2792,3.3529,3.2284,3.1792,3.102,2.9741,2.895,2.8274,2.7606,2.9154,3.0211,3.034,3.0958,3.1664,3.2359,3.3106,3.3834,3.4578,3.6017,3.6395,3.5622,3.6378,3.6231,3.5183,3.5188,3.4885,3.4283,3.3962,3.3807,3.3807,3.3788,3.3807,3.3844,3.4054,3.355,3.2645,3.2857,3.2326,3.1492,3.2258,3.169,3.065,0.0,0.0,0.0,0.0,0.0,0.0,0.0,0.0,0.0,0.0,0.0,0.0,0.0,0.0,0.0,0.0,1.5186,0.0,0.0,2.0104,2.1927,2.4128,2.5927,2.7521,2.9047,3.0092,3.1159,3.2215,3.2822,3.3789,3.5082,3.5978,3.6364,3.6358,3.6358,3.6358,3.6358,3.5463,3.5272,3.5234,3.2689,3.1507,3.1029,2.8292,2.5731,2.3346,0.0,1.9791,1.8311,1.6931,1.6019,1.5652,1.6474,1.6519,1.6394,1.6789,1.7158,1.7775,1.9339,2.0652,2.2302,2.528,2.7019,2.8499,3.0436,3.0846,3.0834,3.0611,2.9598,2.8536,2.8203,2.7753,2.8174,3.0121,3.1327,3.2241,3.2941,3.2524,3.1387,2.9171,2.8623,2.803,2.6991,2.8979,2.999,2.9115,3.0975,3.2044,3.1803,3.2933,3.3899,3.4583,3.5099,3.5404,3.5595,3.5879,3.5836,3.5476,3.5622,3.5465,3.5063,3.4741,3.4926,3.5415,3.4284,3.4091,3.4549,3.4109,3.3733,3.3405,3.3505,3.3321,3.3028,3.3311,3.2757,3.1967,0.0,0.0,0.0,0.0,0.0,0.0,0.0,0.0,0.0,0.0,0.0,0.0,0.0,0.0,0.0,0.0,0.0,1.583,0.0,0.0,2.0365,2.1914,2.3808,2.5521,2.7018,2.8119,2.9226,3.0226,3.2181,3.3627,3.4507,3.4984,3.4794,3.4102,3.4435,3.4502,3.4181,3.3221,3.284,3.2721,3.0285,2.8936,2.8083,2.5352,2.2881,0.0,1.8085,1.6531,1.556,1.4347,1.4027,1.4208,1.4908,1.5403,1.5869,1.6437,1.7492,1.887,2.0627,2.2257,2.4132,2.6819,2.875,3.0179,3.1308,3.1617,3.141,3.0532,2.9012,2.756,2.6609,2.5896,2.6257,2.8393,2.9352,3.0462,3.2213,3.1672,3.0674,2.941,2.8805,2.8157,2.7405,2.9042,2.9703,2.8526,3.0783,3.1854,3.1168,3.2458,3.3568,3.4218,3.4708,3.5321,3.6006,3.6257,3.6265,3.6034,3.574,3.5562,3.5394,3.506,3.5169,3.5524,3.4448,3.4183,3.4531,3.385,3.3678,3.378,3.3633,3.3671,3.377,3.3476,3.3054,3.264,0.0,0.0,0.0,0.0,0.0,0.0,0.0,0.0,0.0,0.0,0.0,0.0,0.0,0.0,0.0,0.0,0.0,0.0,0.0,0.0,0.0,2.0122,2.1924,2.3438,2.455,2.5981,2.674,2.6914,3.0867,3.2777,3.2803,3.2859,3.1736,2.9846,3.0826,3.0972,3.0364,2.9897,2.942,2.8885,2.7776,2.6517,2.4943,2.2062,2.0142,1.8606,1.5769,1.3731,1.2459,1.3092,1.3688,1.4363,1.5534,1.6906,1.8037,1.8047,1.8741,1.9942,2.2067,2.3701,2.5427,2.7712,3.0036,3.1861,3.1837,3.2028,3.172,3.0019,2.8339,2.6651,2.497,2.4952,2.5434,2.6198,2.7161,2.8511,3.0305,2.9551,2.9276,3.0381,2.9537,2.8763,2.8748,2.9353,2.9399,2.8718,3.0344,3.1149,3.0598,3.185,3.2889,3.3502,3.4871,3.5942,3.6649,3.7314,3.7387,3.6791,3.574,3.525,3.5241,3.4898,3.4631,3.4421,3.4316,3.4108,3.3826,3.3369,3.3435,3.3698,3.331,3.3411,3.3643,3.2892,3.2617,3.2625,0.0,0.0,0.0,0.0,0.0,0.0,0.0,0.0,0.0,0.0,0.0,0.0,0.0,0.0,0.0,0.0,0.0,0.0,0.0,0.0,0.0,0.0,0.0,0.0,0.0,0.0,0.0,2.8185,2.8176,2.8459,2.8998,2.902,2.9267,2.9807,3.0078,3.0109,2.9882,2.8704,2.7805,2.7004,2.4681,2.3234,2.1995,1.9043,1.7497,1.6553,1.3983,1.2544,1.2015,1.2398,1.3369,1.4711,1.5913,1.7243,1.8536,1.9171,2.0461,2.1977,2.3533,2.4891,2.6416,2.8204,2.9872,3.1137,3.1228,3.1692,3.1467,2.9005,2.6576,2.4316,2.2682,2.2414,2.3045,2.4761,2.6998,2.9084,3.078,3.1543,3.1762,3.1304,3.1396,3.1339,3.0814,3.093,3.0945,3.0784,3.1201,3.1409,3.1273,3.2043,3.3038,3.4222,3.4117,3.4651,3.59,3.6092,3.6395,3.6791,3.6344,3.6095,3.6056,3.5181,3.5393,3.6382,3.4553,3.4062,3.447,3.3805,3.3235,3.2809,3.2716,3.2749,3.2854,3.2979,3.2847,3.2585,0.0,0.0,0.0,0.0,0.0,0.0,0.0,0.0,0.0,0.0,0.0,0.0,0.0,0.0,0.0,0.0,0.0,0.0,0.0,0.0,0.0,0.0,0.0,0.0,0.0,0.0,0.0,0.0,0.0,0.0,2.5612,2.6335,2.6993,2.7618,2.7618,2.72,2.6531,2.5576,2.4447,0.0,0.0,1.995,1.8493,1.6228,1.4993,1.4223,1.2282,1.1781,1.2255,1.3499,1.4737,1.6005,1.7655,1.9136,2.0459,2.1509,2.2843,2.4172,2.5493,2.6556,2.7516,2.8615,2.9638,3.0121,2.9117,2.9625,2.9402,2.6088,2.4064,2.236,2.0371,2.0243,2.0941,2.2671,2.46,2.6832,2.9334,3.0703,3.1485,3.1733,3.2448,3.2763,3.2418,3.2404,3.2392,3.2385,3.2118,3.1967,3.1911,3.2568,3.3397,3.445,3.4143,3.4593,3.6014,3.6081,3.6282,3.6757,3.6265,3.6051,3.6017,3.5101,3.5078,3.5736,3.4059,3.3487,3.3722,3.3073,3.2703,3.2484,3.2264,3.2316,3.2482,3.2384,3.2197,3.2004,0.0,0.0,0.0,0.0,0.0,0.0,0.0,0.0,0.0,0.0,0.0,0.0,0.0,0.0,0.0,0.0,0.0,0.0,0.0,0.0,0.0,0.0,0.0,0.0,0.0,1.8243,1.8987,1.9681,2.1689,2.2687,0.0,2.4279,2.4725,2.4436,2.4436,2.367,2.2421,2.1924,2.072,1.912,1.8665,1.7283,1.5323,0.0,0.0,1.2311,1.103,1.1283,1.2587,1.5414,1.6937,1.7968,2.0177,2.1909,2.3289,2.4469,2.5376,2.6321,2.7492,2.816,2.8476,2.9079,2.9514,2.9229,2.6963,2.713,2.6614,2.2564,2.1369,2.0432,1.8423,1.8521,1.9297,2.0651,2.1879,2.3804,2.7303,2.8799,3.015,3.1919,3.3093,3.3797,3.3797,3.3688,3.3661,3.3754,3.3137,3.2795,3.2796,3.3354,3.3877,3.4447,3.4613,3.5239,3.6599,3.6596,3.6598,3.6723,3.5983,3.5622,3.556,3.4734,3.4296,3.4116,3.3287,3.2718,3.2422,3.2036,3.2055,3.2282,3.1861,3.1968,3.2228,3.1608,3.1329,3.1296,0.0,0.0,0.0,0.0,0.0,0.0,0.0,0.0,0.0,0.0,1.319,1.2881,0.0,0.0,0.0,0.0,0.0,0.0,0.0,0.0,0.0,0.0,0.0,0.0,1.835,1.8712,1.903,1.9372,1.9973,2.0546,2.1084,2.202,2.2456,2.2412,2.2412,2.2268,2.195,2.1139,1.9825,1.8217,1.8134,1.7011,1.526,0.0,0.0,0.0,1.117,1.09,1.1836,1.5888,1.8489,2.0365,2.2938,2.4883,2.6379,2.6932,2.7461,2.801,2.8525,2.8771,2.9069,3.0282,3.0615,2.9956,2.7757,2.7216,2.5906,2.1336,1.9373,1.8196,1.7427,1.7817,1.893,2.1057,2.2686,2.4642,2.7328,2.9476,3.1079,3.2051,3.395,3.5165,3.5165,3.4623,3.4555,3.5138,3.4524,3.4135,3.4133,3.4271,3.4371,3.4509,3.5001,3.5776,3.6668,3.6081,3.6123,3.6774,3.6,3.5622,3.5526,3.4209,3.3894,3.4367,3.3009,3.2372,3.2332,3.227,3.1896,3.1428,3.1329,3.1351,3.1449,3.165,3.1507,3.1261,0.0,0.0,0.0,0.0,0.0,0.0,0.0,1.3662,1.4222,1.4222,1.4148,1.393,1.3423,1.3253,1.3369,0.0,0.0,0.0,0.0,0.0,0.0,0.0,0.0,0.0,1.7368,1.7519,1.7887,1.8599,0.0,1.8966,2.014,2.0869,2.1239,2.1239,2.1239,2.0974,2.0504,1.9865,1.867,1.7316,1.7134,1.5836,1.4085,0.0,0.0,0.0,0.0,1.0949,1.1922,1.4855,1.7777,2.0849,2.4309,2.6357,2.7476,2.7902,2.8465,2.8988,2.9201,2.9259,2.941,2.978,2.8975,2.7435,2.4844,2.372,2.2146,1.8292,1.7036,1.6455,1.594,1.6596,1.7683,1.9033,2.0641,2.2661,2.5344,2.7601,2.9534,3.1054,3.3274,3.4732,3.4732,3.4901,3.5165,3.5489,3.5195,3.5026,3.5026,3.5026,3.5026,3.5026,3.5335,3.5508,3.5551,3.5204,3.5241,3.5663,3.5274,3.5279,3.5543,3.4459,3.3981,3.3886,3.3185,3.2439,3.1749,3.2121,3.185,3.119,3.119,3.1015,3.074,3.0971,3.0891,3.0781,0.0,0.0,0.0,0.0,0.0,0.0,0.0,1.408,1.4844,1.498,1.5343,1.5304,1.4435,1.3841,1.3545,0.0,0.0,0.0,0.0,0.0,0.0,0.0,0.0,0.0,0.0,0.0,0.0,1.8001,1.7372,0.0,0.0,0.0,0.0,0.0,2.0178,1.9738,1.8984,1.8425,1.759,0.0,0.0,1.4818,1.3235,0.0,0.0,0.0,0.0,1.1069,1.1931,1.3678,1.6426,1.9684,2.3586,2.6101,2.7767,2.7891,2.8592,2.946,2.9524,2.956,2.9608,2.9489,2.7748,2.5283,2.2459,2.0676,1.8826,1.5705,1.5034,1.4974,1.4694,1.5314,1.6122,1.7068,1.8237,2.0075,2.3121,2.5345,2.7533,2.9754,3.2227,3.3677,3.3732,3.4593,3.5195,3.5195,3.5365,3.5504,3.5504,3.5504,3.5504,3.5504,3.5504,3.5157,3.4515,3.4514,3.4439,3.4398,3.4397,3.4668,3.5153,3.4418,3.3829,3.342,3.3237,3.2547,3.1495,3.2053,3.185,3.119,3.1055,3.0699,3.0293,3.0166,3.0123,3.0123,0.0,0.0,0.0,0.0,0.0,0.0,0.0,1.4686,1.5618,1.6174,1.674,1.684,1.6053,1.4511,1.3662,0.0,0.0,0.0,0.0,0.0,0.0,0.0,0.0,0.0,0.0,0.0,0.0,1.8001,1.7419,0.0,0.0,0.0,0.0,0.0,0.0,1.8564,1.805,1.7229,0.0,0.0,0.0,0.0,0.0,0.0,0.0,0.0,0.0,1.0628,1.1083,1.3501,1.4794,1.5927,1.8609,2.33,2.7568,2.6836,2.7678,2.9056,2.9527,2.9552,2.993,3.1106,2.9296,2.6615,2.4207,2.1602,1.8759,1.5477,1.4239,1.3858,1.4321,1.4194,1.4736,1.6859,1.6921,1.8056,2.1804,2.4151,2.6313,2.8599,3.1111,3.2736,3.2737,3.3565,3.4133,3.4133,3.5011,3.5504,3.5504,3.5504,3.5504,3.5504,3.5504,3.5199,3.4498,3.4516,3.4257,3.3678,3.3668,3.3693,3.3746,3.2999,3.2983,3.3434,3.2767,3.2392,3.2208,3.229,3.185,3.1151,3.0617,3.0351,3.0208,2.9673,2.9496,2.9496,0.0,0.0,0.0,0.0,0.0,0.0,1.3238,1.486,1.6143,1.6376,1.7435,1.7784,1.6814,1.5412,1.4508,1.4537,0.0,0.0,0.0,0.0,0.0,0.0,0.0,0.0,0.0,0.0,1.6602,1.8001,1.7733,0.0,0.0,0.0,0.0,0.0,0.0,1.7372,1.7201,1.656,0.0,0.0,0.0,0.0,0.0,0.0,0.0,0.0,0.0,0.0,1.0771,1.1721,1.3025,1.4277,1.4761,1.797,2.1921,2.3642,2.5458,2.7279,2.8458,2.9155,2.9565,2.9599,2.7554,2.4925,2.2484,1.9644,1.6949,1.4825,1.3734,1.3203,1.3458,1.3389,1.3537,1.4478,1.4758,1.5833,1.8776,2.0759,2.3128,2.6458,2.8864,3.0623,3.1675,3.3101,3.4285,3.4896,3.524,3.5504,3.5504,3.5504,3.5504,3.5504,3.5504,3.5205,3.4529,3.4088,3.3967,3.4124,3.3379,3.3409,3.4182,3.3495,3.3061,3.291,3.3083,3.2821,3.237,3.238,3.1974,3.1258,3.0558,2.9848,2.918,2.8966,2.8873,2.8873,0.0,0.0,0.0,0.0,0.0,1.3017,1.3382,1.4953,1.6329,1.6875,1.8017,1.8365,1.7311,1.6585,1.5807,1.5031,1.5679,0.0,0.0,0.0,0.0,0.0,0.0,0.0,0.0,0.0,1.7037,1.8001,1.7858,1.7676,0.0,0.0,1.708,1.6533,0.0,0.0,0.0,0.0,0.0,0.0,0.0,0.0,0.0,0.0,0.0,0.0,0.0,0.0,0.0,0.0,0.0,1.324,1.2585,1.4109,1.682,2.0108,2.2721,2.4958,2.6708,2.8004,2.8703,2.8077,2.5915,2.3372,2.0959,1.8061,1.5529,1.4216,1.3382,1.2881,1.2881,1.2881,1.2881,1.2881,1.3262,1.427,1.6357,1.8276,2.0692,2.3937,2.6256,2.822,2.9907,3.2168,3.4001,3.497,3.5335,3.5504,3.5504,3.5504,3.5504,3.5504,3.5504,3.5145,3.4475,3.4055,3.3955,3.4176,3.31,3.3156,3.4241,3.3372,3.2889,3.2786,3.319,3.3083,3.2705,3.2275,3.1827,3.1281,3.0212,2.9225,2.8463,2.8286,2.8222,2.8222,0.0,0.0,0.0,0.0,0.0,0.0,1.4479,1.5171,1.6159,1.7927,1.8645,1.8653,1.7686,1.8054,1.7545,1.5582,1.5295,0.0,0.0,0.0,0.0,0.0,0.0,0.0,0.0,0.0,1.7382,1.8001,1.7573,1.7393,1.7383,1.7383,1.6914,1.6135,0.0,0.0,0.0,0.0,0.0,0.0,0.0,0.0,0.0,0.0,0.0,0.0,0.0,0.0,0.0,0.0,0.0,0.0,0.0,1.2697,0.0,0.0,1.9592,2.2354,2.3944,2.5732,2.7051,2.7031,2.5068,2.2568,2.04,1.7561,1.5059,1.378,1.3186,1.2881,1.2881,1.2881,1.2881,1.2881,1.2929,1.3516,1.5169,1.7373,1.9467,2.1238,2.3451,2.5538,2.7216,3.0562,3.2999,3.395,3.4916,3.5504,3.5504,3.5504,3.5504,3.5504,3.5504,3.5175,3.4487,3.4472,3.4143,3.3484,3.2826,3.2856,3.344,3.2123,3.2249,3.3483,3.2848,3.2954,3.3399,3.2047,3.1491,3.1194,2.9264,2.8511,2.8431,2.781,2.7625,2.7625,0.0,0.0,0.0,0.0,0.0,0.0,0.0,1.4612,1.5686,1.6289,1.7568,1.8179,1.7484,1.718,1.6594,1.5519,1.552,0.0,0.0,0.0,0.0,0.0,0.0,0.0,0.0,0.0,1.7553,1.7996,1.789,1.7521,1.6944,1.6899,1.6432,1.5615,1.5615,1.5537,0.0,0.0,0.0,0.0,0.0,0.0,1.2595,0.0,0.0,0.0,0.0,0.0,0.0,0.0,0.0,0.0,0.0,0.0,0.0,1.3918,1.6451,1.9344,2.1588,2.3066,2.3867,2.3584,2.2002,2.0098,1.8535,1.6272,1.434,1.3652,1.32,1.2881,1.2881,1.2881,1.2998,1.3272,1.333,1.3734,1.5039,1.6655,1.8862,2.2063,2.5858,2.866,2.9845,3.0986,3.2313,3.3893,3.4286,3.4762,3.5489,3.5056,3.5041,3.5504,3.5504,3.54,3.519,3.4711,3.4607,3.4861,3.3724,3.3529,3.4128,3.2796,3.2406,3.2779,3.2113,3.2259,3.2767,3.1416,3.0838,3.075,2.9604,2.8928,2.8571,2.8366,2.8278,2.8203,0.0,0.0,0.0,0.0,0.0,0.0,0.0,1.4174,1.5071,1.5738,1.6634,1.7135,1.6885,1.6593,1.6134,1.5463,1.6556,0.0,0.0,0.0,0.0,0.0,0.0,0.0,0.0,1.7622,1.7744,1.8008,1.8008,1.7628,1.697,1.6953,1.6505,1.5663,1.5654,1.5546,0.0,0.0,0.0,0.0,0.0,0.0,1.3004,0.0,0.0,0.0,0.0,0.0,0.0,0.0,0.0,0.0,0.0,0.0,0.0,0.0,1.407,1.5954,1.8764,2.0235,2.0986,2.0946,1.9635,1.8091,1.7093,1.5332,1.3747,1.3345,1.3066,1.2881,1.2881,1.2881,1.2998,1.3213,1.3408,1.3743,1.4416,1.6181,1.8796,2.2528,2.6479,2.9016,2.9376,3.0598,3.1642,3.2388,3.3729,3.4857,3.5489,3.4763,3.464,3.5122,3.5135,3.5085,3.5085,3.4726,3.473,3.51,3.3754,3.3469,3.4068,3.2736,3.2273,3.2482,3.1824,3.191,0.0,3.1075,3.072,3.0902,2.9879,2.9303,2.8951,2.8682,2.8607,2.845,0.0,0.0,0.0,0.0,0.0,0.0,0.0,1.3768,1.4378,1.594,1.5751,1.562,1.6037,1.623,1.6063,1.5463,0.0,0.0,0.0,0.0,0.0,0.0,0.0,0.0,0.0,1.7521,1.794,1.8008,1.8008,1.7801,1.7457,1.7402,1.6954,1.6163,1.6105,1.5858,0.0,0.0,0.0,0.0,0.0,0.0,0.0,0.0,0.0,0.0,0.0,0.0,0.0,0.0,0.0,0.0,0.0,0.0,0.0,0.0,0.0,0.0,0.0,1.7194,1.8348,1.8754,1.7662,1.6346,1.5991,1.4629,0.0,1.291,1.2822,1.2832,1.2803,1.2832,1.2813,1.2881,1.3266,1.3537,1.3657,1.6286,1.9427,2.2777,2.5714,2.7239,2.6677,2.9639,3.11,2.9907,3.3185,3.5338,3.5504,3.4676,3.4258,3.4419,3.439,3.4371,3.4431,3.4468,3.446,3.4382,3.317,3.2901,3.3455,3.2183,3.1943,3.2482,3.1824,3.1838,3.236,3.1041,3.0879,3.1289,3.0135,2.9639,2.9564,2.8853,2.8614,2.839,0.0,0.0,0.0,0.0,0.0,0.0,0.0,0.0,0.0,0.0,1.4406,1.4949,1.5159,1.5235,1.53,0.0,0.0,0.0,0.0,0.0,0.0,0.0,0.0,0.0,1.7227,1.7032,1.7285,1.8008,1.8008,1.8075,1.827,1.7674,1.7314,1.7047,1.6407,1.585,0.0,0.0,0.0,0.0,0.0,0.0,0.0,0.0,0.0,0.0,1.2715,1.2764,0.0,0.0,0.0,0.0,0.0,0.0,0.0,0.0,1.1224,1.1195,1.1971,0.0,1.4423,1.4542,1.4393,1.4205,0.0,1.3545,1.2841,1.2206,0.0,1.1995,1.1831,1.1945,1.2231,1.2813,1.3484,1.4213,1.4861,1.8998,2.2466,2.3812,2.7049,2.871,2.7442,2.9118,3.0163,2.9804,3.1504,3.3447,3.5389,3.4676,3.4076,3.3771,3.3228,3.3246,3.3767,3.4233,3.4265,3.3724,3.341,3.335,3.3469,3.2647,3.2362,3.2482,3.1824,3.1263,3.0808,3.0592,3.0253,2.9883,3.016,3.0283,3.0152,2.8887,2.8417,2.8202,0.0,0.0,0.0,0.0,0.0,0.0,0.0,0.0,0.0,0.0,0.0,0.0,0.0,0.0,0.0,0.0,0.0,0.0,0.0,0.0,0.0,0.0,0.0,1.6391,1.7373,1.7292,1.7596,1.8301,1.828,1.8359,1.8589,1.8553,1.811,1.7349,1.6477,1.5861,0.0,0.0,0.0,0.0,1.5332,0.0,0.0,0.0,0.0,0.0,1.2881,1.2881,0.0,1.2501,1.2393,1.2246,0.0,0.0,0.0,0.0,1.0364,1.0261,0.9969,1.0934,1.2193,1.2672,1.2543,1.2419,1.2945,0.0,0.0,0.0,0.0,0.0,1.2063,1.2438,1.2812,1.3392,1.4011,1.5012,1.6627,1.9897,2.2599,2.3743,2.6816,2.8723,2.8586,2.9372,2.9792,2.9792,3.0471,3.1971,3.4506,3.3425,3.2909,3.3497,3.2838,3.2512,3.2449,3.3183,3.3184,3.2426,3.2541,3.2602,3.2587,3.1841,3.1485,3.147,3.1117,3.0464,2.9737,3.0191,3.0178,2.975,2.9795,3.0046,3.0221,2.8783,2.8064,2.7567,0.0,0.0,0.0,0.0,0.0,0.0,0.0,0.0,0.0,0.0,0.0,0.0,0.0,0.0,0.0,0.0,0.0,0.0,0.0,0.0,0.0,0.0,0.0,1.6796,1.7419,1.7639,1.8036,1.8545,1.8701,1.8794,1.8849,1.974,1.9168,1.7476,1.6528,1.586,0.0,0.0,0.0,1.4912,1.5264,0.0,0.0,0.0,0.0,0.0,0.0,0.0,0.0,1.2021,1.1715,1.1516,1.0864,0.0,0.0,0.0,0.0,0.0,0.9113,0.9896,1.1096,1.2034,1.1679,1.1345,1.2353,0.0,0.0,0.0,0.0,0.0,0.0,1.2812,1.3372,1.3836,1.445,1.5802,1.8405,1.9719,2.1221,2.3285,2.6146,2.8288,2.9199,2.9576,2.9741,2.9539,2.9719,3.079,3.3012,3.1579,3.1425,3.326,3.2421,3.1608,3.0864,3.1795,3.1871,3.1065,3.122,3.1409,3.1467,3.0777,3.0464,3.0464,3.0329,2.9827,2.9066,2.9827,3.0011,2.9813,2.9157,2.9302,2.9783,2.8199,2.7256,2.6676,0.0,0.0,0.0,0.0,0.0,0.0,0.0,0.0,0.0,0.0,0.0,0.0,0.0,0.0,0.0,0.0,0.0,0.0,0.0,0.0,0.0,1.6789,1.5954,1.6141,1.7357,1.7022,1.7245,1.8105,1.9287,1.9833,1.9702,2.0695,1.9987,1.7864,1.6648,1.5831,1.541,1.541,1.5371,1.5322,1.5381,0.0,0.0,0.0,0.0,0.0,0.0,0.0,0.0,1.1814,1.1416,1.0864,1.0167,0.0,0.0,0.0,0.0,0.0,0.9658,1.0488,1.1339,1.1124,1.1846,1.2597,1.2812,1.2783,0.0,0.0,0.0,0.0,0.9688,1.0407,1.1643,1.2859,1.4329,1.6291,1.9108,1.89,1.963,2.2829,2.6931,2.8836,2.7188,2.871,2.9439,2.8461,2.9263,3.02,3.1015,3.005,3.0337,3.224,3.0488,2.9471,2.9309,3.0688,3.1058,3.0459,3.0493,3.0837,3.1482,3.1351,3.1351,3.1278,3.0584,2.9827,2.9002,2.9129,2.8748,2.8128,2.8249,2.8413,2.8288,2.6364,2.5608,2.521,0.0,0.0,0.0,0.0,0.0,0.0,0.0,0.0,0.0,0.0,0.0,0.0,0.0,0.0,0.0,0.0,0.0,0.0,0.0,0.0,0.0,1.7115,1.6882,1.7159,1.8048,1.7804,1.8125,1.9026,2.0217,2.0743,2.0709,2.1184,2.0406,1.8643,1.7582,1.6507,1.541,1.541,1.541,1.541,0.0,0.0,0.0,0.0,0.0,0.0,0.0,0.0,0.0,0.0,1.0517,1.0167,0.9458,0.0,0.0,0.0,0.0,0.0,0.9263,1.0179,1.1079,1.0854,1.1645,1.2498,1.2647,1.2379,0.0,0.0,0.0,1.2777,1.2422,1.2851,1.357,1.4603,1.5638,1.7223,1.98,2.043,2.1292,2.3319,2.651,2.8525,2.8262,2.8824,2.8987,2.8575,2.8762,2.9196,2.9998,2.928,2.947,3.0904,2.9714,2.8748,2.8298,2.8944,2.9201,2.8876,2.938,2.9766,3.0133,2.9628,2.9442,2.9442,2.9066,2.8427,2.7644,2.7833,2.7822,2.7578,2.6696,2.684,2.7287,2.5266,2.4226,2.3654,0.0,0.0,0.0,0.0,0.0,0.0,0.0,0.0,0.0,0.0,0.0,0.0,0.0,0.0,0.0,0.0,0.0,0.0,0.0,0.0,1.7567,1.7399,1.7813,1.8164,1.8574,1.8704,1.9093,1.9757,2.1086,2.1871,2.2173,2.1587,2.0598,1.9253,1.8583,1.729,1.5642,1.5642,1.5642,1.5642,0.0,0.0,0.0,0.0,0.0,0.0,0.0,0.0,0.0,0.0,0.0,0.0,0.0,0.0,0.0,0.8804,0.8903,0.9061,0.9061,1.0074,1.1184,1.104,1.167,1.243,1.2894,1.2663,1.2161,1.1758,1.3131,1.4612,1.526,1.5889,1.6417,1.6835,1.7779,1.9239,2.1394,2.329,2.4632,2.5222,2.6962,2.8512,2.9414,2.9063,2.87,2.8561,2.8273,2.8384,2.893,2.8486,2.8635,2.9624,2.8869,2.8182,2.767,2.7406,2.7406,2.7736,2.8363,2.8812,2.9002,2.8298,2.7986,2.7986,2.7802,2.7351,2.6799,2.6674,2.6805,2.7038,2.5293,2.5167,2.5853,2.4342,2.3142,2.2075,0.0,0.0,0.0,0.0,0.0,0.0,0.0,0.0,0.0,0.0,0.0,0.0,0.0,0.0,0.0,0.0,0.0,0.0,0.0,0.0,1.7297,1.7409,1.776,1.8197,1.8574,1.9014,1.9243,1.9352,2.167,2.3375,2.4508,2.2232,2.0523,1.9301,1.9112,1.8039,1.6436,1.6436,1.6436,1.6379,1.569,0.0,0.0,0.0,0.0,0.0,0.0,0.0,0.0,0.0,0.0,0.0,0.0,0.0,0.8804,0.8804,0.9263,0.9718,0.9718,1.1025,1.2259,1.1863,1.2283,1.3171,1.4369,1.4576,0.0,1.4369,1.4879,1.534,1.5405,1.7389,1.8935,1.8765,2.0928,2.3203,2.4675,2.7411,2.9352,2.9358,2.9518,2.9389,2.8812,2.8838,2.8499,2.7482,2.7846,2.7883,2.7498,2.7435,2.7793,2.8554,2.7378,2.704,2.767,2.6422,2.6435,2.767,2.7736,2.8247,2.9002,2.8939,2.8939,2.8876,2.8051,2.767,2.7498,2.6212,2.5744,2.5615,2.4481,2.3753,2.3362,2.3226,2.2111,2.0775,0.0,0.0,0.0,0.0,0.0,0.0,0.0,0.0,0.0,0.0,0.0,0.0,0.0,0.0,0.0,0.0,0.0,0.0,0.0,1.7263,1.7482,1.7188,1.7695,1.8296,1.899,1.9442,1.9821,2.013,2.1865,2.3482,2.4785,2.3506,2.1877,1.9948,1.9948,1.8908,1.7191,1.7203,1.7159,1.7191,1.686,1.6322,0.0,0.0,0.0,0.0,0.0,0.0,0.0,0.0,0.9008,0.8804,0.8804,0.8804,0.8804,0.8804,0.8956,0.9159,0.9159,1.0475,1.1756,1.131,1.2232,0.0,0.0,1.5381,1.5732,1.6104,1.6645,1.6922,1.6678,1.763,1.8714,1.9324,2.0647,2.3069,2.747,2.9057,2.9501,2.883,2.9023,2.9026,2.8374,2.8097,2.7733,2.7318,2.7155,2.6992,2.6779,2.6766,2.6797,2.6675,2.6215,2.5962,2.587,2.534,2.534,2.587,2.6202,2.6541,2.687,2.7235,2.7484,2.7417,2.7095,2.6973,2.6841,2.5605,2.531,2.5485,2.4418,2.3331,2.2384,2.2384,2.129,1.9814,0.0,0.0,0.0,0.0,0.0,0.0,0.0,0.0,0.0,0.0,0.0,0.0,0.0,0.0,0.0,0.0,0.0,0.0,1.5596,1.6581,1.7185,1.6855,1.7475,1.8154,1.8885,1.9573,2.0139,2.0566,2.1847,2.3176,2.4558,2.4004,2.264,2.0674,2.0919,2.0058,1.8473,1.832,1.8208,1.8178,1.7795,1.7005,0.0,0.0,0.0,0.0,0.0,0.0,0.0,0.0,0.8804,0.8804,0.8804,0.8804,0.8804,0.8804,0.8804,0.8804,0.8804,1.0031,1.1179,1.0879,0.0,0.0,1.5508,1.6064,1.6625,1.7721,1.817,1.8259,1.8056,1.8452,1.9094,1.991,2.0327,2.2296,2.7115,2.8686,2.8949,2.8176,2.8425,2.8448,2.7896,2.7344,2.7017,2.7017,2.6502,2.6189,2.6189,2.6189,2.5937,2.5372,2.536,2.5184,2.482,2.4644,2.4556,2.4569,2.4921,2.5272,2.5611,2.6013,2.6189,2.6189,2.6189,2.6101,2.5875,2.4946,2.4657,2.468,2.3741,2.2724,2.1877,2.1616,2.059,1.9299,0.0,0.0,0.0,0.0,0.0,0.0,0.0,0.0,0.0,0.0,0.0,0.0,0.0,0.0,0.0,0.0,0.0,0.0,1.5646,1.6001,1.6313,1.635,1.7045,1.7578,1.8008,1.9274,2.013,2.0615,2.1503,2.2631,2.4004,2.3403,2.2418,2.1212,2.1959,2.1592,2.0399,1.9873,1.9591,1.9476,1.8166,1.7191,1.6486,0.0,0.0,0.0,0.0,0.0,0.0,0.0,0.8804,0.8804,0.8804,0.8804,0.8804,0.8804,0.8804,0.8804,0.8804,0.9769,1.0821,1.0821,0.0,0.0,1.6276,1.6675,1.7344,1.9473,1.9515,1.9199,1.9265,2.0065,2.0676,2.0818,2.071,2.1314,2.3245,2.6154,2.8097,2.8097,2.8097,2.7883,2.7331,2.6848,2.6521,2.6521,2.5912,2.5586,2.5586,2.5586,2.5347,2.4833,2.4808,2.4808,2.4808,2.4268,2.3991,2.3991,2.3991,2.4544,2.5573,2.5586,2.5586,2.5586,2.5586,2.5297,2.4782,2.423,2.3653,2.3017,2.2199,2.1877,2.1753,2.091,2.0009,1.9299,0.0,0.0,0.0,0.0,0.0,0.0,0.0,0.0,0.0,0.0,0.0,0.0,0.0,0.0,0.0,0.0,0.0,0.0,1.8531,1.77,1.7546,1.8405,1.8518,1.9125,2.021,2.0944,2.1538,2.2078,2.236,2.2991,2.4022,2.4205,2.3479,2.1994,2.2573,2.2243,2.1151,2.0605,2.0382,2.0279,1.8929,1.7756,1.6763,0.0,0.0,0.0,0.0,0.0,0.0,0.0,0.0,0.0,0.8804,0.8804,0.8804,0.8804,0.8804,0.8804,0.8804,1.0038,1.1306,1.1306,1.3168,1.5332,0.0,1.6973,0.0,1.9438,2.0378,2.0942,2.1364,2.1959,2.2252,2.1862,2.1721,2.234,2.3998,2.5829,2.6937,2.6937,2.7288,2.7306,2.6753,2.6189,2.585,2.585,2.536,2.5059,2.5059,2.5059,2.4808,2.4255,2.4243,2.4042,2.3578,2.3477,2.3389,2.3389,2.3389,2.3766,2.4481,2.487,2.5059,2.5059,2.5059,2.4971,2.4782,2.423,2.3344,2.2261,2.2002,2.1175,2.003,1.9436,1.8697,1.7905,0.0,0.0,0.0,0.0,0.0,0.0,0.0,0.0,0.0,0.0,0.0,0.0,0.0,0.0,0.0,0.0,0.0,0.0,0.0,1.8948,1.8544,1.867,1.8961,1.9851,2.1506,2.1605,2.2036,2.296,2.2557,2.2915,2.4026,2.4116,2.3867,2.3281,2.3429,2.3113,2.2435,2.1644,2.1138,2.0716,1.9552,1.8251,1.6939,0.0,0.0,0.0,0.0,0.0,0.0,0.0,0.0,0.0,0.8844,0.8804,0.8804,0.8804,0.9008,0.9211,0.9211,1.0527,1.1973,1.2329,1.4211,1.6262,1.7755,1.8677,1.9424,2.0246,2.1523,2.2871,2.3788,2.3875,2.3649,2.3341,2.3629,2.4234,2.5135,2.5978,2.6474,2.6474,2.6809,2.6829,2.6559,2.5749,2.5372,2.5573,2.4908,2.4494,2.4494,2.4494,2.4243,2.3665,2.3653,2.3489,2.3078,2.3078,2.3078,2.3078,2.3078,2.3314,2.3678,2.4243,2.4494,2.4481,2.3914,2.3827,2.4054,2.3079,2.2351,2.1815,2.1175,2.0204,1.918,1.8407,1.781,1.7314,0.0,0.0,0.0,0.0,0.0,0.0,0.0,0.0,0.0,0.0,0.0,0.0,0.0,0.0,0.0,0.0,0.0,0.0,0.0,0.0,1.94,1.8222,1.9078,2.0335,2.1958,2.1672,2.202,2.3189,2.2453,2.276,2.4022,2.3694,2.4058,2.4769,2.4317,2.3979,2.3792,2.2727,2.1746,2.0794,1.9883,1.8566,1.7089,1.6137,0.0,0.0,0.0,0.0,0.0,0.0,0.0,0.0,0.8971,0.8884,0.8878,0.8851,0.9253,0.9747,0.9769,1.1127,1.2698,1.3605,1.5415,1.7536,1.9729,2.1207,2.1983,2.1573,2.2948,2.4696,2.6229,2.566,2.507,2.5143,2.5873,2.6508,2.6458,2.6364,2.6339,2.6382,2.6382,2.6327,2.6445,2.5385,2.4958,2.5485,2.4531,2.3916,2.3916,2.3916,2.3678,2.309,2.3078,2.3078,2.3078,2.3078,2.3078,2.3078,2.3078,2.3053,2.3075,2.3653,2.3916,2.3829,2.2478,2.2322,2.2884,2.1232,2.1003,2.1479,1.9846,1.917,1.9048,1.776,1.7285,1.7256,0.0,0.0,0.0,0.0,0.0,0.0,0.0,0.0,0.0,0.0,0.0,0.0,0.0,0.0,0.0,0.0,0.0,0.0,0.0,0.0,2.0782,2.1063,2.226,2.2606,2.195,2.2891,2.3007,2.2201,2.3208,2.381,2.4025,2.5227,2.5475,2.4781,2.4653,2.3998,2.2923,2.2476,2.1451,1.9946,1.9078,1.8107,1.703,1.5608,1.4943,0.0,0.0,0.0,0.0,0.0,0.0,0.0,0.9733,0.9492,0.9452,0.9218,0.92,0.9411,0.9732,1.099,1.2543,1.3947,1.6485,1.9261,2.1146,2.2412,2.3043,2.2615,2.4345,2.6077,2.6444,2.6661,2.6621,2.627,2.6383,2.6302,2.585,2.5436,2.517,2.5197,2.5172,2.5335,2.5737,2.4808,2.4406,2.4946,2.3954,2.3265,2.3265,2.3265,2.3203,2.3078,2.3078,2.3078,2.3078,2.3078,2.3078,2.3078,2.3078,2.2912,2.251,2.3062,2.3265,2.3253,2.2309,2.2013,2.2039,2.0602,1.9979,1.9738,1.8691,1.8294,1.8131,1.6821,1.6572,1.6758,0.0,0.0,0.0,0.0,0.0,0.0,0.0,0.0,0.0,0.0,0.0,0.0,0.0,0.0,0.0,0.0,0.0,0.0,0.0,0.0,2.1665,2.2141,2.2699,2.2955,2.2915,2.3615,2.3751,2.3299,2.4335,2.4682,2.4401,2.5322,2.5536,2.5194,2.4893,2.4238,2.3276,2.2445,2.1258,1.9722,1.8687,1.7609,1.6587,1.5505,1.5088,1.5002,1.4421,0.0,0.0,0.0,0.0,0.0,0.0,0.0,1.0044,0.9881,0.9879,1.003,1.0213,1.1803,1.3871,1.5895,1.7995,2.0058,2.1892,2.2684,2.3262,2.4006,2.5426,2.6527,2.6511,2.6509,2.6377,2.6088,2.6047,2.5794,2.5285,2.4797,2.4583,2.4768,2.482,2.4921,2.5197,2.4481,2.4117,2.4406,2.3376,2.2736,2.2736,2.2485,2.2347,2.2347,2.2347,2.2347,2.2347,2.2347,2.2347,2.2347,2.2347,2.2089,2.1699,2.1981,2.225,2.2433,2.0961,2.0546,2.0823,1.9087,1.8607,1.8835,1.7779,1.7496,1.7578,1.6475,1.6211,1.6318,0.0,0.0,0.0,0.0,0.0,0.0,0.0,0.0,0.0,0.0,0.0,0.0,0.0,0.0,0.0,0.0,0.0,0.0,0.0,0.0,0.0,2.2585,2.2445,2.2919,2.4002,2.4205,2.443,2.4698,2.5319,2.5444,2.5095,2.5184,2.544,2.5731,2.5059,2.4493,2.3828,2.2589,2.1187,1.9621,1.8595,1.7348,1.6076,1.5576,1.5245,1.5071,1.5148,1.4641,1.3892,1.37,0.0,0.0,0.0,0.0,1.0934,1.088,1.0929,1.0986,1.1082,1.2967,1.5478,1.792,1.9111,2.0216,2.2144,2.2463,2.2981,2.5019,2.59,2.6302,2.6314,2.585,2.546,2.546,2.5327,2.5037,2.4707,2.4275,2.4124,2.4455,2.4531,2.4569,2.4669,2.418,2.3891,2.3991,2.2949,2.2309,2.2309,2.1782,2.1493,2.1493,2.1493,2.1493,2.1493,2.1493,2.1493,2.1493,2.1281,2.1039,2.0687,2.0474,2.0778,2.1463,1.9378,1.8921,1.9437,1.7397,1.7226,1.8121,1.6941,1.6816,1.7168,1.6146,1.5805,1.5814,0.0,0.0,0.0,0.0,0.0,0.0,0.0,0.0,0.0,0.0,0.0,0.0,0.0,0.0,0.0,0.0,0.0,0.0,2.1852,0.0,0.0,2.3728,2.4166,2.4312,2.4154,2.4975,2.5012,2.4261,2.5148,2.5824,2.6276,2.6264,2.6333,2.6345,2.5272,2.4369,2.3544,2.3133,2.1299,1.8807,1.9022,1.7942,1.6076,1.5576,1.4773,1.3868,1.4264,1.3644,1.2705,1.3024,1.3064,0.0,0.0,0.0,1.2609,1.2364,1.2051,1.1852,1.2193,1.3736,1.5771,1.7627,1.8457,1.9384,2.1563,2.1918,2.2389,2.4493,2.5244,2.5582,2.5699,2.5272,2.4921,2.4921,2.4576,2.4327,2.4155,2.3591,2.3294,2.3328,2.3303,2.3565,2.4067,2.359,2.3452,2.3966,2.2949,2.2309,2.2309,2.1782,2.1493,2.1493,2.1493,2.1493,2.1493,2.1493,2.1493,2.1481,2.0372,1.9733,1.9511,1.8256,1.86,2.0104,1.8703,1.8142,1.8171,1.6748,1.6478,1.6855,1.5908,1.6094,1.6583,1.5028,1.4693,1.4869,0.0,0.0,0.0,0.0,0.0,0.0,0.0,0.0,0.0,0.0,0.0,0.0,0.0,0.0,0.0,2.2986,2.3285,2.3205,2.2622,2.3034,2.3477,2.3979,2.4519,2.4738,2.4553,2.5249,2.5117,2.4232,2.5506,2.5915,2.5676,2.6557,2.6753,2.6508,2.595,2.5012,2.372,2.3154,2.1342,1.896,1.8964,1.7593,1.5703,1.5752,1.5332,1.4657,1.5131,1.4771,1.4132,1.4592,1.4574,1.4332,1.4332,0.0,0.0,0.0,1.2567,1.2431,1.3196,1.4224,1.542,1.6924,1.7793,1.8704,2.0312,2.0871,2.1621,2.3469,2.4,2.4337,2.5006,2.472,2.4356,2.4356,2.3642,2.323,2.3428,2.3042,2.277,2.3053,2.3078,2.3178,2.3489,2.3288,2.3113,2.3062,2.2309,2.1719,2.1405,2.0577,2.025,2.0539,2.0263,2.025,2.0539,2.0539,2.0312,1.9921,1.8959,1.834,1.8121,1.7238,1.7525,1.8743,1.7502,1.6941,1.685,1.6049,1.5957,1.6299,1.5664,1.5801,1.6218,1.4731,1.4321,1.4387,0.0,0.0,0.0,0.0,0.0,0.0,0.0,0.0,0.0,0.0,0.0,0.0,0.0,0.0,0.0,0.0,2.4333,2.4626,2.3914,2.4124,2.4292,2.4393,2.4795,2.5096,2.5234,2.5611,2.5475,2.478,2.5965,2.6243,2.578,2.6859,2.713,2.6866,2.6647,2.5611,2.4129,2.3386,2.1768,1.9744,1.9122,1.769,1.5928,1.5979,1.5596,1.5166,1.5657,1.5352,1.4871,1.5546,1.5463,1.5108,1.5352,1.484,0.0,0.0,0.0,1.3252,1.4048,1.4531,1.5078,1.6279,1.7051,1.782,1.9157,2.0009,2.0983,2.2504,2.2837,2.3071,2.3916,2.3766,2.3565,2.3565,2.2749,2.2297,2.2849,2.2573,2.2523,2.3015,2.3078,2.3078,2.3078,2.2952,2.2761,2.2347,2.1669,2.1041,2.0476,1.9547,1.9145,1.9397,1.9158,1.9221,1.9597,1.9569,1.915,1.8394,1.7688,1.7051,1.6595,1.6255,1.6461,1.716,1.6277,1.5898,1.5869,1.5547,1.5605,1.5869,1.5537,1.5487,1.5489,1.4321,1.3786,1.3476,0.0,0.0,0.0,0.0,0.0,0.0,0.0,0.0,0.0,0.0,0.0,0.0,2.2448,2.3254,2.4168,2.5264,2.5997,2.6245,2.5959,2.538,2.5159,2.5526,2.5536,0.0,2.6433,2.6471,2.6414,2.6346,2.644,2.6992,2.7936,2.7519,2.7544,2.7971,2.6929,2.5837,2.4745,2.4154,2.2813,2.1021,1.9999,1.8635,1.7201,1.6133,1.5106,1.4327,1.4787,1.418,1.3302,1.455,1.4669,1.4392,1.5167,1.5342,1.5313,0.0,0.0,0.0,1.4746,1.4766,1.5057,1.6098,1.6274,1.6658,1.8289,1.9505,2.0629,2.1814,2.2085,2.2097,2.2147,2.2255,2.2397,2.2397,2.1907,2.1732,2.2284,2.2334,2.2523,2.3015,2.3078,2.3078,2.3078,2.2661,2.2347,2.2309,2.1317,2.0451,1.9874,1.9334,1.8794,1.8304,1.8769,1.8995,1.9021,1.8855,1.8394,1.7633,1.6922,1.5992,1.491,1.488,1.49,1.4959,1.5283,1.5449,1.5439,1.542,1.542,1.5439,1.542,1.4942,1.4181,1.3373,1.2573,1.1834,0.0,0.0,0.0,0.0,0.0,0.0,0.0,0.0,0.0,0.0,0.0,0.0,0.0,2.4669,2.576,2.6169,2.6774,2.7073,2.6973,2.6524,2.6317,2.6414,2.6273,2.6414,2.6979,2.671,2.6325,2.6068,2.6325,2.6375,2.6165,2.6909,2.7205,2.7042,2.7005,2.6364,2.5285,2.4757,2.3416,2.1655,2.0807,1.9529,1.8005,1.7037,1.6437,1.6059,1.5805,1.5402,1.5046,1.551,1.5343,1.4991,1.5294,1.541,1.5361,1.5088,1.4707,1.4365,1.4365,1.4505,1.4778,1.5233,1.5487,1.5817,1.6406,1.8338,2.0075,2.0321,2.0852,2.1393,2.1606,2.2001,2.2196,2.1845,2.133,2.1154,2.1707,2.1481,2.1455,2.202,2.2083,2.2083,2.2083,2.1895,2.1631,2.128,2.0539,1.9874,1.9334,1.8455,1.8041,1.8204,1.8392,1.8461,1.8434,1.7873,1.7111,1.6041,1.5324,1.473,1.4375,1.4658,1.4785,1.4795,1.4941,1.5156,1.541,1.541,1.541,1.541,1.541,1.4925,1.411,1.3314,1.2469,1.1667,0.0,0.0,0.0,0.0,0.0,0.0,0.0,0.0,0.0,0.0,0.0,0.0,0.0,0.0,2.7549,2.8232,2.8225,2.8364,2.8734,2.8283,2.7863,2.7591,2.7407,2.7343,2.7455,2.6918,2.6471,2.6008,2.6139,2.6077,2.579,2.6623,2.6816,2.6533,2.664,2.6201,2.531,2.477,2.3678,2.2299,2.1269,2.0297,1.9263,1.7995,1.7503,1.7395,1.6914,1.6533,1.6289,1.6289,1.5996,1.5605,1.5459,1.541,1.5352,1.5078,1.4785,1.4561,1.4561,1.47,1.4914,1.499,1.5187,1.5505,1.583,1.736,1.887,1.9459,2.0049,2.0545,2.0859,2.1237,2.1355,2.0978,2.0614,2.0501,2.0878,2.0778,2.092,2.143,2.1493,2.1493,2.1493,2.133,2.1054,2.0743,1.9962,1.9309,1.8781,1.789,1.7551,1.7915,1.7716,1.7677,1.7843,1.6865,1.5962,1.5184,1.443,1.4009,1.3936,1.4228,1.4355,1.4355,1.4355,1.4756,1.5391,1.5061,1.508,1.5187,1.5187,1.4569,1.357,1.3143,1.2348,1.1305,0.0,0.0,0.0,0.0,0.0,0.0,0.0,0.0,0.0,2.0799,0.0,0.0,0.0,0.0,0.0,3.144,3.0388,3.0145,3.141,3.0719,2.9906,2.9129,2.9016,2.8634,2.7762,2.7195,2.6804,2.6546,2.59,2.6189,2.7256,2.6773,2.6521,2.6508,2.5917,2.5375,2.4782,2.423,2.369,2.3037,2.138,2.0939,2.1033,1.8928,1.811,1.805,1.8055,1.7507,1.6811,1.6792,1.6507,1.6127,1.5645,1.5449,1.5449,1.5439,1.543,1.542,0.0,0.0,0.0,1.541,1.541,1.5662,1.6633,1.6658,1.7129,1.9285,1.9646,1.9605,1.9714,1.9778,1.9773,1.9736,1.9748,1.9748,1.9748,2.0238,2.079,2.133,2.1393,2.1393,2.1393,2.0903,2.0643,2.0643,1.9597,1.8744,1.8204,1.7652,1.7363,1.7375,1.672,1.6657,1.7194,1.588,1.5153,1.5142,1.44,1.3887,1.3486,1.3496,1.3506,1.3506,1.3506,1.4219,1.5322,1.4475,1.4364,1.4772,1.4772,1.3803,1.243,1.286,1.1965,1.0624,0.0,0.0,0.0,0.0,0.0,0.0,2.0504,2.0582,2.1135,0.0,0.0,0.0,2.7423,2.8989,3.0262,3.1417,3.0339,3.0164,3.144,3.1294,3.1008,3.0838,2.9659,2.8746,2.8317,2.7776,2.7335,2.7055,2.649,2.6377,2.6747,2.7172,2.7351,2.7324,2.6818,2.6244,2.5683,2.4531,2.4142,2.4205,2.2535,2.1918,2.1802,2.0332,1.9703,1.9561,1.9133,1.8967,1.8978,1.8703,1.8496,1.8306,1.7528,1.6738,1.6065,1.6056,1.572,1.5405,1.541,0.0,0.0,0.0,0.0,0.0,1.572,1.6161,1.6694,1.7286,1.8233,1.8863,1.8474,1.8867,1.8982,1.8179,1.8392,1.8643,1.8643,1.8794,1.8945,1.9095,1.9108,1.9108,1.9108,1.897,1.8882,1.8882,1.8242,1.7765,1.7614,1.7074,1.6747,1.6708,1.6512,1.6056,1.5334,1.4939,1.4343,1.3511,1.3322,1.3164,1.3066,1.3369,1.3506,1.3506,1.3506,1.3877,1.4428,1.4179,1.4201,1.4325,1.4655,1.3839,1.2464,1.2856,1.1973,1.0624,0.0,0.0,0.0,0.0,0.0,2.0275,2.1583,2.1805,2.2234,0.0,0.0,0.0,2.945,3.106,3.1959,3.2359,3.119,3.0705,3.1471,3.1498,3.1511,3.1514,3.0571,2.9785,2.9227,2.8716,2.8088,2.746,2.6963,2.662,2.6521,2.7284,2.7604,2.7353,2.714,2.6537,2.5659,2.4576,2.4264,2.4356,2.2899,2.2598,2.283,2.1464,2.095,2.0854,2.0273,2.0284,2.0419,1.9783,1.9213,1.8729,1.8611,1.7994,1.7359,1.7073,1.6638,1.6178,1.5867,1.5741,1.5732,1.6017,0.0,0.0,1.5684,1.5888,1.6151,1.6436,1.7191,1.7747,1.7572,1.7876,1.7922,1.711,1.7289,1.7589,1.7827,1.8053,1.8204,1.8204,1.8204,1.8204,1.8204,1.8204,1.8204,1.8204,1.7689,1.7275,1.7036,1.6467,1.6098,1.6073,1.558,1.4971,1.4264,1.4042,1.3549,1.2881,1.2881,1.2881,1.2891,1.3135,1.3242,1.3242,1.3242,1.3379,1.3562,1.3247,1.3431,1.3895,1.4158,1.3358,1.2139,1.2574,1.1835,1.0624,0.0,0.0,1.9809,1.9809,1.9793,2.0578,2.2935,2.3194,2.325,0.0,2.4721,2.7035,3.1343,3.3356,3.4209,3.3833,3.2677,3.1924,3.1921,3.1921,3.1911,3.1812,3.1767,3.1306,3.0545,3.0013,2.9097,2.7961,2.7379,2.6921,2.6658,2.7484,2.7589,2.7136,2.7393,2.6864,2.5614,2.4898,2.4442,2.4103,2.2921,2.3012,2.3779,2.2368,2.1892,2.1916,2.1506,2.1493,2.1433,2.058,1.9476,1.8698,1.9561,1.9595,1.9166,1.8534,1.8041,1.7525,1.677,1.6406,1.6311,1.6898,1.6661,0.0,1.6135,1.5881,1.575,1.6275,1.6436,1.6549,1.6727,1.6926,1.6822,1.6279,1.6313,1.661,1.7212,1.7702,1.8016,1.8016,1.8016,1.8016,1.8016,1.8016,1.8016,1.8016,1.7564,1.7061,1.6405,1.5908,1.5543,1.5398,1.4365,1.3779,1.3684,1.3152,1.2881,1.2881,1.2881,1.2881,1.2881,1.2881,1.2881,1.2881,1.2881,1.2881,1.2871,1.2173,1.2466,1.3308,1.3372,1.2638,1.1626,1.2166,1.1636,1.0555,0.0,1.9803,1.9777,1.9777,1.9773,2.0879,2.4021,2.3688,2.369,2.5433,2.8854,3.1648,3.3115,3.5218,3.6136,3.5233,3.4855,3.4752,3.4744,3.4713,3.444,3.3728,3.3305,3.2712,3.1844,3.1714,3.0935,2.9525,2.8772,2.8012,2.7484,2.8363,2.868,2.8634,2.9393,2.9283,2.8479,2.7012,2.6104,2.5497,2.3717,2.3113,2.3228,2.2921,2.2611,2.2241,2.2592,2.2727,2.2727,2.2528,2.2178,2.1957,2.297,2.2554,2.1663,2.0948,2.0145,1.934,1.8603,1.7481,1.6621,1.6728,1.7213,0.0,1.6325,1.6576,1.6746,1.5818,1.6093,1.6297,1.5627,1.6001,1.6083,1.5175,1.5435,1.6001,1.6573,1.6785,1.6848,1.6848,1.6848,1.6848,1.6848,1.6848,1.6848,1.6848,1.6748,1.6405,1.582,1.5676,1.5129,1.4179,1.3909,1.3552,1.3055,1.2968,1.2881,1.2881,1.2881,1.2881,1.2881,1.2881,1.2881,1.2881,1.2881,1.2881,1.2881,1.2745,1.2461,1.2194,1.255,1.1846,1.0713,1.1978,1.1495,1.0268,1.9815,1.978,2.0147,2.1251,2.1462,2.2018,2.3701,2.3487,2.3437,2.4537,2.9475,3.3113,3.3621,3.626,3.7726,3.7107,3.6553,3.6342,3.6648,3.5921,3.5324,3.4972,3.4226,3.3568,3.2882,3.2819,3.2251,3.1075,3.0299,2.9343,2.8225,2.8757,2.8837,2.8547,2.9419,2.9492,2.8872,2.798,2.7047,2.5942,2.4249,2.3565,2.354,2.3178,2.2902,2.2799,2.3364,2.3567,2.3704,2.389,2.3848,2.3806,2.4033,2.4059,2.3761,2.2728,2.1974,2.1263,2.0362,1.9662,1.9083,1.8733,1.8997,0.0,0.0,1.7965,1.7673,1.6636,1.628,1.5873,1.4783,1.4975,1.5072,1.4356,1.4778,1.5377,1.5964,1.6293,1.6522,1.6522,1.6522,1.6522,1.6522,1.6522,1.6522,1.6522,1.6238,1.5908,1.5632,1.5039,1.4411,1.3815,1.3505,1.319,1.2881,1.2881,1.2881,1.2881,1.2881,1.2881,1.2881,1.2881,1.2881,1.2881,1.2881,1.2881,1.2871,1.2492,1.1923,1.1336,1.1917,1.1399,1.0384,1.1241,1.0948,1.0129,2.0445,2.0428,2.102,2.2769,2.3443,2.3739,2.3586,2.3455,2.3642,2.4107,2.9374,3.3366,3.4046,3.7086,3.915,3.9324,3.8059,3.7598,3.8366,3.6594,3.5613,3.5876,3.4987,3.4262,3.3863,3.3875,3.3472,3.2664,3.1792,3.058,2.8973,2.8957,2.8614,2.796,2.8768,2.8971,2.8756,2.8455,2.7631,2.6445,2.5097,2.4368,2.4092,2.3527,2.3364,2.3466,2.3991,2.414,2.431,2.4943,2.5031,2.4891,2.4883,2.5277,2.5567,2.4432,2.3628,2.2977,2.2019,2.1786,2.1618,2.1025,2.1073,2.0933,0.0,0.0,0.0,1.7504,1.6662,1.5652,1.4336,1.4172,1.4151,1.3683,1.4154,1.4698,1.5174,1.5776,1.6207,1.6293,1.6423,1.6466,1.6337,1.6423,1.6466,1.6337,1.5864,1.5499,1.5264,1.4318,1.3732,1.3637,1.3152,1.2881,1.2881,1.2881,1.2881,1.2881,1.2881,1.2881,1.2881,1.2881,1.2881,1.2881,1.2881,1.2881,1.2871,1.2241,1.1607,1.1008,1.1438,1.0935,1.0079,1.0478,1.0401,1.0059,2.2738,2.273,2.2821,2.3067,2.4748,2.5874,2.5231,2.4822,2.5422,2.7789,3.0975,3.3699,3.5406,3.8176,4.0484,4.1766,3.9748,3.9077,4.0614,3.7432,3.5817,3.6524,3.5799,3.5344,3.5291,3.5253,3.4902,3.4226,3.282,3.1354,2.9821,2.9279,2.8529,2.7735,2.8153,2.8979,3.0009,2.8778,2.8215,2.8025,2.6969,2.5833,2.4669,2.4104,2.4205,2.4644,2.4707,2.4476,2.4422,2.582,2.5884,2.5623,2.7586,2.7695,2.6929,2.6346,2.5215,2.4034,2.3392,2.2726,2.2094,2.2037,2.2243,2.2069,2.037,0.0,1.9587,1.7414,0.0,1.6221,1.4449,0.0,0.0,1.3096,1.3505,1.3909,1.4003,1.4514,1.5107,1.5632,1.6194,1.6281,1.5764,1.6194,1.6281,1.5732,1.5632,1.5129,1.4039,1.3862,1.3552,1.3017,1.2929,1.2881,1.2881,1.2881,1.2881,1.2881,1.2881,1.2881,1.2881,1.2881,1.2881,1.2881,1.2881,1.2881,1.2881,1.2813,1.2357,1.1621,1.1112,1.0113,0.9093,1.0001,1.0072,0.9775,2.3433,2.4536,2.5137,2.3412,2.4451,2.5623,2.5987,2.5897,2.6654,2.9025,3.2463,3.5294,3.6901,3.9644,4.1977,4.3484,4.1858,4.1063,4.1763,3.9544,3.7905,3.739,3.6986,3.6392,3.5501,3.5469,3.516,3.4472,3.3858,3.2582,3.0708,2.9959,2.8963,2.7863,2.7894,2.831,2.8984,2.9266,2.9365,2.9299,2.8795,2.818,2.7261,2.4987,2.4578,2.5156,2.5156,2.5278,2.5565,2.5887,2.6853,2.7844,2.7088,2.7062,2.7168,2.6697,2.6058,2.5462,2.4853,2.4737,2.455,2.3869,2.3818,2.3643,2.2654,2.1922,2.1119,1.9855,0.0,0.0,0.0,0.0,0.0,0.0,1.3104,1.3294,1.3267,1.3799,1.4422,1.5017,1.5287,1.5377,1.5096,1.5306,1.5351,1.5096,1.4744,1.4321,1.3815,1.3467,1.3152,1.2929,1.2881,1.2881,1.2881,1.2881,1.2881,1.2881,1.2881,1.2881,1.2881,1.2881,1.2881,1.2881,1.2881,1.2881,1.2881,1.2881,1.2483,1.1759,1.1475,1.0545,0.9408,0.9595,0.9679,0.9768,2.4737,2.5445,2.567,2.3501,2.3803,2.4835,2.6309,2.653,2.7223,2.9315,3.2823,3.6079,3.835,4.0845,4.3271,4.5602,4.4028,4.3081,4.3504,4.1605,3.9719,3.8202,3.802,3.7374,3.6168,3.5872,3.5544,3.509,3.4673,3.3558,3.1743,3.075,2.9545,2.8162,2.7866,2.7746,2.8007,2.9136,2.9659,2.9757,2.9456,2.9049,2.8394,2.5836,2.5074,2.5403,2.5645,2.6076,2.6483,2.6151,2.7531,2.8996,2.7088,2.6967,2.7431,2.703,2.6703,2.6433,2.595,2.6138,2.6264,2.5473,2.5046,2.472,2.4431,2.3238,2.2176,2.1981,2.0314,0.0,0.0,0.0,1.3701,1.3278,0.0,1.2888,1.2882,1.3297,1.3789,1.4376,1.4468,1.4457,1.4516,1.4665,1.4643,1.4481,1.39,1.3528,1.3542,1.2957,1.2686,1.2881,1.2881,1.2881,1.2881,1.2881,1.2881,1.2881,1.2881,1.2881,1.2881,1.2881,1.2881,1.2881,1.2881,1.2881,1.2881,1.2881,1.256,1.2106,1.1865,1.1282,1.0498,0.9851,0.9903,1.034,2.7469,2.5158,2.3207,2.3141,2.3152,2.3941,2.617,2.6478,2.711,2.8814,3.1703,3.5237,3.9628,4.1402,4.4097,4.8483,4.6194,4.5111,4.6549,4.3222,4.0508,3.9024,3.875,3.8397,3.7724,3.6909,3.6466,3.6523,3.5198,3.4031,3.3136,3.1801,3.0297,2.865,2.7974,2.7723,2.771,2.7789,2.8356,2.9256,2.8474,2.7535,2.6546,2.6496,2.6038,2.5465,2.6214,2.6508,2.6609,2.7055,2.762,2.8197,2.8674,2.8486,2.8072,2.8059,2.7293,2.6533,2.6508,2.6508,2.6521,2.6483,2.5611,2.482,2.4795,2.3329,2.2201,2.2892,2.1306,1.8951,1.6305,1.6042,1.5791,1.4283,1.3419,0.0,0.0,1.2898,1.3152,1.3779,1.3815,1.3914,1.412,1.4473,1.445,1.3871,1.3217,1.2846,1.291,1.2231,1.2164,1.2881,1.2881,1.2881,1.2881,1.2881,1.2881,1.2881,1.2881,1.2881,1.2881,1.2881,1.2881,1.2881,1.2881,1.2881,1.2881,1.2881,1.2881,1.2803,1.2106,1.2057,1.2286,1.1146,1.1223,1.1826,2.9829,2.9362,2.7736,2.4741,2.4823,2.5618,2.6407,2.7085,2.7881,2.89,3.216,3.4741,3.5661,4.0578,4.5739,5.0541,5.0083,4.8941,4.7597,4.5421,4.3098,4.0787,4.0614,3.9456,3.7204,3.6914,3.6305,3.5198,3.5153,3.4554,3.341,3.278,3.1775,3.0311,2.8972,2.8092,2.767,2.767,2.8383,2.9628,3.2023,3.0364,2.6514,2.6508,2.6327,2.6163,2.6389,2.6533,2.6559,2.6747,2.6864,2.7046,2.7235,2.767,2.7959,2.7231,2.7017,2.6917,2.6634,2.6533,2.6533,2.6533,2.5636,2.473,2.4489,2.3517,2.2774,2.3045,2.1749,2.0101,1.8701,1.796,1.7166,1.59,1.541,1.4853,0.0,1.3228,1.2968,1.32,1.319,1.3228,1.3283,1.3416,1.3426,1.3208,1.2541,1.2346,1.2889,1.2206,1.1926,1.2178,1.2666,1.2666,1.2187,1.2666,1.2881,1.2881,1.2881,1.2881,1.2881,1.2881,1.2881,1.2881,1.2881,1.2881,1.2881,1.2881,1.2881,1.2881,1.2618,1.2357,1.1893,1.0864,1.0889,1.1404,3.1172,3.1519,3.0572,2.7714,2.6775,2.692,2.8121,2.7824,2.8371,3.0767,3.5085,3.7925,3.7976,4.1899,4.6483,5.1279,5.2238,5.1441,4.9008,4.7827,4.5561,4.1723,4.2476,4.1262,3.7388,3.7095,3.6391,3.5228,3.5394,3.5055,3.4218,3.3829,3.3048,3.1838,3.0748,2.9443,2.8053,2.8264,2.8544,2.9107,3.1783,3.0323,2.6514,2.6508,2.6464,2.6499,2.6471,2.6527,2.6477,2.6502,2.6684,2.6856,2.6829,2.7243,2.767,2.6967,2.6866,2.6917,2.6553,2.6533,2.6533,2.6533,2.581,2.5129,2.4798,2.3912,2.3229,2.3817,2.24,2.0934,2.0447,1.948,1.8469,1.7424,1.6982,1.6198,0.0,1.3504,1.2881,1.2881,1.2881,1.2881,1.2881,1.2881,1.2881,1.2881,1.2017,1.1775,1.2475,1.1598,1.1208,1.1451,1.1909,1.194,1.1466,1.194,1.2255,1.2501,1.2501,1.2666,1.2881,1.2881,1.2881,1.2881,1.2881,1.2881,1.2881,1.2881,1.2881,1.2881,1.2881,1.2686,1.2307,1.1516,1.1676,1.2238,3.1516,3.1474,3.1486,3.1469,2.8888,2.7893,3.1199,2.9147,2.9198,3.4593,3.9904,4.3935,4.6034,4.5268,4.6414,5.0933,5.2691,5.2708,5.0745,5.0238,4.7625,4.2196,4.4366,4.3394,3.8481,3.7334,3.6773,3.66,3.5876,3.5534,3.5489,3.4831,3.4011,3.3157,3.3054,3.1397,2.8688,2.9174,2.8697,2.7683,2.7934,2.7413,2.6515,2.649,2.6482,2.6469,2.6507,2.6539,2.6482,2.6509,2.7006,2.7485,2.7339,2.7256,2.7268,2.7256,2.6892,2.6559,2.6533,2.6533,2.6533,2.6533,2.6245,2.5932,2.5818,2.4416,2.3647,2.5023,2.3404,2.1639,2.1356,2.0529,1.9654,1.8843,1.8005,1.6771,1.4903,1.3618,1.292,1.2881,1.2949,1.2959,1.2881,1.2881,1.2881,1.2881,1.1584,1.1072,1.1756,1.0514,1.01,1.0716,1.0804,1.0813,1.0813,1.0813,1.1166,1.1814,1.1765,1.2138,1.2832,1.2832,1.2881,1.2881,1.2881,1.2881,1.2881,1.2881,1.2881,1.2881,1.2881,1.3135,1.3461,1.3046,1.3408,1.4013,3.1489,3.1531,3.1474,3.1529,3.0763,3.1197,3.4047,3.6256,3.8448,4.0857,4.0982,4.2461,4.6593,4.6784,4.8311,5.2534,5.3278,5.3245,5.2793,5.0565,4.866,4.7123,4.5668,4.3081,3.9221,3.788,3.6985,3.6522,3.6355,3.5983,3.5504,3.4582,3.3767,3.3054,3.1681,3.0167,2.8499,2.8087,2.7487,2.6782,2.6875,2.6766,2.6527,2.6494,2.6469,2.6498,2.6528,2.6539,2.6482,2.6509,2.6634,2.6773,2.6747,2.6954,2.7205,2.6791,2.6866,2.6979,2.6647,2.6533,2.6533,2.6533,2.6554,2.6628,2.6614,2.5831,2.4925,2.3884,2.4353,2.4106,2.147,2.1133,2.0793,1.9168,1.7676,1.6276,1.5177,1.3826,1.2907,1.291,1.3422,1.3561,1.2969,1.2881,1.2881,1.2881,1.1584,1.1074,1.1769,1.0522,0.9858,1.0043,1.1023,1.1316,1.0813,1.1316,1.1616,1.1814,1.1316,1.1425,1.208,1.208,1.2393,1.2881,1.2881,1.2881,1.2881,1.2881,1.2881,1.2881,1.2881,1.3135,1.3508,1.3439,1.3186,1.2796,3.1499,3.2406,3.3223,3.3268,3.3235,3.3732,3.5301,3.7362,3.9707,4.2175,4.187,4.2847,4.639,4.7092,4.8945,5.3123,5.2914,5.2858,5.3426,5.1942,4.9809,4.7156,4.8017,4.6631,4.27,4.0785,3.9082,3.7542,3.6883,3.6371,3.5943,3.4633,3.384,3.3456,3.1983,3.0619,2.9236,2.7882,2.7105,2.6816,2.6816,2.671,0.0,2.7048,2.7508,2.7946,2.7952,2.7301,2.6481,2.651,2.6511,2.6469,2.6469,2.6884,2.7168,2.6697,2.6854,2.7155,2.6684,2.6533,2.6533,2.6533,2.6581,2.6894,2.7683,2.7193,2.624,2.4714,2.5163,2.523,2.3299,2.2299,2.1261,1.9598,1.8536,1.7496,1.64,1.5202,1.4169,1.3392,1.3695,1.3679,1.2959,1.3106,1.3145,1.2939,1.1882,1.1375,1.176,1.083,1.0115,0.9814,1.0669,1.0772,0.9917,1.041,1.0764,1.0914,1.0517,1.0864,1.1814,1.1814,1.2187,1.2881,1.2881,1.2881,1.2881,1.2881,1.2988,1.3145,1.3145,1.3272,1.3549,1.3721,1.3433,1.2947,3.202,3.3925,3.5507,3.5516,3.5514,3.5859,3.6911,3.6763,3.7842,4.1553,4.2895,4.4089,4.5513,4.657,4.8623,5.2385,5.2064,5.2187,5.3411,5.3511,5.0994,4.5411,5.0142,5.0961,4.6762,4.4221,4.1735,3.9305,3.771,3.6862,3.6846,3.5014,3.4066,3.393,3.2876,3.1537,2.9961,2.8196,2.748,2.748,2.748,2.7193,2.6801,2.7751,2.8823,2.9782,2.9799,2.8586,2.6899,2.6944,2.6929,2.6897,2.668,2.7005,2.7281,2.6728,2.6904,2.7155,2.6684,2.6533,2.6533,2.6533,2.6622,2.7099,2.8608,2.8525,2.7784,2.6539,2.5997,2.5625,2.5486,2.3533,2.1497,2.0256,1.9875,1.9359,1.808,1.7121,1.5957,1.4355,1.4148,0.0,1.3075,1.3382,1.3401,1.2959,1.2236,1.1814,1.1814,1.1166,1.0517,0.9814,1.0151,0.9921,0.9017,0.918,0.9491,0.9881,0.9732,1.032,1.1566,1.1616,1.2089,1.2774,1.2881,1.2881,1.2881,1.2881,1.3096,1.3449,1.3481,1.3527,1.365,1.4031,1.3877,1.3553,3.4587,3.5165,3.5468,3.5514,3.5481,3.7679,4.4272,4.3346,4.2712,4.4908,4.5072,4.4639,4.3826,4.5263,4.681,4.8292,5.1287,5.3211,5.3499,5.3501,5.1916,4.8404,4.9242,4.8579,4.6027,4.3944,4.2437,4.1548,3.946,3.8416,3.846,3.6115,3.4604,3.3786,3.2195,3.038,2.8477,2.833,2.8376,2.847,2.8307,2.8112,2.7868,2.8027,2.8786,2.9781,2.9795,2.953,2.9239,2.9206,2.9198,2.8984,2.7811,2.7688,2.7846,2.7306,2.7205,2.7155,2.6684,2.6533,2.6533,2.6533,2.7165,2.798,2.8464,2.9746,3.0162,2.7729,2.7219,2.6717,2.4984,2.3458,2.2179,2.1369,2.0388,1.9718,1.9365,1.8142,1.6951,1.6052,1.5831,1.5214,1.3757,1.327,1.3018,1.2891,1.2236,1.1814,1.1814,1.1166,1.0517,0.9814,1.0375,1.0517,1.0063,0.9804,0.9857,1.0225,0.9383,0.9361,1.0167,1.0712,1.1334,1.2008,1.2627,1.2881,1.2881,1.2881,1.293,1.3047,1.336,1.3723,1.4042,1.4505,1.3999,1.3108,3.6239,3.5978,3.5519,3.5497,3.7187,4.0302,4.5449,4.5395,4.4705,4.4633,4.4168,4.3683,4.3316,4.4409,4.5376,4.5938,4.9261,5.1635,5.2283,5.2556,5.1611,4.9111,4.9749,4.8916,4.6372,4.6901,4.5561,4.2187,4.0872,4.0007,3.9446,3.6964,3.5337,3.4427,3.1867,3.0236,2.9267,2.907,2.8638,2.8209,2.9209,2.8651,2.7369,2.8511,2.9303,2.9792,2.9792,2.9768,2.9758,2.9833,2.9817,2.9699,2.8935,2.8561,2.8262,2.7519,2.7494,2.7532,2.6691,2.6533,2.6533,2.6533,2.8226,2.9417,2.7824,2.8505,2.9122,2.7827,2.7586,2.6945,2.4864,2.4141,2.3378,2.1997,2.1329,2.0777,2.0395,1.9673,1.8702,1.7455,1.7221,1.6528,1.4836,1.4425,1.3869,1.2988,1.2559,1.2344,1.2344,1.2049,1.1584,1.0864,1.1319,1.1258,1.0572,1.0219,1.0068,1.0053,0.9176,0.9159,0.9814,1.0517,1.1174,1.1832,1.2569,1.3008,1.3242,1.3691,1.3603,1.3302,1.3939,1.4019,1.3891,1.4107,1.3399,1.2413,3.7382,3.7067,3.6573,3.6317,3.9817,4.3335,4.5395,4.6033,4.5748,4.4182,4.3299,4.297,4.3479,4.3883,4.4223,4.461,4.7074,4.9206,5.0505,5.1363,5.1071,4.9351,5.0236,4.9627,4.7323,4.9556,4.8379,4.3683,4.2653,4.1594,4.0527,3.823,3.6474,3.5096,3.2055,3.0559,3.0408,2.9957,2.931,2.8778,3.0323,2.9977,2.851,2.9417,2.9832,2.9807,2.9831,2.9792,2.9792,2.9792,2.977,2.9783,2.9783,2.9391,2.8762,2.777,2.7902,2.8134,2.7018,2.6799,2.6803,2.6566,2.8462,2.9827,2.7679,2.7398,2.7592,2.7594,2.7484,2.6806,2.5003,2.4822,2.4336,2.2553,2.224,2.2037,2.1466,2.0974,2.0179,1.8821,1.837,1.7516,1.6012,1.5643,1.4873,1.336,1.3243,1.3145,1.3018,1.3018,1.2693,1.195,1.2133,1.1817,1.1044,1.0455,1.0143,1.0023,0.932,0.9316,0.9814,1.0669,1.1316,1.1873,1.2654,1.3252,1.3691,1.4375,1.4248,1.3701,1.4468,1.4326,1.3613,1.3675,1.2923,1.1973,3.8087,3.935,4.0001,3.9163,4.3348,4.6821,4.7073,4.7114,4.6876,4.6112,4.493,4.4152,4.4212,4.3748,4.3658,4.4293,4.5525,4.6894,4.848,5.0278,5.0977,5.0355,4.9656,4.9086,4.8787,4.9084,4.8816,4.8119,4.5343,4.3337,4.2071,4.051,3.8125,3.5096,3.268,3.1178,3.0605,3.0501,3.11,3.2027,3.2086,3.3125,3.4304,3.1063,2.9764,2.9792,2.9782,2.9792,2.9792,2.9792,2.9779,2.9831,2.9831,2.9729,2.9478,2.836,2.86,2.9005,2.7919,2.7799,2.7736,2.676,2.6707,2.7412,2.8928,2.8412,2.7621,2.7594,2.7063,2.6322,2.548,2.4924,2.4288,2.3193,2.3,2.2962,2.2879,2.1652,2.0627,2.0473,1.9133,1.7931,1.7207,1.6183,1.528,1.4514,1.4338,1.4012,1.3498,1.3447,1.3132,1.2452,1.2058,1.1834,1.1787,1.0508,1.0143,1.0801,1.0045,0.9762,0.9865,1.1116,1.1765,1.1882,1.295,1.3691,1.4029,1.4107,1.4097,1.4092,1.459,1.4306,1.3622,1.4043,1.329,1.2157,4.0516,4.0995,4.143,4.2411,4.4208,4.5879,4.7129,4.6921,4.6436,4.5783,4.5229,4.4751,4.4362,4.3718,4.3449,4.3703,4.5047,4.6077,4.6422,4.8432,4.966,4.9588,4.9203,4.9001,4.9001,4.8999,4.9796,5.1405,4.6252,4.4509,4.5831,4.1903,3.8761,3.6197,3.4654,3.3298,3.2108,3.1013,3.131,3.262,3.374,3.4758,3.5302,3.3803,3.1796,2.9802,2.977,2.9792,2.9792,2.9792,2.9792,2.9792,2.9792,2.9312,2.8749,2.8497,2.8615,2.8887,2.8959,2.9026,2.9149,2.9414,2.9114,2.8669,2.8469,2.8388,2.8213,2.7703,2.6872,2.5969,2.4937,2.4657,2.4292,2.3234,2.3127,2.3122,2.309,2.2159,2.1425,2.1192,2.0288,1.9359,1.8388,1.7636,1.6881,1.6256,1.4882,1.3772,1.3175,1.3369,1.3287,1.2776,1.302,1.3062,1.2883,1.1887,1.1682,1.2236,1.0959,1.0689,1.1212,1.1887,1.2586,1.319,1.3642,1.3922,1.4097,1.3857,1.4071,1.4486,1.4447,1.3978,1.3287,1.3434,1.2609,1.1449,4.2686,4.2716,4.318,4.5108,4.5311,4.5603,4.683,4.6621,4.6007,4.5125,4.5005,4.4751,4.4092,4.3614,4.3329,4.3329,4.4415,4.5156,4.5226,4.6381,4.7615,4.8962,4.9009,4.9001,4.9001,4.9004,4.9983,5.1988,4.5632,4.4125,4.7121,4.233,3.9155,3.7409,3.6121,3.4925,3.3819,3.2548,3.2563,3.3512,3.494,3.5502,3.551,3.5499,3.3167,2.9818,2.9783,2.982,2.9792,2.9792,2.9792,2.9792,2.9792,2.9263,2.86,2.867,2.8544,2.8488,2.9146,2.9767,3.0458,3.1277,3.0758,2.958,2.7967,2.7864,2.7859,2.7099,2.6197,2.5287,2.4439,2.4204,2.3953,2.3213,2.3111,2.3073,2.3094,2.2657,2.2096,2.1381,2.0815,2.0112,1.9334,1.8618,1.8016,1.7555,1.5654,1.4289,1.3821,1.3696,1.3613,1.3447,1.3896,1.4053,1.3887,1.306,1.2869,1.3314,1.2079,1.1788,1.2419,1.2806,1.344,1.4272,1.4045,1.4003,1.408,1.3624,1.378,1.4231,1.3983,1.3348,1.2643,1.268,1.2014,1.1099,4.4032,4.4811,4.5678,4.704,4.7279,4.7055,4.6426,4.6337,4.5843,4.4511,4.4332,4.4077,4.3419,4.3329,4.3329,4.3329,4.3344,4.3847,4.5135,4.4059,4.5048,4.8829,4.9009,4.9001,4.9001,4.899,4.902,4.9072,4.3064,4.1684,4.46,4.1523,3.9539,3.8476,3.6456,3.5492,3.5477,3.5472,3.5481,3.5477,3.5487,3.5504,3.5499,3.5495,3.31,2.9771,2.9805,2.9833,2.9792,2.9792,2.9792,2.9792,2.9792,2.9796,2.9629,2.8905,2.8421,2.8101,2.8146,2.9785,3.1482,3.1482,3.0543,2.9274,2.7919,2.6866,2.602,2.5536,2.4851,2.435,2.4292,2.3649,2.3085,2.3109,2.3103,2.3072,2.3109,2.3116,2.2515,2.1076,2.0241,1.9811,1.9798,1.8832,1.8164,1.8121,1.6903,1.606,1.5891,1.4767,1.4326,1.4746,1.4355,1.4336,1.4766,1.3672,1.3341,1.3789,1.3323,1.3077,1.3086,1.38,1.4365,1.4775,1.3968,1.3843,1.4136,1.3364,1.3003,1.3032,1.3032,1.2534,1.1806,1.1821,1.1647,1.1377,4.6097,4.6516,4.68,4.7234,4.6935,4.6576,4.6352,4.5544,4.4796,4.4377,4.3928,4.3569,4.3359,4.3329,4.3329,4.3329,4.3329,4.3491,4.3868,4.3538,4.5001,4.8811,4.8974,4.9001,4.9016,4.8991,4.9026,4.8976,4.7129,4.4558,4.1502,4.057,3.9927,3.9502,3.6706,3.5522,3.5495,3.5479,3.5529,3.5517,3.5499,3.5504,3.5484,3.5495,3.4723,3.331,3.0752,2.9766,2.9795,2.9833,2.9792,2.9792,2.9792,2.9126,2.8149,2.7451,2.7613,2.796,2.7209,2.8069,2.9247,2.9707,2.9116,2.8141,2.6671,2.5951,2.5453,2.4794,2.4452,2.4118,2.3603,2.3245,2.31,2.3119,2.3122,2.31,2.3106,2.2464,2.2138,2.2369,2.1299,2.0665,2.0941,2.03,1.9897,1.985,1.7943,1.6332,1.5468,1.4898,1.4502,1.4346,1.4775,1.4932,1.4785,1.4417,1.4449,1.4907,1.4143,1.3952,1.4304,1.476,1.5078,1.5138,1.4089,1.3852,1.4067,1.237,1.2234,1.2937,1.2428,1.2035,1.1813,1.1781,1.1643,1.1414,4.7145,4.7309,4.7219,4.6834,4.6561,4.6157,4.5648,4.4855,4.4227,4.3988,4.3584,4.3329,4.3329,4.3329,4.3329,4.3329,4.3329,4.3289,4.3301,4.2423,4.2906,4.5314,4.6618,4.7858,4.8973,4.9018,4.9006,4.9027,4.7911,4.4845,4.0126,4.1247,4.1188,4.0055,3.8067,3.6597,3.5522,3.5495,3.5529,3.5504,3.5504,3.5504,3.5469,3.5503,3.551,3.519,3.2798,3.1016,2.9815,2.9782,2.9792,2.9754,2.9528,2.8712,2.7665,2.7086,2.7208,2.7335,2.6704,2.7473,2.8373,2.8109,2.8075,2.7626,2.6096,2.5517,2.506,2.4341,2.3981,2.3708,2.3198,2.3078,2.3078,2.3078,2.3078,2.3078,2.3078,2.2546,2.2176,2.2455,2.202,2.1719,2.1693,2.1259,2.0978,2.0978,1.9132,1.7653,1.6888,1.555,1.4736,1.4619,1.5137,1.5283,1.5029,1.5019,1.4974,1.4923,1.4109,1.4007,1.4554,1.4819,1.5108,1.5342,1.3952,1.3517,1.3588,1.1669,1.138,1.2081,1.1681,1.1493,1.1483,1.1625,1.1612,1.1614,4.7279,4.7294,4.707,4.6267,4.6162,4.5828,4.4571,4.4302,4.4032,4.3419,4.3329,4.3329,4.3329,4.3329,4.3329,4.3329,4.319,4.3199,4.327,4.0831,3.9427,3.9399,4.2544,4.5716,4.8952,4.8984,4.8984,4.9029,4.6035,4.3172,4.0495,4.3299,4.3078,4.0426,4.0442,3.8852,3.609,3.5704,3.5495,3.5509,3.5489,3.5504,3.5504,3.5504,3.551,3.5483,3.5493,3.3032,2.9776,2.977,2.9792,2.9691,2.9114,2.8549,2.7999,2.7665,2.7039,2.6533,2.6533,2.7637,2.8452,2.688,2.7243,2.755,2.6166,2.5489,2.4853,2.4116,2.3565,2.3128,2.3078,2.3078,2.3078,2.3078,2.3078,2.3078,2.3078,2.3078,2.2755,2.174,2.248,2.2853,2.214,2.1794,2.1594,2.1543,2.0397,1.9626,1.9535,1.6605,1.5123,1.5459,1.541,1.541,1.541,1.5439,1.5048,1.4285,1.3441,1.3441,1.4174,1.4139,1.4616,1.5274,1.3623,1.2948,1.2887,1.1262,1.0658,1.0665,1.0903,1.1051,1.1092,1.1313,1.1604,1.1868,4.7307,4.7347,4.7249,4.707,4.6202,4.5424,4.511,4.4212,4.3509,4.3359,4.3329,4.3329,4.3329,4.3329,4.3329,4.3329,4.2455,4.2267,4.3275,4.0816,3.9439,3.9405,4.0179,4.3233,4.8908,4.8979,4.8989,4.9001,4.6055,4.4243,4.3546,4.4263,4.4245,4.3512,4.3524,4.3132,4.2121,3.7461,3.5492,3.5474,3.5533,3.5504,3.5504,3.5504,3.5514,3.551,3.5517,3.304,2.9777,2.9809,2.9792,2.9691,2.9114,2.8549,2.7911,2.6999,2.6631,2.6533,2.6533,2.679,2.7007,2.6569,2.634,2.6063,2.5739,2.5242,2.4684,2.4142,2.3891,2.3665,2.3153,2.3078,2.3078,2.3078,2.3078,2.3078,2.3078,2.3078,2.3002,2.2767,2.2949,2.3022,2.2871,2.2761,2.2573,2.2146,2.0958,1.9781,1.8817,1.7084,1.6151,1.6255,1.569,1.541,1.541,1.5742,1.5628,1.5043,1.4148,1.3769,1.3947,1.3727,1.4037,1.4769,1.2862,1.2451,1.2903,1.1489,1.0929,1.0936,1.1169,1.1296,1.129,1.1383,1.1613,1.192,4.5436,4.6441,4.7021,4.6252,4.5878,4.5663,4.5349,4.4436,4.3778,4.3778,4.3524,4.3329,4.3329,4.3329,4.321,4.291,4.1974,4.1454,4.1535,4.0204,3.9385,3.9395,3.939,4.2386,4.8845,4.9005,4.8999,4.8983,4.6055,4.3872,4.2546,4.3946,4.4622,4.461,4.4618,4.385,4.2339,3.9006,3.6799,3.5477,3.5473,3.5504,3.5504,3.5504,3.5504,3.5448,3.4848,3.2901,3.0565,3.0012,2.9792,2.9741,2.9415,2.8762,2.8021,2.7379,2.6851,2.6533,2.6533,2.6533,2.6533,2.6533,2.6226,2.5988,2.5988,2.5573,2.5096,2.4782,2.4343,2.3904,2.359,2.3314,2.3078,2.3078,2.3078,2.3078,2.3078,2.3078,2.3078,2.3078,2.3078,2.3251,2.354,2.3301,2.3065,2.3088,2.1959,2.0779,1.9715,1.8411,1.7143,1.6046,1.5831,1.5615,1.541,1.5037,1.4619,1.4082,1.3161,1.296,1.3361,1.3173,1.3534,1.4234,1.2819,1.2493,1.2765,1.1647,1.1195,1.1184,1.1516,1.16,1.1655,1.1787,1.1905,1.21,4.3847,4.5639,4.6656,4.5302,4.5774,4.6127,4.5544,4.4811,4.4317,4.4317,4.3748,4.3329,4.3329,4.324,4.297,4.2402,4.1724,4.0749,3.965,3.9609,3.9654,3.9698,3.9917,4.2857,4.8902,4.8986,4.8999,4.8983,4.6058,4.3036,4.0166,4.2715,4.4164,4.4613,4.4623,4.3177,4.0743,4.03,3.834,3.5493,3.548,3.5494,3.5504,3.5504,3.5504,3.5338,3.407,3.286,3.1636,3.0279,2.9792,2.9779,2.9691,2.895,2.8109,2.8109,2.7318,2.6533,2.6533,2.6533,2.6533,2.6533,2.6533,2.6533,2.6533,2.6076,2.5699,2.5611,2.487,2.4192,2.4029,2.359,2.3238,2.309,2.3078,2.3078,2.3078,2.3078,2.309,2.308,2.319,2.3441,2.3866,2.3554,2.3528,2.3879,2.2882,2.1881,2.1007,1.9655,1.7905,1.5694,1.5967,1.5945,1.5456,1.4238,1.3304,1.2862,1.1971,1.1902,1.2658,1.2606,1.3051,1.3707,1.2863,1.2586,1.2654,1.1813,1.1507,1.1506,1.1868,1.1932,1.197,1.2218,1.2305,1.2305,4.6214,4.644,4.6326,4.686,4.6606,4.6292,4.6172,4.511,4.4317,4.4317,4.3748,4.3329,4.3329,4.2851,4.2476,4.2372,4.1294,4.0517,4.0516,4.0487,4.0709,4.1098,4.21,4.4665,4.8935,4.8986,4.8999,4.8983,4.6058,4.3036,4.0117,4.0554,4.2182,4.4607,4.461,4.4353,4.3714,4.1159,3.8311,3.549,3.5477,3.5531,3.5504,3.5504,3.5504,3.5338,3.407,3.3141,3.2195,3.0406,2.9792,2.9704,2.9214,2.8624,2.8109,2.8109,2.7318,2.6533,2.6533,2.6533,2.6533,2.6533,2.6533,2.6533,2.6533,2.6458,2.6189,2.5699,2.546,2.5071,2.4167,2.3916,2.3703,2.3153,2.3078,2.3078,2.3078,2.3078,2.3117,2.3096,2.3654,2.364,2.2721,2.3802,2.4248,2.3502,2.2531,2.1623,2.0871,1.9062,1.7554,1.6533,1.6592,1.6357,1.5824,1.4824,1.4085,1.3524,1.2594,1.2237,1.2376,1.2124,1.2424,1.317,1.2081,1.2037,1.2668,1.2047,1.1817,1.1864,1.2118,1.2245,1.2224,1.2298,1.2305,1.2305,4.5544,4.5597,4.5484,4.6112,4.6277,4.6441,4.68,4.5708,4.484,4.484,4.3958,4.3329,4.3329,4.2746,4.2207,4.1863,4.128,4.0801,4.0576,4.0621,4.104,4.1716,4.374,4.615,4.8925,4.8971,4.8999,4.8983,4.6058,4.3883,4.2471,4.0838,4.0842,4.221,4.2173,4.2176,4.2095,4.071,3.8801,3.6641,3.586,3.5473,3.5504,3.5504,3.5504,3.5309,3.3648,3.2874,3.2321,3.0419,2.9792,2.9741,2.9478,2.9001,2.8549,2.8549,2.777,2.6841,2.6609,2.6533,2.6596,2.6829,2.6904,2.6904,2.6904,2.6904,2.6741,2.6176,2.5812,2.5448,2.4946,2.4381,2.4004,2.4042,2.3466,2.3278,2.3966,2.3791,2.3554,2.361,2.3956,2.3831,2.2969,2.2922,2.2948,2.296,2.2329,2.1572,2.0742,1.9584,1.8678,1.8127,1.742,1.659,1.5519,1.506,1.4337,1.3215,1.2621,1.2385,1.2538,1.2465,1.2526,1.2676,1.227,1.226,1.2473,1.2188,1.2104,1.2118,1.2251,1.2305,1.2305,1.2305,1.2305,1.2305,4.4773,4.4809,4.4743,4.52,4.5738,4.6262,4.6756,4.5828,4.5065,4.5065,4.4062,4.3329,4.3329,4.2746,4.2147,4.1654,4.1609,4.1384,4.0891,4.116,4.1504,4.207,4.4865,4.7191,4.894,4.9001,4.9033,4.8992,4.6043,4.4596,4.4529,4.2239,4.1522,4.216,4.1483,4.1178,4.1116,4.072,3.9521,3.7836,3.6379,3.5679,3.5504,3.5504,3.5504,3.5279,3.3547,3.282,3.2321,3.0696,3.0011,2.9792,2.9792,2.9402,2.895,2.9089,2.8436,2.7544,2.6992,2.6753,2.6779,2.7331,2.7469,2.7469,2.7469,2.7469,2.7356,2.6929,2.649,2.6101,2.585,2.5121,2.4632,2.4795,2.4092,2.3828,2.4707,2.4456,2.4248,2.4554,2.4536,2.4202,2.3463,2.2324,2.1878,2.2468,2.2099,2.1505,2.0845,2.0139,1.9614,1.9331,1.8232,1.7067,1.5817,1.5455,1.4609,1.3174,1.2627,1.2567,1.281,1.2732,1.2685,1.277,1.2688,1.2675,1.2633,1.2385,1.2305,1.2311,1.2405,1.2385,1.2318,1.2465,1.2425,1.2318,4.5718,4.5079,4.4526,4.5185,4.5334,4.5394,4.5439,4.484,4.4392,4.4392,4.3778,4.3329,4.3329,4.2746,4.2419,4.2374,4.2374,4.2344,4.2299,4.2791,4.2895,4.2372,4.5368,4.7683,4.894,4.9001,4.8978,4.9035,4.6022,4.459,4.4613,4.4387,4.5756,4.8217,4.5469,4.4245,4.4177,4.2532,4.0531,3.8348,3.7142,3.6201,3.5504,3.5504,3.5504,3.5359,3.4245,3.331,3.2464,3.1462,3.0482,2.9792,2.9792,2.9402,2.9038,2.9566,2.9289,2.8687,2.8134,2.7607,2.7356,2.7908,2.8047,2.8047,2.8047,2.8047,2.8034,2.7996,2.7946,2.7607,2.659,2.6395,2.5963,2.4983,2.4757,2.4732,2.4808,2.4795,2.5094,2.6195,2.5734,2.486,2.3663,2.2896,2.2339,2.206,2.1668,2.1381,2.1334,2.0082,1.9306,1.9291,1.8805,1.8249,1.7685,1.6295,1.5119,1.4283,1.3258,1.275,1.2762,1.2506,1.2982,1.4009,1.2832,1.2822,1.3564,1.264,1.2305,1.2338,1.2636,1.2556,1.2371,1.2933,1.2786,1.2358,4.4952,4.4227,4.3913,4.4571,4.4691,4.4825,4.5229,4.4736,4.4347,4.4533,4.3793,4.3329,4.3329,4.3112,4.2919,4.2919,4.2929,4.2791,4.2387,4.3359,4.397,4.4096,4.5253,4.6879,4.8955,4.9012,4.8978,4.8991,4.7902,4.7361,4.7325,4.7325,4.7926,4.8976,4.782,4.6289,4.44,4.1819,3.9891,3.8344,3.6674,3.5774,3.5504,3.5504,3.5504,3.5359,3.4394,3.3739,3.3241,3.1669,3.097,3.0558,2.9998,2.9641,2.9503,2.9729,2.939,2.8963,2.9114,2.8486,2.7921,2.8473,2.8612,2.8612,2.8612,2.8612,2.8511,2.8185,2.8109,2.7971,2.7557,2.7205,2.6942,2.6866,2.6289,2.6076,2.6766,2.6565,2.6532,2.6919,2.7274,2.661,2.4396,2.4159,2.3313,2.1273,2.0976,2.0901,2.0913,2.0397,1.9984,1.9678,1.9474,1.892,1.7876,1.7543,1.675,1.5531,1.5156,1.4986,1.4886,1.4774,1.4888,1.5138,1.3947,1.3717,1.3888,1.2762,1.2412,1.2599,1.2742,1.2713,1.2622,1.3081,1.2986,1.2616,4.4511,4.3823,4.3479,4.3928,4.4003,4.4152,4.4601,4.4302,4.4047,4.4233,4.3673,4.3329,4.3329,4.3307,4.3449,4.3705,4.3753,4.3519,4.3015,4.3434,4.4251,4.5362,4.5469,4.6731,4.9423,4.9436,4.952,4.9712,4.9712,4.9705,4.9674,4.9205,4.9197,4.9462,4.8805,4.7293,4.5093,4.2223,4.021,3.8832,3.7033,3.6004,3.5504,3.5504,3.5504,3.5424,3.4691,3.4245,3.3739,3.2177,3.1462,3.1044,3.0075,2.9792,2.9792,2.9792,2.9515,2.9289,2.9691,2.9227,2.8725,2.9101,2.9202,2.9202,2.9202,2.9202,2.9089,2.8712,2.8637,2.8574,2.8398,2.8059,2.7871,2.8072,2.7469,2.7243,2.7996,2.777,2.758,2.7766,2.8299,2.7806,2.5605,2.561,2.4486,2.1749,2.1371,2.1105,2.0664,2.0566,2.045,2.0139,2.0139,1.9646,1.8734,1.8533,1.7907,1.6936,1.6673,1.6538,1.6436,1.6283,1.6388,1.6478,1.4989,1.4562,1.4668,1.3085,1.2609,1.2902,1.2915,1.291,1.2965,1.3373,1.322,1.2782,4.4809,4.3978,4.3344,4.3344,4.3329,4.3329,4.3329,4.3329,4.3329,4.3329,4.3329,4.3329,4.3329,4.3329,4.3658,4.4644,4.4713,4.4601,4.4347,4.309,4.3577,4.6071,4.6173,4.7564,5.0418,5.0515,5.0723,5.1217,5.1217,5.1217,5.12,4.9691,4.9535,5.043,4.8399,4.7267,4.6676,4.4185,4.1917,3.9886,3.8591,3.703,3.5519,3.5504,3.5504,3.5504,3.5504,3.4839,3.3876,3.2961,3.196,3.1044,3.0075,2.9792,2.9792,2.9792,2.9792,2.9792,2.9792,2.9792,2.9792,2.9792,2.9792,2.9792,2.9792,2.9792,2.9792,2.9792,2.9792,2.9616,2.9038,2.8938,2.875,2.821,2.8122,2.8122,2.8122,2.8122,2.8323,2.8875,2.882,2.8419,2.7615,2.7053,2.5824,2.3705,2.316,2.2242,2.0664,2.0644,2.0644,2.0566,2.0576,2.0576,2.0566,1.9118,1.8342,1.8524,1.7458,1.6966,1.6882,1.6588,1.7076,1.8173,1.5804,1.532,1.6047,1.3719,1.2975,1.3211,1.32,1.3213,1.3287,1.3868,1.352,1.2876,4.3945,4.3493,4.3293,4.3293,4.3289,4.3329,4.3329,4.3329,4.3329,4.3329,4.3334,4.3299,4.328,4.3254,4.3707,4.4659,4.5289,4.5432,4.502,4.3778,4.3976,4.6103,4.5779,4.6468,4.8646,5.0206,5.1622,5.2787,5.2114,5.2123,5.2745,5.0935,5.0232,5.0464,4.9137,4.7919,4.6676,4.4185,4.2222,4.0495,3.8126,3.6865,3.6334,3.5714,3.5504,3.5504,3.5504,3.5294,3.4905,3.3891,3.2961,3.1888,3.0279,2.9792,2.9792,2.9792,2.9792,2.9792,2.9792,2.9792,2.9792,2.9792,2.9792,2.9792,2.9792,2.9792,2.9792,2.9792,2.9792,2.9741,2.9566,2.9528,2.9478,2.9315,2.9289,2.9289,2.9289,2.9289,2.9352,2.9515,2.9462,2.9341,2.9175,2.802,2.6464,2.4335,2.2982,2.198,2.1534,2.1504,2.1386,2.1063,2.1313,2.124,2.0576,2.0139,1.9783,1.9507,1.9514,1.9313,1.9004,1.8929,1.8637,1.8185,1.6505,1.563,1.5348,1.3722,1.3227,1.3506,1.3453,1.3514,1.3534,1.3707,1.3473,1.3061,4.5034,4.4348,4.3745,4.336,4.3269,4.3329,4.3329,4.3329,4.3295,4.3319,4.3737,4.3856,4.3379,4.3968,4.469,4.5191,4.55,4.5635,4.5304,4.4448,4.4555,4.6103,4.6189,4.6996,4.8703,5.0376,5.2002,5.3509,5.2873,5.308,5.3905,5.176,5.079,5.0706,4.9221,4.7986,4.6938,4.4628,4.2765,4.118,3.88,3.7192,3.6231,3.5729,3.5504,3.5504,3.5504,3.5504,3.5389,3.4777,3.348,3.1815,3.0696,3.0075,2.9792,2.9792,2.9792,2.9792,2.9792,2.9792,2.9792,2.9792,2.9792,2.9792,2.9792,2.9792,2.9792,2.9792,2.9792,2.9792,2.9792,2.9792,2.9792,2.9792,2.9792,2.9792,2.9792,2.9792,2.9792,2.9792,2.9792,2.9802,2.9791,2.8566,2.6823,2.4587,2.2968,2.2045,2.1935,2.1905,2.1794,2.1481,2.1719,2.1627,2.1149,2.1115,2.0827,2.0176,2.0439,2.043,2.0176,2.0176,1.9851,1.913,1.7389,1.6403,1.5867,1.4051,1.3554,1.3808,1.3687,1.3714,1.3808,1.3687,1.3446,1.3147,4.7281,4.5912,4.4421,4.3604,4.3314,4.3329,4.3329,4.3329,4.3369,4.3441,4.4608,4.4965,4.3575,4.5166,4.6282,4.5936,4.5582,4.5379,4.5364,4.5015,4.5184,4.615,4.7088,4.833,5.0101,5.0892,5.1999,5.348,5.3553,5.3994,5.4678,5.2311,5.1217,5.1133,4.8984,4.781,4.7361,4.5352,4.3608,4.2042,4.0181,3.7973,3.5785,3.5618,3.5564,3.5624,3.5534,3.5504,3.5499,3.5383,3.355,3.1315,3.1254,3.0558,2.9792,2.9792,2.9792,2.9804,2.9854,2.9829,2.9804,2.9854,2.9867,2.9854,2.9804,2.9792,2.9792,2.9792,2.9792,2.9792,2.9792,2.9792,2.9792,2.9792,2.9792,2.9792,2.9792,2.9792,2.9792,2.9792,2.9792,2.9792,2.9792,2.8688,2.6921,2.4293,2.3146,2.2349,2.2011,2.2001,2.1983,2.1936,2.2016,2.1947,2.1938,2.1917,2.1527,2.0732,2.0673,2.0654,2.0654,2.0644,2.0566,2.0323,1.8301,1.7334,1.6985,1.4828,1.4007,1.4062,1.3864,1.3931,1.4048,1.3754,1.3447,1.314,4.7317,4.5903,4.4661,4.4459,4.3781,4.3329,4.3329,4.3329,4.3584,4.4272,4.5822,4.6273,4.4578,4.6333,4.7065,4.5575,4.5828,4.6067,4.5878,4.5145,4.512,4.6151,4.6835,4.8214,5.0367,5.1518,5.2566,5.3505,5.4113,5.4774,5.5402,5.2529,5.1217,5.115,4.9509,4.8284,4.7429,4.6631,4.5382,4.3766,4.064,3.9046,3.8316,3.6289,3.6129,3.6848,3.5854,3.5504,3.5374,3.4593,3.3409,3.2177,3.1462,3.0558,2.9792,2.9792,2.9792,2.988,3.0319,3.0118,2.9892,3.0331,3.0432,3.0331,2.9892,2.9792,2.9792,2.9792,2.9792,2.9792,2.9792,2.9792,2.9792,2.9792,2.9792,2.9792,2.9792,2.9792,2.9792,2.9792,2.9792,2.9792,2.9792,2.8039,2.5837,2.3507,2.3144,2.2921,2.2814,2.2814,2.2708,2.2376,2.2663,2.2552,2.1909,2.2201,2.2116,2.165,2.1282,2.1073,2.1073,2.0751,2.0157,1.9362,1.8877,1.7658,1.6101,1.6359,1.5569,1.4159,1.4982,1.4754,1.4048,1.3754,1.3454,1.3108,4.7287,4.6247,4.5347,4.5347,4.4489,4.3808,4.3808,4.3868,4.4107,4.4661,4.5875,4.6349,4.5616,4.7123,4.7887,4.7291,4.66,4.6094,4.6043,4.5353,4.5352,4.6158,4.7391,4.858,4.9784,5.1157,5.2562,5.3991,5.4406,5.4982,5.5631,5.335,5.189,5.115,4.9661,4.869,4.8099,4.6471,4.5305,4.4318,4.0801,3.8654,3.756,3.7434,3.7005,3.6432,3.5763,3.5474,3.5406,3.4883,3.4041,3.3171,3.2678,3.1609,3.0482,3.0482,3.033,3.0244,3.0532,3.0583,3.062,3.0909,3.0984,3.0846,3.0306,3.0181,3.0181,3.0181,2.998,2.9792,2.9792,2.9792,2.9792,2.9792,2.9792,2.9792,2.9792,2.9792,2.9792,2.9792,2.9792,2.9624,2.9028,2.7464,2.5801,2.4032,2.3388,2.3135,2.3135,2.3135,2.3008,2.281,2.2998,2.2871,2.2473,2.2663,2.2663,2.2463,2.1597,2.1164,2.1194,2.0762,2.0323,1.9756,1.9243,1.8312,1.7274,1.6746,1.5906,1.4871,1.4949,1.4573,1.4048,1.3754,1.3618,1.3632,4.7292,4.6631,4.6058,4.5938,4.5072,4.4451,4.4332,4.4563,4.4706,4.4795,4.5492,4.6076,4.6328,4.735,4.8456,4.9539,4.7575,4.6209,4.6199,4.5865,4.569,4.573,4.7802,4.9227,4.9772,5.0719,5.2152,5.4005,5.4563,5.5259,5.609,5.4325,5.2846,5.1524,4.9791,4.8995,4.8855,4.6413,4.5053,4.4285,4.0825,3.7961,3.604,3.7985,3.7676,3.6179,3.6153,3.6014,3.5733,3.5693,3.4927,3.4027,3.4027,3.2749,3.1193,3.1299,3.0958,3.0658,3.0834,3.1135,3.1411,3.1499,3.1537,3.1424,3.0984,3.0821,3.0721,3.0633,3.0319,3.0018,2.9829,2.9942,3.003,2.9942,2.993,2.993,2.993,2.9854,2.9792,2.9792,2.9792,2.9365,2.8176,2.7128,2.6107,2.5131,2.3874,2.3222,2.3387,2.3222,2.3135,2.3135,2.3135,2.3135,2.3135,2.3135,2.3135,2.3125,2.1928,2.1445,2.1438,2.0967,2.0752,2.0664,1.975,1.9141,1.8626,1.7114,1.6087,1.5353,1.483,1.4559,1.4364,1.4227,1.4302,1.4494,4.7115,4.6741,4.6112,4.5514,4.5274,4.4975,4.4407,4.4564,4.481,4.5132,4.568,4.5925,4.5835,4.6486,4.8038,5.0839,4.8655,4.7108,4.7138,4.7048,4.6047,4.3756,4.7071,5.0191,5.281,5.1787,5.1371,5.1643,5.4276,5.6288,5.7618,5.4811,5.3402,5.3073,5.0249,4.899,4.8957,4.855,4.6928,4.4286,4.0812,3.8505,3.7052,3.631,3.7183,3.8892,3.8903,3.788,3.6603,3.6402,3.5295,3.4027,3.4027,3.2749,3.1272,3.1774,3.1267,3.0821,3.1738,3.17,3.1499,3.1989,3.2102,3.2077,3.2014,3.1625,3.116,3.0708,3.0909,3.0896,2.9967,3.0545,3.1022,3.0583,3.0507,3.0507,3.0507,3.0093,2.9792,2.9792,2.9792,2.9365,2.8176,2.7128,2.6423,2.6302,2.4337,2.3551,2.4542,2.3637,2.3135,2.3135,2.3135,2.3135,2.3135,2.3135,2.3135,2.3125,2.2577,2.2357,2.2337,2.1942,2.1504,2.1143,2.0944,1.9648,1.7624,1.9292,1.7738,1.4455,1.6157,1.632,1.5524,1.6182,1.6199,1.5878,4.5574,4.5693,4.5648,4.5349,4.499,4.4766,4.4855,4.4624,4.4669,4.5229,4.5162,4.5449,4.6426,4.7199,4.8691,5.1211,4.8909,4.7835,4.898,5.0091,4.8562,4.3542,4.6971,4.9593,5.0984,5.1959,5.2506,5.2467,5.463,5.6478,5.7955,5.6624,5.5121,5.3408,5.2124,5.0612,4.9006,4.9001,4.7289,4.4479,4.2892,4.0769,3.8467,3.7895,3.7925,3.8332,3.8572,3.7871,3.6768,3.6582,3.5986,3.531,3.4957,3.4134,3.3232,3.2921,3.2352,3.1896,3.2155,3.2265,3.239,3.2629,3.2692,3.2692,3.2692,3.2503,3.2177,3.1625,3.1449,3.1248,3.0771,3.1072,3.1311,3.1085,3.1047,3.0947,3.0658,3.0658,3.0583,3.0281,2.998,2.9624,2.9106,2.8028,2.7337,2.7105,2.5411,2.4196,2.3887,2.3387,2.3135,2.3135,2.3135,2.3135,2.3135,2.3135,2.3135,2.3135,2.2899,2.2712,2.2464,2.21,2.1777,2.1592,2.1592,2.0818,1.9515,1.9893,1.8789,1.6855,1.7154,1.7025,1.6619,1.6789,1.7,1.7008]},{"header":{"parameterUnit":"m.s-1","parameterCategory":1,"la1":30.6,"la2":28.766,"lo1":-90.7593,"lo2":-88.6598,"dy":0.0162,"dx":0.0183,"nx":116,"ny":114,"refTime":"2023-08-27T00:00:00:Z","depth":0,"parameterNumber":3,"parameterNumberName":"V-component_of_WINDS"},"data":[0.0,0.0,0.0,0.0,0.0,0.0,0.0,0.0,0.0,0.0,0.0,0.0,0.0,0.0,0.0,0.0,0.0,0.0,0.0,0.0,0.0,0.0,0.0,0.0,0.0,0.0,0.0,0.0,0.0,0.0,0.0,0.0,0.0,0.0,0.0,0.0,0.0,0.0,0.0,0.0,0.0,0.0,0.0,0.0,0.0,0.0,0.0,0.0,0.0,0.0,0.0,0.0,0.0,0.0,0.0,0.0,0.0,0.0,0.0,0.0,0.0,0.0,0.0,0.0,0.0,0.0,0.0,0.0,0.0,0.0,0.0,0.0,0.0,0.0,0.0,0.0,0.0,0.0,0.0,0.0,0.0,0.0,0.0,0.0,0.0,0.0,0.0,0.0,0.0,0.0,0.0,0.0,0.0,0.0,0.0,0.0,0.0,0.0,0.0,0.0,0.0,0.0,0.0,0.0,0.0,0.0,0.0,0.0,0.0,0.0,0.0,0.0,0.0,0.0,0.0,0.0,0.0,0.0,0.0,0.0,0.0,0.0,0.0,0.0,0.0,0.0,0.0,0.0,0.0,0.0,0.0,0.0,0.0,0.0,0.0,0.0,0.0,0.0,0.0,0.0,0.0,0.0,0.0,0.0,0.0,0.0,0.0,0.0,0.0,0.0,0.0,0.0,0.0,0.0,0.0,0.0,0.0,0.0,0.0,0.0,0.0,0.0,0.0,0.0,0.0,0.0,0.0,0.0,0.0,0.0,0.0,0.0,0.0,0.0,0.0,0.0,0.0,0.0,0.0,0.0,0.0,0.0,0.0,0.0,0.0,0.0,0.0,0.0,0.0,0.0,0.0,0.0,0.0,0.0,0.0,0.0,0.0,0.0,0.0,0.0,0.0,0.0,0.0,0.0,0.0,0.0,0.0,0.0,0.0,0.0,0.0,0.0,0.0,0.0,0.0,0.0,0.0,0.0,0.0,0.0,0.0,0.0,0.0,0.0,0.0,0.0,0.0,0.0,0.0,0.0,0.0,0.0,0.0,0.0,0.0,0.0,0.0,0.0,0.0,0.0,0.0,0.0,0.0,0.0,0.0,0.0,0.0,0.0,0.0,0.0,0.0,0.0,0.0,0.0,0.0,0.0,0.0,0.0,0.0,0.0,0.0,0.0,0.0,0.0,0.0,0.0,0.0,0.0,0.0,0.0,0.0,0.0,0.0,0.0,0.0,0.0,0.0,0.0,0.0,0.0,0.0,0.0,0.0,0.0,0.0,0.0,0.0,0.0,0.0,0.0,0.0,0.0,0.0,0.0,0.0,0.0,0.0,0.0,0.0,0.0,0.0,0.0,0.0,0.0,0.0,0.0,0.0,0.0,0.0,0.0,0.0,0.0,0.0,0.0,0.0,0.0,0.0,0.0,0.0,0.0,0.0,0.0,0.0,0.0,0.0,0.0,0.0,0.0,0.0,0.0,0.0,0.0,0.0,0.0,0.0,0.0,0.0,0.0,0.0,0.0,0.0,0.0,0.0,0.0,0.0,0.0,0.0,0.0,0.0,0.0,0.0,0.0,0.0,0.0,0.0,0.0,0.0,0.0,0.0,0.0,0.0,0.0,0.0,0.0,0.0,0.0,0.0,0.0,0.0,0.0,0.0,0.0,0.0,0.0,0.0,0.0,0.0,0.0,0.0,0.0,0.0,0.0,0.0,0.0,0.0,0.0,0.0,0.0,0.0,0.0,0.0,0.0,0.0,0.0,0.0,0.0,0.0,0.0,0.0,0.0,0.0,0.0,0.0,0.0,0.0,0.0,0.0,0.0,0.0,0.0,0.0,0.0,0.0,0.0,0.0,0.0,0.0,0.0,0.0,0.0,0.0,0.0,0.0,0.0,0.0,0.0,0.0,0.0,0.0,0.0,0.0,0.0,0.0,0.0,0.0,0.0,0.0,0.0,0.0,0.0,0.0,0.0,0.0,0.0,0.0,0.0,0.0,0.0,0.0,0.0,0.0,0.0,0.0,0.0,0.0,0.0,0.0,0.0,0.0,0.0,0.0,0.0,0.0,0.0,0.0,0.0,0.0,0.0,0.0,0.0,0.0,0.0,0.0,0.0,0.0,0.0,0.0,0.0,0.0,0.0,0.0,0.0,0.0,0.0,0.0,0.0,0.0,0.0,0.0,0.0,0.0,0.0,0.0,0.0,0.0,0.0,0.0,0.0,0.0,0.0,0.0,0.0,0.0,0.0,0.0,0.0,0.0,0.0,0.0,0.0,0.0,0.0,0.0,0.0,0.0,0.0,0.0,0.0,0.0,0.0,0.0,0.0,0.0,0.0,0.0,0.0,0.0,0.0,0.0,0.0,0.0,0.0,0.0,0.0,0.0,0.0,0.0,0.0,0.0,0.0,0.0,0.0,0.0,0.0,0.0,0.0,0.0,0.0,0.0,0.0,0.0,0.0,0.0,0.0,0.0,0.0,0.0,0.0,0.0,0.0,0.0,0.0,0.0,0.0,0.0,0.0,0.0,0.0,0.0,0.0,0.0,0.0,0.0,0.0,0.0,0.0,0.0,0.0,0.0,0.0,0.0,0.0,0.0,0.0,0.0,0.0,0.0,0.0,0.0,0.0,0.0,0.0,0.0,0.0,0.0,0.0,0.0,0.0,0.0,0.0,0.0,0.0,0.0,0.0,0.0,0.0,0.0,0.0,0.0,0.0,0.0,0.0,0.0,0.0,0.0,0.0,0.0,0.0,0.0,0.0,0.0,0.0,0.0,0.0,0.0,0.0,0.0,0.0,0.0,0.0,0.0,0.0,0.0,0.0,0.0,0.0,0.0,0.0,0.0,0.0,0.0,0.0,0.0,0.0,0.0,0.0,0.0,0.0,0.0,0.0,0.0,0.0,0.0,0.0,0.0,0.0,0.0,0.0,0.0,0.0,0.0,0.0,0.0,0.0,0.0,0.0,0.0,0.0,0.0,0.0,0.0,0.0,0.0,0.0,0.0,0.0,0.0,0.0,0.0,0.0,0.0,0.0,0.0,0.0,0.0,0.0,0.0,0.0,0.0,0.0,0.0,0.0,0.0,0.0,0.0,0.0,0.0,0.0,0.0,0.0,0.0,0.0,0.0,0.0,0.0,0.0,0.0,0.0,0.0,0.0,0.0,0.0,0.0,0.0,0.0,0.0,0.0,0.0,0.0,0.0,0.0,0.0,0.0,0.0,0.0,0.0,0.0,0.0,0.0,0.0,0.0,0.0,0.0,0.0,0.0,0.0,0.0,0.0,0.0,0.0,0.0,0.0,0.0,0.0,0.0,0.0,0.0,0.0,0.0,0.0,0.0,0.0,0.0,0.0,0.0,0.0,0.0,0.0,0.0,0.0,0.0,0.0,0.0,0.0,0.0,0.0,0.0,0.0,0.0,0.0,0.0,0.0,0.0,0.0,0.0,0.0,0.0,0.0,0.0,0.0,0.0,0.0,0.0,0.0,0.0,0.0,0.0,0.0,0.0,0.0,0.0,0.0,0.0,0.0,0.0,0.0,0.0,0.0,0.0,0.0,0.0,0.0,0.0,0.0,0.0,0.0,0.0,0.0,0.0,0.0,0.0,0.0,0.0,0.0,0.0,0.0,0.0,0.0,0.0,0.0,0.0,0.0,0.0,0.0,0.0,0.0,0.0,0.0,0.0,0.0,0.0,0.0,0.0,0.0,0.0,0.0,0.0,0.0,0.0,0.0,0.0,0.0,0.0,0.0,0.0,0.0,0.0,0.0,0.0,0.0,0.0,0.0,0.0,0.0,0.0,0.0,0.0,0.0,0.0,0.0,0.0,0.0,0.0,0.0,0.0,0.0,0.0,0.0,0.0,0.0,0.0,0.0,0.0,0.0,0.0,0.0,0.0,0.0,0.0,0.0,0.0,0.0,0.0,0.0,0.0,0.0,0.0,0.0,0.0,0.0,0.0,0.0,0.0,0.0,0.0,0.0,0.0,0.0,0.0,0.0,0.0,0.0,0.0,0.0,0.0,0.0,0.0,0.0,0.0,0.0,0.0,0.0,0.0,0.0,0.0,0.0,0.0,0.0,0.0,0.0,0.0,0.0,0.0,0.0,0.0,0.0,0.0,0.0,0.0,0.0,0.0,0.0,0.0,0.0,0.0,0.0,0.0,0.0,0.0,0.0,0.0,0.0,0.0,0.0,0.0,0.0,0.0,0.0,0.0,0.0,0.0,0.0,0.0,0.0,0.0,0.0,0.0,0.0,0.0,0.0,0.0,0.0,0.0,0.0,0.0,0.0,0.0,0.0,0.0,0.0,0.0,0.0,0.0,0.0,0.0,0.0,0.0,0.0,0.0,0.0,0.0,0.0,0.0,0.0,0.0,0.0,0.0,0.0,0.0,0.0,0.0,0.0,0.0,0.0,0.0,0.0,0.0,0.0,0.0,0.0,0.0,0.0,0.0,0.0,0.0,0.0,0.0,0.0,0.0,0.0,0.0,0.0,0.0,0.0,0.0,0.0,0.0,0.0,0.0,0.0,0.0,0.0,0.0,0.0,0.0,0.0,0.0,0.0,0.0,0.0,0.0,0.0,0.0,0.0,0.0,0.0,0.0,0.0,0.0,0.0,0.0,0.0,0.0,0.0,0.0,0.0,0.0,0.0,0.0,0.0,0.0,0.0,0.0,0.0,0.0,0.0,0.0,0.0,0.0,0.0,0.0,0.0,0.0,0.0,0.0,0.0,0.0,0.0,0.0,0.0,0.0,0.0,0.0,0.0,0.0,0.0,0.0,0.0,0.0,0.0,0.0,0.0,0.0,0.0,0.0,0.0,0.0,0.0,0.0,0.0,0.0,0.0,0.0,0.0,0.0,0.0,0.0,0.0,0.0,0.0,0.0,0.0,0.0,0.0,0.0,0.0,0.0,0.0,0.0,0.0,0.0,0.0,0.0,0.0,0.0,0.0,0.0,0.0,0.0,0.0,0.0,0.0,0.0,0.0,0.0,0.0,0.0,0.0,0.0,0.0,0.0,0.0,0.0,0.0,0.0,0.0,0.0,0.0,0.0,0.0,0.0,0.0,0.0,0.0,0.0,0.0,0.0,0.0,0.0,0.0,0.0,0.0,0.0,0.0,0.0,0.0,0.0,0.0,0.0,0.0,0.0,0.0,0.0,0.0,0.0,0.0,0.0,0.0,0.0,0.0,0.0,0.0,0.0,0.0,0.0,0.0,0.0,0.0,0.0,0.0,0.0,0.0,0.0,0.0,0.0,0.0,0.0,0.0,0.0,0.0,0.0,0.0,0.0,0.0,0.0,0.0,0.0,0.0,0.0,0.0,0.0,0.0,0.0,0.0,0.0,0.0,0.0,0.0,0.0,0.0,0.0,0.0,0.0,0.0,0.0,0.0,0.0,0.0,0.0,0.0,0.0,0.0,0.0,0.0,0.0,0.0,0.0,0.0,0.0,0.0,0.0,0.0,0.0,0.0,0.0,0.0,0.0,0.0,0.0,0.0,0.0,0.0,0.0,0.0,0.0,0.0,0.0,0.0,0.0,0.0,0.0,0.0,0.0,0.0,0.0,0.0,0.0,0.0,0.0,0.0,0.0,0.0,0.0,0.0,0.0,0.0,0.0,0.0,0.0,0.0,0.0,0.0,0.0,0.0,0.0,0.0,0.0,0.0,0.0,0.0,0.0,0.0,0.0,0.0,0.0,0.0,0.0,0.0,0.0,0.0,0.0,0.0,0.0,0.0,0.0,0.0,0.0,0.0,0.0,0.0,0.0,0.0,0.0,0.0,0.0,0.0,0.0,0.0,0.0,0.0,0.0,0.0,0.0,0.0,0.0,0.0,0.0,0.0,0.0,0.0,0.0,0.0,0.0,0.0,0.0,0.0,0.0,0.0,0.0,0.0,0.0,0.0,0.0,0.0,0.0,0.0,0.0,0.0,0.0,0.0,0.0,0.0,0.0,0.0,0.0,0.0,0.0,0.0,0.0,0.0,0.0,0.0,0.0,0.0,0.0,0.0,0.0,0.0,0.0,0.0,0.0,0.0,0.0,0.0,0.0,0.0,0.0,0.0,0.0,0.0,0.0,0.0,0.0,0.0,0.0,0.0,0.0,0.0,0.0,0.0,-0.1595,-0.1331,0.0,0.0,0.0,0.0,0.0,0.0,0.0,0.0,0.0,0.0,0.0,0.0,0.0,0.0,0.0,0.0,0.0,0.0,0.0,0.0,0.0,0.0,0.0,0.0,0.0,0.0,0.0,0.0,0.0,0.0,0.0,0.0,0.0,0.0,0.0,0.0,0.0,0.0,0.0,0.0,0.0,0.0,0.0,0.0,0.0,0.0,0.0,0.0,0.0,0.0,0.0,0.0,0.0,0.0,0.0,0.0,0.0,0.0,0.0,0.0,0.0,0.0,0.0,0.0,0.0,0.0,0.0,0.0,0.0,0.0,0.0,0.0,0.0,0.0,0.0,0.0,0.0,0.0,0.0,0.0,0.0,0.0,0.0,0.0,0.0,0.0,0.0,0.0,0.0,0.0,0.0,0.0,0.0,0.0,0.0,0.0,0.0,0.0,0.0,0.0,0.0,0.0,0.0,0.0,0.0,0.0,0.0,0.0,0.0,0.0,0.0,0.0,0.0,0.0,-0.2621,-0.2357,0.0,0.0,0.0,0.0,0.0,0.0,0.0,0.0,0.0,0.0,0.0,0.0,0.0,0.0,0.0,0.0,0.0,0.0,0.0,0.0,0.0,0.0,0.0,0.0,0.0,0.0,0.0,0.0,0.0,0.0,0.0,0.0,0.0,0.0,0.0,0.0,0.0,0.0,0.0,0.0,0.0,0.0,0.0,0.0,0.0,0.0,0.0,0.0,0.0,0.0,0.0,0.0,0.0,0.0,0.0,0.0,0.0,0.0,0.0,0.0,0.0,0.0,0.0,0.0,0.0,0.0,0.0,0.0,0.0,0.0,0.0,0.0,0.0,0.0,0.0,0.0,0.0,0.0,0.0,0.0,0.0,0.0,0.0,0.0,0.0,0.0,0.0,0.0,0.0,0.0,0.0,0.0,0.0,0.0,0.0,0.0,0.0,0.0,0.0,0.0,0.0,0.0,0.0,0.0,0.0,0.0,0.0,0.0,-0.4882,-0.3739,-0.3776,-0.3777,-0.3716,-0.3551,-0.3058,-0.3103,-0.353,-0.3846,0.0,0.0,0.0,0.0,0.0,0.0,0.0,0.0,0.0,0.0,0.0,0.0,0.0,0.0,0.0,0.0,0.0,0.0,0.0,0.0,0.0,-2.0035,-1.9818,-1.9726,-1.969,-1.969,0.0,0.0,0.0,0.0,0.0,0.0,0.0,0.0,0.0,0.0,0.0,0.0,-2.0454,-2.1695,-2.2562,-2.2981,-2.0707,0.0,0.0,0.0,0.0,0.0,0.0,0.0,0.0,0.0,0.0,0.0,0.0,0.0,0.0,0.0,0.0,0.0,0.0,0.0,0.0,0.0,0.0,0.0,0.0,0.0,0.0,0.0,0.0,0.0,0.0,0.0,0.0,0.0,0.0,0.0,0.0,0.0,0.0,0.0,0.0,0.0,0.0,0.0,-1.2446,-1.3878,0.0,0.0,0.0,0.0,0.0,0.0,0.0,0.0,0.0,0.0,0.0,0.0,0.0,-0.6991,-0.6995,-0.6978,-0.7541,-0.8519,-0.5722,-0.4383,-0.4361,-0.4403,-0.4079,-0.3599,-0.3541,0.0,-0.3221,-0.3754,0.0,0.0,0.0,0.0,0.0,0.0,0.0,0.0,0.0,0.0,0.0,0.0,0.0,0.0,0.0,0.0,0.0,0.0,0.0,0.0,0.0,-2.0563,-2.0658,-2.082,-2.147,-2.1425,-2.0333,0.0,0.0,0.0,0.0,0.0,0.0,0.0,0.0,0.0,-1.9776,-2.0582,-2.1497,-2.2666,-2.355,-2.4118,-2.2966,-2.2697,-2.3041,-2.2199,0.0,0.0,0.0,0.0,0.0,0.0,0.0,0.0,0.0,0.0,0.0,0.0,0.0,0.0,0.0,0.0,0.0,0.0,0.0,0.0,0.0,0.0,0.0,0.0,0.0,0.0,0.0,0.0,0.0,0.0,0.0,0.0,0.0,0.0,0.0,0.0,0.0,0.0,0.0,-1.245,-1.2274,-1.2922,-1.2453,-1.0965,0.0,0.0,0.0,0.0,0.0,0.0,0.0,0.0,0.0,-0.7755,-0.7931,-0.8019,-0.7997,-0.8039,-0.8276,-0.8777,-0.5896,-0.4516,-0.4476,-0.4478,-0.3439,-0.1577,-0.1552,-0.1499,-0.1517,-0.3464,-0.4295,-0.4341,0.0,0.0,0.0,0.0,-0.3316,-0.3394,0.0,0.0,0.0,0.0,0.0,0.0,0.0,0.0,0.0,0.0,0.0,0.0,-2.0971,-2.1356,-2.1858,-2.2409,-2.331,-2.3176,-2.156,-2.2054,0.0,0.0,0.0,0.0,0.0,0.0,0.0,-2.0371,-2.0909,-2.1831,-2.3112,-2.4179,-2.5166,-2.6123,-2.6099,-2.5394,-2.4146,-2.3466,-2.329,0.0,0.0,0.0,0.0,0.0,0.0,0.0,0.0,0.0,0.0,0.0,0.0,0.0,0.0,0.0,0.0,0.0,0.0,0.0,0.0,0.0,0.0,0.0,0.0,0.0,0.0,0.0,0.0,0.0,0.0,0.0,0.0,0.0,0.0,0.0,0.0,0.0,0.0,-1.3017,-1.265,-1.2426,-1.2748,-1.2165,0.0,0.0,0.0,0.0,0.0,0.0,-0.7498,-0.8125,-0.8187,-0.7485,-0.8326,-0.8964,-0.9249,-0.8937,-0.8777,-0.8758,-0.6647,-0.5194,-0.4512,-0.4643,-0.34,-0.1089,-0.0355,0.0,-0.0244,-0.3232,-0.4453,-0.4389,-0.446,-0.4543,-0.4546,-0.4487,-0.4513,-0.4485,0.0,0.0,0.0,0.0,0.0,0.0,0.0,0.0,0.0,0.0,0.0,-2.0701,-2.1579,-2.2244,-2.3128,-2.4373,-2.4492,-2.4253,-2.3505,-2.2383,-2.1425,0.0,0.0,0.0,0.0,0.0,0.0,-2.161,-2.1782,-2.3388,-2.6359,-2.7066,-2.8382,-3.0178,-3.0175,-2.951,-2.816,-2.5595,-2.4884,-2.5345,-2.4088,0.0,0.0,0.0,0.0,0.0,0.0,0.0,0.0,0.0,0.0,0.0,0.0,0.0,0.0,0.0,0.0,0.0,0.0,0.0,0.0,0.0,0.0,0.0,0.0,0.0,0.0,0.0,0.0,0.0,0.0,0.0,0.0,0.0,0.0,0.0,0.0,0.0,0.0,-1.3283,-1.2989,0.0,0.0,0.0,0.0,-0.7271,-0.7091,-0.7578,-0.8641,-1.1161,-1.1394,-0.877,-0.8745,-0.9363,-1.0509,-0.9362,-0.8823,-0.8808,-0.8636,-0.7157,-0.4502,-0.5102,-0.4975,-0.4121,-0.1228,0.0,-0.0244,-0.3241,-0.4644,-0.4838,-0.4591,-0.4577,-0.4691,-0.4522,-0.4512,-0.4519,0.0,0.0,0.0,0.0,0.0,0.0,0.0,0.0,0.0,-2.143,-2.1375,-2.1894,-2.3243,-2.3691,-2.4627,-2.6378,-2.6931,-2.6707,-2.56,-2.4702,-2.3729,0.0,0.0,0.0,0.0,0.0,-2.1281,-2.2921,-2.345,-2.4905,-2.726,-2.8757,-3.0063,-3.1172,-3.1602,-3.1747,-3.1562,-2.8471,-2.7076,-2.6704,-2.4507,-2.357,0.0,0.0,0.0,0.0,0.0,0.0,0.0,0.0,0.0,0.0,0.0,0.0,0.0,0.0,0.0,0.0,0.0,0.0,0.0,0.0,0.0,0.0,0.0,0.0,0.0,0.0,0.0,0.0,0.0,0.0,0.0,0.0,0.0,0.0,0.0,0.0,0.0,-1.5271,-1.4715,0.0,-1.3016,-1.2439,-1.1765,-1.0875,-1.0805,-1.1447,-1.2987,-1.3978,-1.2762,-0.8932,-0.9532,-1.0157,-1.061,-1.0196,-0.9952,-0.9986,-0.9935,-0.8027,-0.4505,-0.4736,-0.4712,-0.448,-0.3763,-0.3477,-0.3568,-0.4666,-0.4994,-0.4924,-0.4913,-0.481,-0.4716,-0.4742,-0.4693,-0.4662,0.0,0.0,0.0,0.0,0.0,0.0,0.0,0.0,0.0,-2.1658,-2.2021,-2.2927,-2.4462,-2.541,-2.6767,-2.8727,-2.9116,-2.8771,-2.7664,-2.6138,-2.4777,0.0,0.0,0.0,0.0,-2.2288,-2.312,-2.4612,-2.5315,-2.6804,-2.8936,-3.0228,-3.1423,-3.2561,-3.2993,-3.3561,-3.4038,-3.1605,-2.9813,-2.8376,-2.5926,-2.5334,-2.558,0.0,0.0,0.0,0.0,0.0,0.0,0.0,0.0,0.0,0.0,0.0,0.0,0.0,0.0,0.0,0.0,0.0,0.0,0.0,0.0,0.0,0.0,0.0,0.0,0.0,0.0,0.0,0.0,0.0,0.0,0.0,0.0,0.0,0.0,-1.5969,-1.6408,-1.692,-1.6103,-1.4924,-1.3447,-1.3323,-1.3456,-1.3733,-1.3748,-1.4209,-1.534,-1.5385,-1.4054,-1.11,-1.0733,-1.0604,-1.0594,-1.0587,-1.0587,-1.0594,-1.0615,-0.8575,-0.4823,-0.4809,-0.4784,-0.482,-0.5253,-0.5394,-0.5379,-0.5403,-0.5291,-0.5075,-0.5028,-0.4972,-0.4944,-0.4803,-0.4741,-0.476,0.0,0.0,0.0,0.0,0.0,0.0,0.0,-2.231,-2.2135,-2.1688,-2.2423,-2.3632,-2.5157,-2.73,-2.9415,-3.1332,-3.0911,-3.0253,-2.9654,-2.6497,-2.4358,0.0,0.0,0.0,-2.2843,-2.4644,-2.5994,-2.6647,-2.7363,-2.8975,-3.1509,-3.1566,-3.2609,-3.4495,-3.4511,-3.4927,-3.5454,-3.4821,-3.303,-3.0528,-2.8509,-2.8053,-2.8286,0.0,0.0,0.0,0.0,0.0,0.0,0.0,0.0,0.0,0.0,0.0,0.0,0.0,0.0,0.0,0.0,0.0,0.0,0.0,0.0,0.0,0.0,0.0,0.0,0.0,0.0,0.0,0.0,0.0,0.0,0.0,0.0,0.0,-1.6716,-1.7095,-1.7641,-1.8097,-1.7069,-1.5737,-1.4341,-1.4184,-1.4512,-1.5326,-1.5416,-1.5375,-1.5375,-1.5402,-1.543,-1.5402,-1.2258,-1.062,-1.0568,-1.0575,-1.0631,-1.0618,-1.0622,-0.8836,-0.5589,-0.5476,-0.5409,-0.5399,-0.5399,-0.5377,-0.5428,-0.5423,-0.5447,-0.5339,-0.5029,-0.5101,-0.5301,-0.4708,-0.4659,-0.4916,0.0,0.0,0.0,0.0,0.0,0.0,0.0,-2.231,-2.2237,-2.2106,-2.3012,-2.4349,-2.624,-2.8179,-3.0103,-3.2078,-3.118,-3.0432,-3.0253,-2.7171,-2.5046,0.0,0.0,0.0,-2.548,-2.6002,-2.6849,-2.8053,-2.9124,-3.0278,-3.152,-3.296,-3.3985,-3.4496,-3.5017,-3.5619,-3.6223,-3.6067,-3.5508,-3.458,-3.1076,-2.9549,-2.8958,0.0,0.0,0.0,0.0,0.0,0.0,0.0,0.0,0.0,0.0,0.0,0.0,0.0,0.0,0.0,0.0,0.0,0.0,0.0,0.0,0.0,0.0,0.0,0.0,0.0,0.0,0.0,0.0,0.0,0.0,0.0,-1.9165,-1.9081,-1.8206,-1.8342,-1.866,-1.9018,-1.8621,-1.7835,-1.6734,-1.567,-1.5149,-1.5387,-1.5411,-1.5397,-1.5397,-1.5373,-1.5383,-1.5386,-1.227,-1.0599,-1.0581,-1.0581,-1.0619,-1.0624,-1.0621,-1.0085,-0.9111,-0.6544,-0.5383,-0.5432,-0.5432,-0.5411,-0.542,-0.5859,-0.58,-0.5413,-0.5321,-0.4755,-0.416,-0.4863,-0.5107,-0.5078,0.0,0.0,0.0,0.0,0.0,0.0,0.0,-2.231,-2.231,-2.231,-2.3484,-2.4989,-2.6682,-2.8503,-3.0268,-3.1958,-3.0881,-3.0118,-3.0118,-2.7799,0.0,0.0,0.0,-2.6647,-2.7814,-2.8636,-2.9433,-3.0238,-3.122,-3.2035,-3.2791,-3.3938,-3.4783,-3.5336,-3.5764,-3.6305,-3.6882,-3.6847,-3.6865,-3.6671,-3.4337,-3.2856,-3.1734,-2.8438,-2.71,-2.6681,-2.4152,-2.336,-2.323,-2.0898,0.0,0.0,0.0,0.0,0.0,0.0,0.0,0.0,0.0,0.0,0.0,0.0,0.0,0.0,0.0,0.0,0.0,0.0,0.0,0.0,0.0,0.0,0.0,0.0,-1.9979,-2.0819,-1.9772,-1.9645,-1.9784,-2.0034,-1.9481,-1.9017,-1.8876,-1.7083,-1.6078,-1.6481,-1.649,-1.649,-1.649,-1.649,-1.6462,-1.6468,-1.3131,-1.1281,-1.1323,-1.0868,-1.0586,-1.0593,-1.0614,-0.9823,-0.8345,-0.6298,-0.5384,-0.5404,-0.542,-0.5386,-0.5454,-0.5805,-0.5734,-0.5383,0.0,0.0,0.0,0.0,-0.5318,-0.5223,0.0,0.0,0.0,0.0,0.0,0.0,0.0,-2.231,-2.231,-2.231,-2.373,-2.5259,-2.6509,-2.8222,-2.9892,-3.1342,-3.0298,-2.9501,-2.9462,0.0,0.0,-2.6093,-2.8382,-2.9759,-2.9909,-3.1689,-3.2617,-3.2617,-3.3275,-3.392,-3.4478,-3.4628,-3.5365,-3.6507,-3.6655,-3.7064,-3.7608,-3.7723,-3.7714,-3.7644,-3.7644,-3.6821,-3.5265,-3.2138,-3.124,-3.13,-2.8727,-2.7096,-2.5881,-2.3934,0.0,0.0,0.0,0.0,0.0,0.0,0.0,0.0,0.0,0.0,0.0,0.0,0.0,0.0,0.0,0.0,0.0,0.0,0.0,0.0,0.0,0.0,0.0,0.0,-2.0583,-2.2942,-2.1369,-2.105,-2.0976,-2.1117,-2.0162,-1.9683,-2.0262,-1.8204,-1.7155,-1.793,-1.7981,-1.8002,-1.8002,-1.7968,0.0,0.0,0.0,-1.2296,-1.2308,-1.1299,-1.0782,-1.0817,-1.0678,-0.8997,-0.5971,-0.6009,-0.5778,-0.5418,-0.5388,-0.5458,-0.5517,-0.5448,-0.5365,-0.5408,-0.5426,-0.5376,-0.5376,-0.5369,-0.5348,-0.5311,0.0,0.0,0.0,0.0,0.0,0.0,0.0,-2.231,-2.231,-2.231,-2.3208,-2.4165,-2.4948,-2.6451,-2.8465,-3.1021,-2.9968,-2.9044,0.0,0.0,-2.6841,-2.8727,-2.9789,-3.0836,-3.1928,-3.2841,-3.3305,-3.3305,-3.3965,-3.4375,-3.4545,-3.5586,-3.6268,-3.6561,-3.7565,-3.8384,-3.9033,-3.9564,-3.9486,-3.9035,-3.9035,-3.7943,-3.6118,-3.4367,-3.314,-3.2048,-2.9939,-2.9355,-2.919,-2.6713,-2.6149,-2.5937,-2.2828,-2.1536,0.0,0.0,0.0,0.0,0.0,0.0,0.0,0.0,0.0,0.0,0.0,0.0,0.0,0.0,0.0,0.0,0.0,0.0,0.0,-1.9165,-2.2929,-2.5128,-2.2972,-2.2639,-2.2404,-2.182,-2.1794,-2.0938,-1.8709,-1.8058,-1.785,-1.8024,-1.7998,-1.8006,-1.8006,-1.7967,-1.8019,-1.7991,-1.4285,-1.2305,-1.2318,-1.2082,-1.1985,-1.1962,-1.1041,0.0,-0.9582,-0.957,-0.8072,-0.5431,-0.5396,-0.5661,-0.6091,-0.5589,-0.5378,-0.5403,-0.5376,-0.5432,-0.5352,-0.5226,-0.5108,-0.502,0.0,0.0,0.0,0.0,0.0,0.0,0.0,-2.231,-2.231,-2.231,-2.3071,-2.3994,-2.5053,-2.5918,-2.7312,-2.9465,-2.8779,-2.8139,0.0,-2.8016,-2.8801,-3.0492,-3.1794,-3.2961,-3.3993,-3.4337,-3.4502,-3.4502,-3.5187,-3.551,-3.5513,-3.6869,-3.7615,-3.7988,-3.8972,-3.9742,-4.0457,-4.0756,-4.0711,-4.0367,-4.0053,-3.932,-3.8227,-3.6237,-3.507,-3.4292,-3.2632,-3.2018,-3.1704,-2.9729,-2.8896,-2.8521,-2.7527,-2.5875,-2.409,0.0,0.0,0.0,0.0,0.0,0.0,0.0,0.0,0.0,0.0,0.0,0.0,0.0,0.0,-2.3238,-2.1896,0.0,-2.4152,-2.5464,-2.6149,-2.6117,-2.4956,-2.4789,-2.4435,-2.3475,-2.3013,-2.1551,-1.8304,-1.7996,-1.8008,-1.8008,-1.8017,-1.8409,-1.9261,-1.9303,-1.9288,-1.9328,-1.6628,-1.517,-1.5114,-1.3252,-1.2285,-1.2298,-1.1724,-1.1484,-1.1427,-1.1431,-1.0481,-0.8775,-0.6757,-0.6026,-0.626,-0.5637,-0.5406,-0.5396,-0.5432,-0.5408,-0.5418,-0.5274,-0.5203,-0.5152,0.0,0.0,0.0,0.0,0.0,0.0,0.0,0.0,-2.231,-2.231,-2.2901,-2.3835,-2.51,-2.541,-2.6181,-2.7869,-2.7863,0.0,0.0,-2.9824,-3.1084,-3.2063,-3.3754,-3.4936,-3.5489,-3.5624,-3.5699,-3.5699,-3.6356,-3.6758,-3.6889,-3.8078,-3.8988,-3.9598,-4.0456,-4.1055,-4.1579,-4.1713,-4.1683,-4.1519,-4.0846,-4.0516,-4.0127,-3.7629,-3.6671,-3.6477,-3.4996,-3.3799,-3.2796,-3.1988,-3.0874,-3.0122,-3.1985,-3.0364,-2.7844,-2.7987,-2.658,0.0,0.0,0.0,0.0,0.0,0.0,0.0,0.0,-2.5586,-2.7705,-2.803,-2.8122,-2.7648,-2.6179,-2.7661,-2.9796,-3.1939,-2.9395,-2.7128,-2.7109,-2.6754,-2.6008,-2.4601,-2.4018,-2.2535,-1.9291,-1.8402,-1.8008,-1.8008,-1.7998,-1.8626,-2.0038,-2.0102,-2.0257,-2.0596,-1.9251,-1.8527,-1.8488,-1.5474,-1.3372,-1.2297,-1.2281,-1.2331,-1.2311,-1.2319,-1.2291,-1.2086,-0.807,-0.6255,-0.6084,-0.5755,-0.5484,-0.5477,-0.6156,-0.6432,-0.6358,-0.5654,-0.5508,-0.5577,0.0,0.0,0.0,0.0,0.0,0.0,0.0,0.0,0.0,-2.231,-2.2389,-2.2765,-2.3573,-2.3664,-2.4809,-2.7578,0.0,0.0,-3.1639,-3.1488,-3.2165,-3.41,-3.4951,-3.5429,-3.5504,-3.6073,-3.6372,-3.6372,-3.697,-3.7588,-3.8167,-3.894,-3.9657,-4.0357,-4.1597,-4.2198,-4.2297,-4.2865,-4.2776,-4.2192,-4.1534,-4.092,-4.0172,-3.8093,-3.73,-3.706,-3.516,-3.2916,-3.1001,-3.2048,-3.1582,-3.1119,-3.4292,-3.3845,-3.1742,-2.9382,-2.7609,-2.5854,-2.3557,-2.2301,-2.2015,-2.3666,-2.34,-2.3981,0.0,-2.8523,-2.8026,-2.9591,-2.994,-3.0785,-3.3644,-3.4422,-3.4685,-3.497,-3.1874,-2.9403,-2.9402,-2.7716,-2.5677,-2.3518,-2.4991,-2.5181,-2.2774,-1.9818,-1.8008,-1.8008,-1.7995,-1.809,-1.8269,-1.8286,-1.9004,-2.0537,-2.0377,-2.0337,-2.0322,-1.9905,-1.7204,-1.2269,-1.233,-1.2264,-1.2291,-1.2298,-1.2271,-1.209,-0.8061,-0.6026,-0.5541,-0.6026,-0.5887,-0.5677,-0.8774,-1.0013,-0.9651,-0.6536,-0.5765,-0.6164,0.0,0.0,0.0,0.0,0.0,0.0,0.0,0.0,0.0,0.0,-2.231,-2.2581,-2.3325,-2.4171,-2.5186,-2.642,0.0,0.0,-3.1526,-3.1479,-3.2481,-3.5034,-3.5371,-3.5684,-3.6073,-3.6357,-3.6656,-3.703,-3.8068,-3.8727,-3.9017,-4.0453,-4.1316,-4.1636,-4.2485,-4.2887,-4.294,-4.321,-4.3165,-4.2836,-4.1803,-4.0995,-4.0187,-3.8182,-3.6462,-3.503,-3.4106,-3.2801,0.0,-3.1674,-3.1628,-3.2,-3.4293,-3.358,-3.171,-3.0653,-2.9319,-2.7694,-2.567,-2.472,-2.4513,-2.5048,-2.5659,-2.6692,-2.8906,-2.9056,-2.9199,-3.0623,-3.1595,-3.2553,-3.4071,-3.4988,-3.5483,-3.5511,-3.416,-3.2305,-3.0113,-2.7934,-2.6163,-2.5192,-2.4747,-2.3372,-2.0395,-1.8832,-1.8006,-1.8027,-1.7986,-1.8037,-1.7981,-1.8963,-1.9827,-2.0617,-2.0579,-2.0572,-2.0599,-2.0605,-1.9459,-1.708,-1.3841,-1.2289,-1.2317,-1.2331,-1.2277,-1.2182,-1.0548,-0.962,-0.9447,-0.9713,-0.8277,-0.628,-1.0101,-1.1396,-1.0773,-0.853,-0.7223,-0.6557,0.0,0.0,0.0,0.0,0.0,0.0,0.0,0.0,0.0,0.0,0.0,-2.2665,-2.3596,-2.4847,-2.5778,0.0,0.0,0.0,0.0,-3.182,-3.3123,-3.5161,-3.578,-3.623,-3.6477,-3.6836,-3.7225,-3.7689,-3.9046,-3.9747,-3.998,-4.1652,-4.2471,-4.2654,-4.3145,-4.3329,-4.3329,-4.3329,-4.3329,-4.3225,-4.1908,-4.0995,-4.0142,-3.7778,-3.5589,-3.3653,-3.32,-3.202,-3.0649,-3.0602,-3.0959,-3.1742,-3.3401,-3.3077,-3.2075,-3.1814,-3.0375,-2.8632,-2.7345,-2.6788,-2.6743,-2.7189,-2.8342,-2.9594,-3.0328,-3.0881,-3.1554,-3.2706,-3.3529,-3.405,-3.4055,-3.4827,-3.5526,-3.5517,-3.4583,-3.2994,-3.0197,-2.7876,-2.6253,-2.5626,-2.3555,-2.0892,-1.7592,-1.7742,-1.8184,-1.8708,-1.8267,-1.8204,-1.8682,-1.9942,-2.0612,-2.0627,-2.0575,-2.0586,-2.0566,-2.0576,-2.0595,-2.0525,-1.6489,-1.3751,-1.2309,-1.2277,-1.2264,-1.2311,-1.2271,-1.2265,-1.2335,-1.2315,-1.0599,-0.8255,-1.116,-1.1949,-1.1365,-1.0442,-0.8996,-0.748,0.0,0.0,0.0,0.0,0.0,0.0,0.0,0.0,0.0,0.0,0.0,0.0,0.0,0.0,-2.6184,0.0,0.0,0.0,0.0,-3.317,-3.4398,-3.4454,-3.6415,-3.7208,-3.6492,-3.7704,-3.8347,-3.8362,-3.9727,-4.0721,-4.1324,-4.2108,-4.2669,-4.3235,-4.3329,-4.3329,-4.3329,-4.3329,-4.3329,-4.3225,-4.1908,-4.0995,-4.0053,-3.6791,-3.5044,-3.4198,-3.2819,-2.9843,-2.6838,-2.8586,-2.9297,-2.9823,-3.1813,-3.3356,-3.4141,-3.2689,-3.0157,-2.7911,-2.8178,-2.772,-2.7866,-3.0775,-3.1479,-3.2064,-3.4711,-3.531,-3.5549,-3.6475,-3.6004,-3.5444,-3.5459,-3.5452,-3.5521,-3.5483,-3.2365,-2.9926,-2.9843,-2.788,-2.5685,-2.3446,-2.1227,-1.8714,-1.5778,-1.7002,-1.8695,-2.0368,-1.8971,-1.8745,-2.0417,-2.0586,-2.0632,-2.0572,-2.0585,-2.0591,-2.0566,-2.0582,-2.0603,-2.0621,-2.0419,-1.7488,-1.2309,-1.2277,-1.2305,-1.2305,-1.2298,-1.2305,-1.2318,-1.2311,-1.2211,-1.2124,-1.2285,-1.2086,-1.1696,-1.1821,-1.0912,-0.9371,0.0,0.0,0.0,0.0,0.0,0.0,0.0,0.0,0.0,0.0,0.0,0.0,0.0,0.0,0.0,0.0,-2.6302,0.0,0.0,-3.1863,-3.3127,-3.5106,-3.6349,-3.6854,-3.6517,-3.7831,-3.8478,-3.8392,-4.0172,-4.1172,-4.1441,-4.2499,-4.3145,-4.3329,-4.3329,-4.3329,-4.3329,-4.3989,-4.4542,-4.4895,-4.3183,-4.2385,-4.1742,-3.7716,-3.5093,-3.3342,0.0,-3.0044,-2.8467,-2.8039,-2.8458,-2.9437,-3.1146,-3.2246,-3.2703,-3.1576,-3.0326,-2.9582,-3.0799,-3.1954,-3.3064,-3.4164,-3.5053,-3.5829,-3.6595,-3.6761,-3.6746,-3.6805,-3.655,-3.6198,-3.5615,-3.5522,-3.4637,-3.216,-3.0651,-2.9804,-2.9791,-2.7901,-2.5078,-2.1389,-2.1569,-2.1606,-2.0618,-2.1055,-2.0708,-1.8998,-1.8337,-1.9926,-2.4293,-2.448,-2.3298,-2.0677,-2.0572,-2.1168,-2.2242,-2.1134,-2.0586,-2.0585,-2.0566,-1.7682,-1.233,-1.2303,-1.2712,-1.3417,-1.2648,-1.2324,-1.2319,-1.233,-1.2278,-1.2324,-1.2278,-1.221,-1.2103,-1.2124,-1.1761,-1.1007,0.0,0.0,0.0,0.0,0.0,0.0,0.0,0.0,0.0,0.0,0.0,0.0,0.0,0.0,0.0,0.0,0.0,-2.7418,0.0,0.0,-3.2276,-3.3906,-3.5464,-3.6111,-3.5692,-3.6646,-3.7072,-3.6995,-3.8522,-3.9372,-3.9696,-4.0961,-4.1836,-4.2301,-4.2334,-4.2606,-4.3164,-4.349,-4.3778,-4.3818,-4.2069,-4.0944,-3.992,-3.6206,-3.3922,0.0,-3.0398,-2.967,-2.942,-2.831,-2.8601,-2.962,-3.0735,-3.1407,-3.1655,-3.1077,-3.0451,-3.0493,-3.3011,-3.5447,-3.7518,-3.8659,-3.9031,-3.9152,-3.9009,-3.8355,-3.7766,-3.7704,-3.6967,-3.5276,-3.1852,-3.1276,-3.0743,-2.9274,-2.9481,-2.9804,-2.9777,-2.7898,-2.5398,-2.2567,-2.2708,-2.3108,-2.3097,-2.3101,-2.218,-1.9974,-1.98,-2.179,-2.6269,-2.6519,-2.5295,-2.2756,-2.1374,-2.1118,-2.2172,-2.1145,-2.0622,-2.0595,-2.0635,-1.7925,-1.297,-1.4523,-1.4567,-1.3459,-1.288,-1.2526,-1.2313,-1.3079,-1.2928,-1.2378,-1.2826,-1.2673,-1.2291,-1.2184,-1.2031,-1.1799,0.0,0.0,0.0,0.0,0.0,0.0,0.0,0.0,0.0,0.0,0.0,0.0,0.0,0.0,0.0,0.0,0.0,0.0,0.0,0.0,0.0,-3.1134,-3.3922,-3.5078,-3.426,-3.4322,-3.438,-3.4294,-3.5043,-3.5769,-3.6431,-3.7634,-3.9016,-4.0334,-4.0355,-4.1102,-4.2373,-4.1722,-4.1055,-4.0309,-3.8941,-3.7176,-3.5131,-3.2708,-3.177,-3.1429,-2.9042,-2.8787,-2.953,-2.9233,-2.9692,-3.0455,-3.0818,-3.1136,-3.1399,-3.1416,-3.0733,-3.0855,-3.4805,-3.8114,-4.1089,-4.3922,-4.3297,-4.1899,-4.1868,-4.0085,-3.865,-3.9299,-3.7437,-3.3206,-2.5079,-2.3473,-2.4242,-2.6776,-2.8372,-2.9268,-2.9265,-2.7677,-2.6476,-2.6526,-2.4566,-2.3292,-2.328,-2.3244,-2.328,-2.3255,-2.3179,-2.4118,-2.6365,-2.6489,-2.6515,-2.653,-2.2972,-2.1066,-2.1053,-2.079,-2.0618,-2.0604,-2.0635,-1.8448,-1.4597,-1.8653,-1.7645,-1.2784,-1.3173,-1.3007,-1.2647,-1.4509,-1.4106,-1.2599,-1.3797,-1.3499,-1.2412,-1.2134,-1.2033,-1.1955,0.0,0.0,0.0,0.0,0.0,0.0,0.0,0.0,0.0,0.0,0.0,0.0,0.0,0.0,0.0,0.0,0.0,0.0,0.0,0.0,0.0,0.0,0.0,0.0,0.0,0.0,0.0,-3.3,-3.418,-3.4832,-3.5022,-3.5837,-3.6466,-3.6808,-3.6814,-3.7016,-3.7399,-3.7919,-3.827,-3.8387,-3.7113,-3.647,-3.6069,-3.2983,-3.2059,-3.214,-2.9986,-2.9197,-2.9186,-2.9386,-3.1117,-3.3237,-3.374,-3.4025,-3.414,-3.4057,-3.4052,-3.5,-3.8973,-4.2257,-4.4623,-4.5135,-4.4496,-4.3452,-4.259,-4.0747,-3.9207,-3.9377,-3.885,-3.5379,-2.5413,-2.2027,-2.0933,-2.1619,-2.2058,-2.2317,-2.2363,-2.4755,-2.6534,-2.6501,-2.5996,-2.5605,-2.5627,-2.561,-2.5622,-2.5602,-2.405,-2.4101,-2.6357,-2.6532,-2.6516,-2.6497,-2.7138,-2.7439,-2.7423,-2.2882,-2.0591,-2.0604,-2.0562,-2.0008,-1.897,-1.9401,-1.9217,-1.8338,-1.6112,-1.5165,-1.5257,-1.5495,-1.5146,-1.4522,-1.4824,-1.4752,-1.4371,-1.3576,-1.369,-1.4253,0.0,0.0,0.0,0.0,0.0,0.0,0.0,0.0,0.0,0.0,0.0,0.0,0.0,0.0,0.0,0.0,0.0,0.0,0.0,0.0,0.0,0.0,0.0,0.0,0.0,0.0,0.0,0.0,0.0,0.0,-3.2782,-3.3108,-3.3632,-3.4258,-3.4258,-3.4814,-3.5692,-3.5856,-3.5905,0.0,0.0,-3.4037,-3.3362,-3.1341,-3.0911,-3.1209,-2.9836,-3.0101,-3.1111,-3.1231,-3.2905,-3.5119,-3.6197,-3.599,-3.5616,-3.6882,-3.5514,-3.517,-4.2011,-4.5537,-4.7419,-4.786,-4.6748,-4.5293,-4.4411,-4.1724,-3.9374,-3.9414,-3.851,-3.4431,-2.3852,-2.0689,-2.085,-2.4312,-2.4924,-2.5351,-2.6529,-2.6573,-2.6891,-2.7829,-2.7959,-2.7982,-2.7933,-2.7921,-2.7544,-2.6578,-2.532,-2.5542,-2.7862,-2.7939,-2.753,-2.6554,-2.8649,-2.9808,-2.982,-2.3656,-2.0632,-2.0585,-2.0622,-2.0605,-2.0585,-2.0062,-1.9745,-1.9403,-1.8109,-1.6879,-1.5814,-1.6041,-1.5774,-1.5234,-1.5649,-1.5587,-1.5147,-1.4418,-1.4503,-1.4924,0.0,0.0,0.0,0.0,0.0,0.0,0.0,0.0,0.0,0.0,0.0,0.0,0.0,0.0,0.0,0.0,0.0,0.0,0.0,0.0,0.0,0.0,0.0,0.0,0.0,-2.948,-2.9518,-3.0162,-2.9045,-2.9169,0.0,-3.0251,-3.0945,-3.2135,-3.2135,-3.3185,-3.4857,-3.4248,-3.3483,-3.2622,-3.2006,-3.0704,-2.9125,0.0,0.0,-2.9359,-2.9113,-3.0791,-3.3223,-3.3628,-3.5113,-3.7044,-3.8555,-3.8139,-3.7635,-4.0324,-3.7446,-3.541,-4.4863,-4.8287,-4.9571,-5.0621,-4.912,-4.7234,-4.6701,-4.1976,-3.7658,-3.7368,-3.5215,-3.0579,-2.138,-1.9689,-2.2199,-2.9769,-3.1246,-3.2316,-3.4634,-3.0748,-2.8238,-2.9635,-2.9797,-2.977,-2.977,-2.9805,-2.9004,-2.7091,-2.6954,-2.7763,-2.966,-2.977,-2.8933,-2.7034,-2.8787,-2.9439,-2.8595,-2.3652,-2.1024,-2.0566,-2.0566,-2.0566,-2.0634,-2.046,-1.9502,-1.8044,-1.9025,-1.8043,-1.5726,-1.65,-1.6333,-1.5658,-1.6498,-1.6289,-1.5545,-1.5076,-1.5027,-1.5095,0.0,0.0,0.0,0.0,0.0,0.0,0.0,0.0,0.0,0.0,-2.2061,-2.231,0.0,0.0,0.0,0.0,0.0,0.0,0.0,0.0,0.0,0.0,0.0,0.0,-2.9367,-2.9231,-2.9304,-2.9548,-2.9334,-2.9342,-2.9559,-2.909,-2.9002,-2.9208,-2.9208,-2.9417,-2.98,-3.019,-2.9811,-2.9013,-2.888,-2.8172,-2.7248,0.0,0.0,0.0,-2.8725,-2.935,-3.0436,-3.4463,-3.8332,-4.1525,-4.1594,-4.3098,-4.5007,-4.5951,-4.5477,-4.5485,-4.9407,-5.0595,-5.0604,-4.9659,-4.8995,-4.8645,-4.8565,-3.8332,-2.8396,-2.6703,-2.4246,-2.1879,-2.0047,-1.9701,-2.1586,-2.7319,-3.0105,-3.1682,-3.2139,-3.3171,-3.2894,-3.0151,-2.9774,-2.977,-2.977,-2.9833,-2.9643,-2.9224,-2.9227,-2.9412,-2.9802,-2.9792,-2.9616,-2.9214,-2.9631,-2.7328,-2.225,-2.3656,-2.3124,-2.0595,-2.0575,-2.0566,-2.0615,-1.985,-1.8982,-1.7986,-1.8203,-1.8222,-1.8014,-1.8165,-1.7954,-1.751,-1.7725,-1.7647,-1.7432,-1.6564,-1.6752,-1.7328,0.0,0.0,0.0,0.0,0.0,0.0,0.0,-2.2185,-2.211,-2.211,-2.2642,-2.2731,-2.2011,-2.25,-2.3156,0.0,0.0,0.0,0.0,0.0,0.0,0.0,0.0,0.0,-2.8481,-2.887,-2.9332,-2.9764,0.0,-2.9486,-2.9858,-2.9257,-2.8966,-2.8966,-2.8966,-2.9134,-2.9419,-2.9313,-2.9026,-2.8536,-2.8098,-2.7708,-2.7348,0.0,0.0,0.0,0.0,-3.0081,-3.1887,-3.4368,-3.8561,-4.2984,-4.454,-4.635,-4.8073,-4.8819,-4.9803,-5.0718,-5.1091,-5.1193,-5.1197,-5.1321,-5.0185,-4.7759,-4.3031,-3.4034,-2.6393,-2.5409,-2.4217,-2.2857,-2.1346,-2.0313,-2.0522,-2.3088,-2.8023,-3.1047,-2.9674,-3.1751,-3.2515,-3.012,-2.9829,-2.9796,-2.9796,-2.9809,-2.977,-2.9779,-2.9795,-2.9783,-2.9783,-2.9783,-2.9783,-2.9783,-2.9781,-2.8118,-2.4548,-2.5111,-2.4447,-2.2501,-2.1195,-2.0574,-2.0624,-2.0197,-1.9226,-1.8018,-1.8489,-1.854,-1.833,-1.8545,-1.8389,-1.8008,-1.8008,-1.8269,-1.8654,-1.8152,-1.8287,-1.8586,0.0,0.0,0.0,0.0,0.0,0.0,0.0,-2.2316,-2.2427,-2.2313,-2.2963,-2.3012,-2.2018,-2.2809,-2.346,0.0,0.0,0.0,0.0,0.0,0.0,0.0,0.0,0.0,0.0,0.0,0.0,-3.0107,-2.964,0.0,0.0,0.0,0.0,0.0,-2.9359,-2.954,-2.9799,-2.9343,-2.8987,0.0,0.0,-2.7868,-2.7747,0.0,0.0,0.0,0.0,-3.0619,-3.2779,-3.3021,-3.6043,-4.0358,-4.3666,-4.6607,-4.8829,-4.9297,-5.1055,-5.2605,-5.1919,-5.1719,-5.1804,-5.2388,-4.9803,-4.4916,-3.6471,-3.0509,-2.6516,-2.5881,-2.578,-2.5045,-2.2735,-2.1175,-2.0268,-2.0251,-2.5449,-2.867,-2.6249,-2.9156,-3.1395,-3.1081,-3.0986,-3.0724,-2.9844,-2.9808,-2.9795,-2.9795,-2.9806,-2.9792,-2.9792,-2.9792,-2.9792,-2.9792,-2.9792,-2.911,-2.7578,-2.6245,-2.5136,-2.4086,-2.2125,-2.1141,-2.1018,-2.0988,-2.0226,-1.8908,-1.9578,-1.9171,-1.8184,-1.8506,-1.8389,-1.8008,-1.8202,-1.8721,-1.9299,-1.9497,-1.9562,-1.9562,0.0,0.0,0.0,0.0,0.0,0.0,0.0,-2.1875,-2.1895,-2.1463,-2.2014,-2.2551,-2.2927,-2.3222,-2.3663,0.0,0.0,0.0,0.0,0.0,0.0,0.0,0.0,0.0,0.0,0.0,0.0,-3.0107,-3.0019,0.0,0.0,0.0,0.0,0.0,0.0,-2.8861,-2.8333,-2.8816,0.0,0.0,0.0,0.0,0.0,0.0,0.0,0.0,0.0,-2.92,-2.9448,-2.9455,-2.9834,-3.0925,-3.4633,-4.1393,-4.775,-4.6481,-4.8182,-5.0837,-5.2725,-5.3314,-5.2632,-5.0023,-4.5111,-3.9273,-3.3014,-2.9061,-2.5939,-2.3273,-2.2677,-2.2615,-2.2371,-2.2174,-2.2053,-2.2071,-2.266,-2.2498,-2.0691,-2.6823,-3.2349,-3.4693,-3.501,-3.3605,-3.013,-2.9826,-2.9802,-2.9802,-2.977,-2.9792,-2.9792,-2.9792,-2.9792,-2.9792,-2.9792,-2.8504,-2.5878,-2.5657,-2.4889,-2.3582,-2.3356,-2.2941,-2.2336,-2.2363,-2.2143,-2.1816,-2.1586,-2.0438,-1.8783,-1.8643,-1.8389,-1.8076,-1.8854,-1.9243,-1.9431,-2.0204,-2.0462,-2.0462,0.0,0.0,0.0,0.0,0.0,0.0,-2.2032,-2.2346,-2.2528,-2.2335,-2.3032,-2.36,-2.3681,-2.362,-2.4026,-2.5053,0.0,0.0,0.0,0.0,0.0,0.0,0.0,0.0,0.0,0.0,-2.9047,-3.0107,-3.056,0.0,0.0,0.0,0.0,0.0,0.0,-2.8913,-2.8628,-2.8395,0.0,0.0,0.0,0.0,0.0,0.0,0.0,0.0,0.0,0.0,-2.9002,-2.9011,-3.0499,-3.2255,-3.1476,-3.4705,-3.9344,-4.2432,-4.4997,-4.7488,-5.0816,-5.2597,-5.2793,-4.9751,-4.4527,-3.8564,-3.2562,-2.8185,-2.4777,-2.272,-2.2302,-2.2303,-2.2287,-2.2283,-2.2308,-2.2294,-2.2297,-2.1692,-1.9959,-2.3775,-2.8946,-3.4794,-3.5485,-3.4919,-3.3378,-3.3245,-3.2252,-2.9936,-2.9833,-2.9792,-2.9792,-2.9792,-2.9792,-2.9792,-2.9792,-2.9021,-2.7466,-2.7236,-2.6538,-2.5366,-2.4699,-2.4162,-2.3713,-2.3672,-2.3474,-2.3044,-2.3273,-2.2138,-2.0031,-1.994,-1.9594,-1.9155,-1.9281,-1.9944,-2.091,-2.1239,-2.1365,-2.1365,0.0,0.0,0.0,0.0,0.0,-2.2209,-2.1945,-2.2378,-2.2683,-2.2598,-2.3374,-2.4042,-2.4382,-2.4245,-2.4574,-2.5646,-2.5462,0.0,0.0,0.0,0.0,0.0,0.0,0.0,0.0,0.0,-2.936,-3.0107,-3.0622,-3.0615,0.0,0.0,-2.9583,-2.8636,0.0,0.0,0.0,0.0,0.0,0.0,0.0,0.0,0.0,0.0,0.0,0.0,0.0,0.0,0.0,0.0,0.0,-3.1575,-2.8945,-2.9581,-3.231,-3.7619,-4.1201,-4.4113,-4.7206,-4.975,-5.0992,-4.8877,-4.4215,-3.8706,-3.3379,-2.8764,-2.5095,-2.3312,-2.2605,-2.231,-2.231,-2.231,-2.231,-2.231,-2.2291,-2.1869,-2.0656,-2.2269,-2.5667,-3.1337,-3.4063,-3.5477,-3.5484,-3.4496,-3.2691,-2.9999,-2.9781,-2.9792,-2.9792,-2.9792,-2.9792,-2.9792,-2.9792,-2.949,-2.88,-2.8449,-2.7866,-2.7063,-2.6094,-2.5672,-2.5569,-2.5262,-2.4897,-2.4482,-2.456,-2.3273,-2.1037,-2.1161,-2.0669,-1.9928,-1.9997,-2.0846,-2.1939,-2.2199,-2.2249,-2.2249,0.0,0.0,0.0,0.0,0.0,0.0,-2.1166,-2.1566,-2.1937,-2.1747,-2.2319,-2.3346,-2.5026,-2.5195,-2.541,-2.5933,-2.4597,0.0,0.0,0.0,0.0,0.0,0.0,0.0,0.0,0.0,-2.9362,-3.0107,-3.0133,-3.0125,-3.0108,-3.0108,-2.9296,-2.7806,0.0,0.0,0.0,0.0,0.0,0.0,0.0,0.0,0.0,0.0,0.0,0.0,0.0,0.0,0.0,0.0,0.0,0.0,0.0,-2.6922,0.0,0.0,-3.6655,-4.0957,-4.2106,-4.457,-4.6853,-4.6819,-4.342,-3.9089,-3.5334,-3.1198,-2.7449,-2.4987,-2.3306,-2.231,-2.231,-2.231,-2.231,-2.231,-2.2282,-2.2274,-2.2279,-2.3054,-2.3616,-2.3691,-3.0701,-3.5475,-3.5468,-3.2065,-2.9843,-2.9774,-2.9821,-2.9792,-2.9792,-2.9792,-2.9792,-2.9792,-2.9792,-2.9515,-2.8938,-2.8925,-2.8649,-2.8097,-2.7544,-2.757,-2.8059,-2.6954,-2.6466,-2.6396,-2.5433,-2.3724,-2.169,-2.1923,-2.1141,-2.0065,-2.136,-2.1877,-2.2013,-2.2823,-2.3078,-2.3078,0.0,0.0,0.0,0.0,0.0,0.0,0.0,-2.1972,-2.1991,-2.1914,-2.1988,-2.2449,-2.3629,-2.3755,-2.4144,-2.5079,-2.4479,0.0,0.0,0.0,0.0,0.0,0.0,0.0,0.0,0.0,-3.0099,-3.0858,-3.083,-3.0501,-2.9797,-2.9124,-2.8176,-2.7046,-2.7046,-2.6911,0.0,0.0,0.0,0.0,0.0,0.0,-2.5823,0.0,0.0,0.0,0.0,0.0,0.0,0.0,0.0,0.0,0.0,0.0,0.0,-2.717,-3.1268,-3.5813,-3.7963,-3.9952,-4.1339,-4.0849,-3.8108,-3.481,-3.2104,-2.8471,-2.5346,-2.4254,-2.3095,-2.231,-2.231,-2.231,-2.2288,-2.2308,-2.2295,-2.2302,-2.2297,-2.5163,-2.7064,-2.6411,-2.9356,-3.2537,-3.5255,-3.4414,-3.2596,-2.9986,-2.9804,-2.9821,-2.9779,-2.9808,-2.9796,-2.9792,-2.9792,-2.9704,-2.9528,-2.9126,-2.9038,-2.9252,-2.8298,-2.8134,-2.8637,-2.7519,-2.7072,-2.7021,-2.6355,-2.5204,-2.3916,-2.3247,-2.2715,-2.2239,-2.2409,-2.2805,-2.3343,-2.3592,-2.3728,-2.3665,0.0,0.0,0.0,0.0,0.0,0.0,0.0,-2.1931,-2.1826,-2.1761,-2.1776,-2.213,-2.3028,-2.3478,-2.4032,-2.4746,-2.443,0.0,0.0,0.0,0.0,0.0,0.0,0.0,0.0,-3.0217,-3.0734,-3.119,-3.119,-3.0688,-2.9692,-2.907,-2.802,-2.6724,-2.7114,-2.7063,0.0,0.0,0.0,0.0,0.0,0.0,-2.4585,0.0,0.0,0.0,0.0,0.0,0.0,0.0,0.0,0.0,0.0,0.0,0.0,0.0,-2.7465,-3.0647,-3.3165,-3.5766,-3.7473,-3.6463,-3.4355,-3.1975,-2.9756,-2.6556,-2.393,-2.335,-2.2745,-2.231,-2.231,-2.231,-2.2288,-2.232,-2.3224,-2.3684,-2.2959,-2.6666,-2.9362,-2.9095,-2.9798,-3.1665,-3.5164,-3.5511,-3.4531,-3.2107,-3.0637,-2.9771,-2.9779,-2.9429,-2.8938,-2.8568,-2.9351,-2.9834,-2.9834,-2.9139,-2.9013,-2.9453,-2.8323,-2.8084,-2.8586,-2.7469,-2.708,-2.7256,-2.6703,-2.5955,0.0,-2.4498,-2.4001,-2.3605,-2.3555,-2.3836,-2.4293,-2.4067,-2.4004,-2.3978,0.0,0.0,0.0,0.0,0.0,0.0,0.0,-2.1612,-2.1517,-2.1346,-2.1679,-2.2205,-2.301,-2.4061,-2.4734,-2.4746,0.0,0.0,0.0,0.0,0.0,0.0,0.0,0.0,0.0,-3.0501,-3.123,-3.119,-3.119,-3.0678,-2.9635,-2.969,-2.8639,-2.6768,-2.7755,-2.7605,0.0,0.0,0.0,0.0,0.0,0.0,0.0,0.0,0.0,0.0,0.0,0.0,0.0,0.0,0.0,0.0,0.0,0.0,0.0,0.0,0.0,0.0,0.0,-3.1668,-3.4507,-3.3148,-3.1701,-3.0106,-2.7979,-2.5338,0.0,-2.2474,-2.2321,-2.2338,-2.24,-2.2338,-2.2304,-2.231,-2.4689,-2.6004,-2.4386,-2.7786,-3.079,-3.1639,-3.1754,-3.2751,-3.5241,-3.5479,-3.5463,-3.5484,-3.2187,-3.0049,-2.9792,-2.8712,-2.7618,-2.653,-2.8475,-2.9616,-2.9667,-2.9051,-2.8787,-2.885,-2.7833,-2.7607,-2.8072,-2.7005,-2.6804,-2.7256,-2.6703,-2.6013,-2.5169,-2.5475,-2.5117,-2.4446,-2.4731,-2.487,-2.4808,-2.4318,-2.4117,-2.414,0.0,0.0,0.0,0.0,0.0,0.0,0.0,0.0,0.0,0.0,-2.1357,-2.1649,-2.2687,-2.3572,-2.4133,0.0,0.0,0.0,0.0,0.0,0.0,0.0,0.0,0.0,-2.9837,-3.1045,-3.1507,-3.119,-3.119,-3.0381,-2.8817,-2.9415,-2.8674,-2.6887,-2.7578,-2.7452,0.0,0.0,0.0,0.0,0.0,0.0,0.0,0.0,0.0,0.0,-2.236,-2.2332,0.0,0.0,0.0,0.0,0.0,0.0,0.0,0.0,-2.3664,-2.3872,-2.441,0.0,-2.7414,-2.7063,-2.6099,-2.5108,0.0,-2.346,-2.2581,-2.2598,0.0,-2.2799,-2.3345,-2.2825,-2.2295,-2.2304,-2.3833,-2.5641,-2.7513,-3.085,-3.3307,-3.385,-3.4312,-3.4829,-3.5442,-3.548,-3.5472,-3.5519,-3.4683,-3.2869,-2.9959,-2.8712,-2.7594,-2.6504,-2.7028,-2.7651,-2.8459,-2.8725,-2.8625,-2.8298,-2.8034,-2.7984,-2.8084,-2.7394,-2.7155,-2.7256,-2.6703,-2.6701,-2.7018,-2.6013,-2.5838,-2.6206,-2.5646,-2.541,-2.5413,-2.5445,-2.5475,-2.5393,0.0,0.0,0.0,0.0,0.0,0.0,0.0,0.0,0.0,0.0,0.0,0.0,0.0,0.0,0.0,0.0,0.0,0.0,0.0,0.0,0.0,0.0,0.0,-2.957,-3.0091,-3.1035,-3.1581,-3.1698,-3.1822,-3.1167,-2.9748,-3.0275,-2.9699,-2.8173,-2.7559,-2.7061,0.0,0.0,0.0,0.0,-2.6556,0.0,0.0,0.0,0.0,0.0,-2.231,-2.231,0.0,-2.2436,-2.2473,-2.2554,0.0,0.0,0.0,0.0,-2.3414,-2.3459,-2.3628,-2.3993,-2.4322,-2.4472,-2.3967,-2.348,-2.3596,0.0,0.0,0.0,0.0,0.0,-2.305,-2.2672,-2.2417,-2.2736,-2.4025,-2.6266,-2.9997,-3.1232,-3.2577,-3.4872,-3.479,-3.4844,-3.5459,-3.5473,-3.5504,-3.5504,-3.5053,-3.369,-3.1206,-2.9572,-2.8231,-2.7005,-2.6949,-2.7402,-2.8582,-2.8091,-2.7968,-2.8312,-2.767,-2.7356,-2.7344,-2.7436,-2.749,-2.7477,-2.7169,-2.755,-2.822,-2.7065,-2.6817,-2.7261,-2.7183,-2.6935,-2.662,-2.684,-2.6748,-2.6505,0.0,0.0,0.0,0.0,0.0,0.0,0.0,0.0,0.0,0.0,0.0,0.0,0.0,0.0,0.0,0.0,0.0,0.0,0.0,0.0,0.0,0.0,0.0,-2.9386,-3.0019,-3.0862,-3.1557,-3.2121,-3.2391,-3.2066,-3.1215,-3.1285,-3.0675,-2.9374,-2.7643,-2.679,0.0,0.0,0.0,-2.5828,-2.6437,0.0,0.0,0.0,0.0,0.0,0.0,0.0,0.0,-2.2608,-2.2746,-2.2848,-2.3165,0.0,0.0,0.0,0.0,0.0,-2.4054,-2.3891,-2.366,-2.3746,-2.3552,-2.339,-2.3604,0.0,0.0,0.0,0.0,0.0,0.0,-2.253,-2.2815,-2.3607,-2.5283,-2.793,-3.2201,-3.1252,-3.1461,-3.5179,-3.454,-3.4164,-3.5108,-3.5404,-3.5444,-3.5359,-3.4644,-3.3749,-3.2726,-3.0897,-2.9305,-2.7908,-2.769,-2.8088,-2.9161,-2.7639,-2.7341,-2.8341,-2.7259,-2.6589,-2.6521,-2.7229,-2.755,-2.755,-2.767,-2.8182,-2.8939,-2.8182,-2.7986,-2.8168,-2.8652,-2.842,-2.7773,-2.7954,-2.7736,-2.7265,0.0,0.0,0.0,0.0,0.0,0.0,0.0,0.0,0.0,0.0,0.0,0.0,0.0,0.0,0.0,0.0,0.0,0.0,0.0,0.0,0.0,-2.8645,-2.923,-2.9573,-2.9762,-3.1028,-3.1596,-3.136,-3.1474,-3.1434,-3.1378,-3.0826,-2.9772,-2.8312,-2.7844,-2.7282,-2.6691,-2.6691,-2.6623,-2.6539,-2.664,0.0,0.0,0.0,0.0,0.0,0.0,0.0,0.0,-2.2695,-2.2898,-2.3165,-2.3522,0.0,0.0,0.0,0.0,0.0,-2.3756,-2.3978,-2.4042,-2.3453,-2.2877,-2.2494,-2.253,-2.2479,0.0,0.0,0.0,0.0,-2.3533,-2.3651,-2.4005,-2.5101,-2.8122,-3.1462,-3.4651,-3.4809,-3.4874,-3.5663,-3.5416,-3.4826,-3.3876,-3.4829,-3.5239,-3.468,-3.503,-3.4589,-3.3115,-3.2225,-3.1006,-2.9285,-2.8932,-2.8835,-2.9054,-2.8492,-2.8088,-2.7788,-2.7577,-2.7162,-2.6533,-2.6658,-2.6658,-2.6714,-2.7417,-2.8182,-2.9002,-2.8876,-2.9254,-2.9771,-2.8622,-2.8044,-2.792,-2.754,-2.7341,-2.7391,0.0,0.0,0.0,0.0,0.0,0.0,0.0,0.0,0.0,0.0,0.0,0.0,0.0,0.0,0.0,0.0,0.0,0.0,0.0,0.0,0.0,-2.9495,-3.0145,-3.0483,-3.0488,-3.115,-3.1393,-3.12,-3.1281,-3.1638,-3.2196,-3.0967,-2.9416,-2.764,-2.7866,-2.7473,-2.6691,-2.6691,-2.6691,-2.6691,0.0,0.0,0.0,0.0,0.0,0.0,0.0,0.0,0.0,0.0,-2.3346,-2.3522,-2.3858,0.0,0.0,0.0,0.0,0.0,-2.3976,-2.3835,-2.3625,-2.3277,-2.3613,-2.388,-2.3292,-2.3281,0.0,0.0,0.0,-2.3532,-2.4118,-2.4555,-2.5656,-2.8201,-3.004,-3.2053,-3.4643,-3.4002,-3.3746,-3.4899,-3.4705,-3.445,-3.459,-3.4811,-3.4853,-3.451,-3.443,-3.3883,-3.2594,-3.1953,-3.1055,-2.9713,-2.92,-2.9254,-2.969,-2.9582,-2.9329,-2.9129,-2.862,-2.8247,-2.7855,-2.8363,-2.8556,-2.8556,-2.8939,-2.9566,-3.03,-2.9458,-2.9576,-3.0228,-2.9261,-2.8783,-2.863,-2.8184,-2.824,-2.8568,0.0,0.0,0.0,0.0,0.0,0.0,0.0,0.0,0.0,0.0,0.0,0.0,0.0,0.0,0.0,0.0,0.0,0.0,0.0,0.0,-2.7575,-2.9985,-3.1009,-3.1461,-3.1221,-3.1439,-3.1775,-3.224,-3.1857,-3.1822,-3.2112,-3.0973,-2.9281,-2.7243,-2.7681,-2.7403,-2.6556,-2.6556,-2.6556,-2.6556,0.0,0.0,0.0,0.0,0.0,0.0,0.0,0.0,0.0,0.0,0.0,0.0,0.0,0.0,0.0,-2.419,-2.4133,-2.4074,-2.4074,-2.3732,-2.3316,-2.3146,-2.3927,-2.4662,-2.4378,-2.4455,-2.4796,-2.5506,-2.5224,-2.4805,-2.478,-2.5677,-2.7458,-3.0685,-3.1747,-3.2824,-3.4742,-3.3572,-3.3137,-3.4715,-3.4355,-3.4282,-3.5209,-3.479,-3.4355,-3.4038,-3.3694,-3.3087,-3.2271,-3.1776,-3.1113,-3.0146,-2.9764,-2.9827,-3.0329,-3.0305,-3.0305,-3.0269,-2.9628,-2.9192,-2.9002,-2.969,-3.0011,-3.0011,-3.0208,-3.0644,-3.1102,-3.0017,-2.99,-3.0294,-2.9614,-2.9208,-2.8839,-2.85,-2.8834,-2.9562,0.0,0.0,0.0,0.0,0.0,0.0,0.0,0.0,0.0,0.0,0.0,0.0,0.0,0.0,0.0,0.0,0.0,0.0,0.0,0.0,-2.7952,-3.0002,-3.1713,-3.2162,-3.1221,-3.2118,-3.3499,-3.5274,-3.3529,-3.1734,-2.9863,-3.032,-2.931,-2.7185,-2.7294,-2.687,-2.6049,-2.6049,-2.6049,-2.6085,-2.6505,0.0,0.0,0.0,0.0,0.0,0.0,0.0,0.0,0.0,0.0,0.0,0.0,0.0,-2.419,-2.419,-2.3976,-2.3753,-2.3753,-2.3779,-2.3675,-2.2911,-2.2623,-2.3045,-2.5014,-2.5503,0.0,-2.731,-2.7547,-2.7114,-2.5765,-2.7295,-2.9297,-3.0924,-3.3491,-3.556,-3.6411,-3.6375,-3.6246,-3.6417,-3.5808,-3.5179,-3.4643,-3.452,-3.3963,-3.2751,-3.3185,-3.323,-3.2482,-3.2407,-3.1972,-3.1161,-3.1219,-3.097,-3.0329,-3.0395,-3.0409,-3.0329,-3.0269,-2.9766,-2.9002,-2.9066,-2.9066,-2.9129,-2.995,-3.0329,-3.0406,-3.0421,-3.041,-3.0391,-2.9175,-2.8308,-2.7718,-2.7679,-2.8429,-2.9396,0.0,0.0,0.0,0.0,0.0,0.0,0.0,0.0,0.0,0.0,0.0,0.0,0.0,0.0,0.0,0.0,0.0,0.0,0.0,-2.7097,-2.8251,-3.0691,-3.1436,-3.2173,-3.3059,-3.4016,-3.4856,-3.5579,-3.3191,-3.1021,-2.9149,-2.9419,-2.8511,-2.6714,-2.6714,-2.6265,-2.5486,-2.5266,-2.5319,-2.5486,-2.5473,-2.5497,0.0,0.0,0.0,0.0,0.0,0.0,0.0,0.0,-2.4094,-2.419,-2.419,-2.419,-2.419,-2.419,-2.4113,-2.4016,-2.4016,-2.4091,-2.3971,-2.319,-2.3005,0.0,0.0,-2.664,-2.7249,-2.8319,-2.927,-2.9607,-2.8598,-2.9487,-3.084,-3.232,-3.3528,-3.4854,-3.6453,-3.5882,-3.5314,-3.5286,-3.5052,-3.4592,-3.3965,-3.3484,-3.3051,-3.2557,-3.2362,-3.2168,-3.1913,-3.1898,-3.1514,-3.0821,-3.083,-3.0532,-2.9891,-2.9933,-2.9933,-2.9891,-3.0275,-3.0264,-2.9973,-3.038,-3.0524,-3.0584,-3.0896,-3.1029,-3.1013,-3.0246,-3.0163,-3.0372,-2.9101,-2.8429,-2.814,-2.814,-2.8904,-2.9935,0.0,0.0,0.0,0.0,0.0,0.0,0.0,0.0,0.0,0.0,0.0,0.0,0.0,0.0,0.0,0.0,0.0,0.0,-2.6877,-2.6925,-2.7906,-3.0407,-3.073,-3.1602,-3.3209,-3.4772,-3.5596,-3.5622,-3.2852,-3.0616,-2.8881,-2.8607,-2.7834,-2.6701,-2.6535,-2.614,-2.5543,-2.51,-2.5061,-2.5251,-2.4948,-2.4975,0.0,0.0,0.0,0.0,0.0,0.0,0.0,0.0,-2.419,-2.419,-2.419,-2.419,-2.419,-2.419,-2.419,-2.419,-2.419,-2.4068,-2.3837,-2.333,0.0,0.0,-2.686,-2.7824,-2.8651,-3.0386,-3.0847,-3.0998,-3.1117,-3.0861,-3.1158,-3.2811,-3.3334,-3.4007,-3.5497,-3.4798,-3.4196,-3.418,-3.4177,-3.3903,-3.3245,-3.2587,-3.2198,-3.2198,-3.1584,-3.121,-3.121,-3.121,-3.0911,-3.0238,-3.0223,-3.0013,-2.9579,-2.937,-2.9265,-2.928,-2.9699,-3.0118,-3.0522,-3.1001,-3.121,-3.121,-3.121,-3.1106,-3.0836,-2.9729,-2.9385,-2.9544,-2.88,-2.8568,-2.8511,-2.8685,-2.9406,-3.0293,0.0,0.0,0.0,0.0,0.0,0.0,0.0,0.0,0.0,0.0,0.0,0.0,0.0,0.0,0.0,0.0,0.0,0.0,-2.6168,-2.6112,-2.6883,-2.8898,-2.9671,-3.0446,-3.119,-3.4066,-3.5579,-3.5526,-3.2798,-3.0584,-2.8862,-2.8015,-2.7561,-2.7396,-2.6877,-2.6546,-2.6346,-2.5666,-2.5416,-2.5381,-2.5235,-2.5486,-2.5878,0.0,0.0,0.0,0.0,0.0,0.0,0.0,-2.419,-2.419,-2.419,-2.419,-2.419,-2.419,-2.419,-2.419,-2.419,-2.3732,-2.3206,-2.3206,0.0,0.0,-2.8334,-2.9028,-3.004,-3.3728,-3.2319,-3.1024,-3.3035,-3.1194,-3.0084,-3.2056,-3.2982,-3.3456,-3.3508,-3.3475,-3.3484,-3.3484,-3.3484,-3.323,-3.2572,-3.1855,-3.1467,-3.1467,-3.0881,-3.0492,-3.0492,-3.0492,-3.0208,-2.9594,-2.9564,-2.9564,-2.9564,-2.8921,-2.8592,-2.8592,-2.8592,-2.925,-3.0477,-3.0492,-3.0492,-3.0492,-3.0492,-3.0148,-2.9535,-2.8876,-2.8188,-2.7675,-2.8286,-2.8511,-2.8606,-2.918,-2.9805,-3.0293,0.0,0.0,0.0,0.0,0.0,0.0,0.0,0.0,0.0,0.0,0.0,0.0,0.0,0.0,0.0,0.0,0.0,0.0,-2.5622,-2.5754,-2.6635,-2.8476,-2.8379,-2.9032,-3.068,-3.2718,-3.2541,-2.9973,-3.008,-2.9427,-2.8002,-2.8974,-2.8737,-2.7527,-2.7384,-2.6744,-2.5772,-2.5108,-2.4836,-2.482,-2.4668,-2.4664,-2.462,0.0,0.0,0.0,0.0,0.0,0.0,0.0,0.0,0.0,-2.419,-2.419,-2.419,-2.419,-2.419,-2.419,-2.419,-2.4086,-2.3972,-2.3972,-2.5029,-2.6556,0.0,-2.9397,0.0,-3.3838,-3.3417,-3.2557,-3.2586,-3.1951,-3.1485,-3.1662,-3.1901,-3.2353,-3.3335,-3.3059,-3.2823,-3.2823,-3.2811,-3.2542,-3.1884,-3.121,-3.0806,-3.0806,-3.0223,-2.9864,-2.9864,-2.9864,-2.9564,-2.8906,-2.8891,-2.8652,-2.8225,-2.7979,-2.7874,-2.7874,-2.7874,-2.8323,-2.9175,-2.9639,-2.9864,-2.9864,-2.9864,-2.9759,-2.9535,-2.8876,-2.8444,-2.8238,-2.8415,-2.9012,-2.9696,-2.9365,-2.9633,-3.0096,0.0,0.0,0.0,0.0,0.0,0.0,0.0,0.0,0.0,0.0,0.0,0.0,0.0,0.0,0.0,0.0,0.0,0.0,0.0,-2.5144,-2.5998,-2.781,-2.7589,-2.835,-3.029,-3.1436,-3.0752,-2.8102,-2.9663,-2.9462,-2.7638,-2.978,-3.0005,-2.8622,-2.8171,-2.7545,-2.6737,-2.5794,-2.5529,-2.5697,-2.5025,-2.5005,-2.5232,0.0,0.0,0.0,0.0,0.0,0.0,0.0,0.0,0.0,-2.43,-2.419,-2.419,-2.419,-2.4094,-2.3996,-2.3996,-2.4068,-2.4279,-2.4865,-2.631,-2.8026,-2.9549,-3.0931,-3.2488,-3.4543,-3.3785,-3.2816,-3.3196,-3.2118,-3.1384,-3.1832,-3.1643,-3.1725,-3.2609,-3.2368,-3.2116,-3.2116,-3.2092,-3.1973,-3.1511,-3.0687,-3.0238,-3.0477,-2.9684,-2.919,-2.919,-2.919,-2.8891,-2.8203,-2.8188,-2.7993,-2.7625,-2.7625,-2.7625,-2.7625,-2.7625,-2.7784,-2.8218,-2.8891,-2.919,-2.9175,-2.9139,-2.9033,-2.8794,-2.8885,-2.8737,-2.8559,-2.9012,-2.9673,-3.0252,-2.9746,-2.9789,-2.9989,0.0,0.0,0.0,0.0,0.0,0.0,0.0,0.0,0.0,0.0,0.0,0.0,0.0,0.0,0.0,0.0,0.0,0.0,0.0,0.0,-2.5168,-2.6888,-2.7246,-2.8247,-3.0085,-3.0244,-2.9894,-2.9022,-3.0763,-3.0342,-2.8002,-3.0464,-3.1072,-3.0181,-2.9109,-2.8704,-2.8606,-2.7205,-2.6974,-2.747,-2.6029,-2.6149,-2.6953,-2.5452,0.0,0.0,0.0,0.0,0.0,0.0,0.0,0.0,-2.4649,-2.441,-2.4392,-2.4318,-2.4105,-2.3825,-2.3732,-2.3861,-2.4393,-2.5858,-2.781,-2.977,-3.1269,-3.3129,-3.4673,-3.5205,-3.3546,-3.2477,-3.4182,-3.1972,-3.0413,-3.2182,-3.1951,-3.1452,-3.1392,-3.142,-3.139,-3.1302,-3.1302,-3.1375,-3.1377,-3.0253,-2.9744,-3.0372,-2.9235,-2.8502,-2.8502,-2.8502,-2.8218,-2.764,-2.7625,-2.7625,-2.7625,-2.7625,-2.7625,-2.7625,-2.7625,-2.7595,-2.75,-2.8188,-2.8502,-2.8524,-2.8514,-2.8189,-2.776,-2.8825,-2.9041,-2.8764,-2.9702,-3.0236,-3.0336,-3.0,-2.9939,-2.9888,0.0,0.0,0.0,0.0,0.0,0.0,0.0,0.0,0.0,0.0,0.0,0.0,0.0,0.0,0.0,0.0,0.0,0.0,0.0,0.0,-2.4987,-2.5894,-2.7488,-2.8935,-3.0212,-2.9431,-2.9316,-3.0003,-3.108,-3.1311,-3.0751,-3.1293,-3.1041,-3.0196,-2.9642,-2.9372,-2.9208,-2.7387,-2.721,-2.8092,-2.6624,-2.6469,-2.6991,-2.5848,-2.5494,0.0,0.0,0.0,0.0,0.0,0.0,0.0,-2.6033,-2.608,-2.597,-2.5328,-2.5106,-2.4839,-2.3937,-2.4397,-2.5435,-2.6649,-2.974,-3.2698,-3.3677,-3.386,-3.3528,-3.2447,-3.3203,-3.3831,-3.3096,-3.2342,-3.1867,-3.1727,-3.1582,-3.1345,-3.0806,-3.0719,-3.0533,-3.0028,-2.9998,-3.0193,-3.0672,-2.9564,-2.9086,-2.9729,-2.8547,-2.785,-2.785,-2.785,-2.7775,-2.7625,-2.7625,-2.7625,-2.7625,-2.7625,-2.7625,-2.7625,-2.7625,-2.7305,-2.6826,-2.7485,-2.785,-2.7835,-2.8299,-2.8431,-2.8336,-2.8487,-2.907,-2.9821,-2.8919,-2.9563,-3.078,-2.8989,-2.8704,-2.9025,0.0,0.0,0.0,0.0,0.0,0.0,0.0,0.0,0.0,0.0,0.0,0.0,0.0,0.0,0.0,0.0,0.0,0.0,0.0,0.0,-2.5367,-2.6039,-2.7659,-2.8859,-2.9462,-2.8904,-2.907,-2.9955,-3.0731,-3.1029,-3.0952,-3.1692,-3.1394,-3.0158,-2.9798,-2.9403,-2.9002,-2.7966,-2.7829,-2.8297,-2.7445,-2.7246,-2.7334,-2.6455,-2.6133,-2.6115,-2.5883,0.0,0.0,0.0,0.0,0.0,0.0,0.0,-2.5663,-2.5245,-2.4762,-2.4216,-2.3629,-2.447,-2.6226,-2.8973,-3.1805,-3.3883,-3.3711,-3.3631,-3.3067,-3.1285,-3.2109,-3.2904,-3.2161,-3.1732,-3.1435,-3.1091,-3.0768,-3.047,-3.0133,-3.0081,-2.9954,-2.9648,-2.9579,-2.9699,-3.0028,-2.9175,-2.8742,-2.9086,-2.7859,-2.7096,-2.7096,-2.6797,-2.6632,-2.6632,-2.6632,-2.6632,-2.6632,-2.6632,-2.6632,-2.6632,-2.6632,-2.6796,-2.7037,-2.7387,-2.7722,-2.8076,-2.8588,-2.8672,-2.8399,-2.8565,-2.9066,-2.9708,-2.8871,-2.9408,-3.0446,-2.8535,-2.8078,-2.8264,0.0,0.0,0.0,0.0,0.0,0.0,0.0,0.0,0.0,0.0,0.0,0.0,0.0,0.0,0.0,0.0,0.0,0.0,0.0,0.0,0.0,-2.6916,-2.8091,-2.8813,-2.9117,-2.8974,-2.9244,-2.9961,-3.0308,-3.0458,-3.0443,-3.1803,-3.1698,-3.0395,-2.9864,-2.9319,-2.8906,-2.8526,-2.8372,-2.8415,-2.8095,-2.7898,-2.7705,-2.6979,-2.6673,-2.6638,-2.6774,-2.6965,-2.7118,-2.6601,0.0,0.0,0.0,0.0,-2.5297,-2.5171,-2.4403,-2.356,-2.3364,-2.4516,-2.681,-3.1038,-3.3102,-3.3812,-3.2676,-3.2837,-3.2668,-3.0758,-3.0866,-3.1345,-3.136,-3.0806,-3.0342,-3.0342,-2.9918,-2.9575,-2.9445,-2.9448,-2.9395,-2.9274,-2.9235,-2.928,-2.94,-2.8816,-2.8472,-2.8592,-2.735,-2.6587,-2.6587,-2.5959,-2.5615,-2.5615,-2.5615,-2.5615,-2.5615,-2.5615,-2.5615,-2.5615,-2.5588,-2.6214,-2.7453,-2.7418,-2.7825,-2.8483,-2.8864,-2.8722,-2.8281,-2.867,-2.8955,-2.9141,-2.876,-2.9127,-2.9736,-2.825,-2.7793,-2.781,0.0,0.0,0.0,0.0,0.0,0.0,0.0,0.0,0.0,0.0,0.0,0.0,0.0,0.0,0.0,0.0,0.0,0.0,-2.5361,0.0,0.0,-2.8278,-2.9057,-3.0023,-3.1195,-3.0567,-3.0613,-3.1334,-3.0779,-3.0776,-3.1315,-3.158,-3.1522,-3.1258,-3.0118,-2.9826,-3.0135,-2.844,-2.8264,-2.896,-2.7807,-2.7496,-2.7705,-2.6979,-2.6514,-2.6359,-2.6968,-2.7068,-2.6939,-2.7459,-2.7699,0.0,0.0,0.0,-2.7351,-2.6667,-2.5844,-2.4988,-2.4059,-2.5167,-2.7317,-3.0531,-3.1968,-3.242,-3.1819,-3.1742,-3.1388,-2.9977,-3.0218,-3.0623,-3.0627,-3.0118,-2.9699,-2.9699,-2.9681,-2.938,-2.8786,-2.8746,-2.851,-2.7925,-2.7895,-2.8083,-2.8682,-2.8113,-2.7949,-2.8562,-2.735,-2.6587,-2.6587,-2.5959,-2.5615,-2.5615,-2.5615,-2.5615,-2.5615,-2.5615,-2.5615,-2.56,-2.5497,-2.6069,-2.7227,-2.7194,-2.7575,-2.8315,-2.8258,-2.8204,-2.8115,-2.8012,-2.8397,-2.8901,-2.7554,-2.7875,-2.9013,-2.7822,-2.7779,-2.8261,0.0,0.0,0.0,0.0,0.0,0.0,0.0,0.0,0.0,0.0,0.0,0.0,0.0,0.0,0.0,-2.2588,-2.3285,-2.456,-2.6604,-2.733,-2.7979,-2.8577,-2.922,-2.9877,-3.0456,-3.0493,-3.0879,-3.1579,-3.1218,-3.1438,-3.2135,-3.2073,-3.1884,-3.1452,-3.0926,-3.0208,-2.9422,-2.885,-2.8451,-2.8109,-2.8248,-2.7883,-2.7199,-2.7283,-2.6961,-2.6578,-2.7298,-2.7206,-2.6861,-2.7589,-2.7555,-2.7241,-2.7241,0.0,0.0,0.0,-2.5205,-2.453,-2.4305,-2.5142,-2.6708,-2.9313,-3.0818,-3.1439,-3.0542,-3.0943,-3.1021,-2.9373,-2.9244,-2.9524,-2.9933,-2.946,-2.9026,-2.9026,-2.8426,-2.7931,-2.8045,-2.7705,-2.75,-2.7595,-2.7625,-2.7745,-2.7993,-2.7754,-2.7545,-2.7485,-2.6587,-2.5884,-2.551,-2.4522,-2.4133,-2.4477,-2.4148,-2.4133,-2.4477,-2.4477,-2.4641,-2.4933,-2.516,-2.5951,-2.712,-2.6672,-2.7115,-2.8184,-2.8009,-2.7918,-2.7905,-2.7382,-2.7638,-2.823,-2.7131,-2.7368,-2.8232,-2.756,-2.7511,-2.7785,0.0,0.0,0.0,0.0,0.0,0.0,0.0,0.0,0.0,0.0,0.0,0.0,0.0,0.0,0.0,0.0,-2.3808,-2.539,-2.7632,-2.8121,-2.8568,-2.9071,-2.9549,-2.9909,-3.0073,-3.0522,-3.1041,-3.1574,-3.1498,-3.1977,-3.2849,-3.2583,-3.2332,-3.2018,-3.1616,-3.0522,-2.8884,-2.9139,-2.8497,-2.73,-2.7953,-2.7635,-2.6772,-2.6992,-2.7012,-2.6943,-2.7675,-2.7555,-2.7107,-2.776,-2.747,-2.6841,-2.6725,-2.6499,0.0,0.0,0.0,-2.4408,-2.4703,-2.5169,-2.6116,-2.8197,-2.9533,-3.0101,-2.9081,-2.9664,-2.9966,-2.8419,-2.8076,-2.8238,-2.8756,-2.8449,-2.8083,-2.8083,-2.7111,-2.6572,-2.723,-2.6901,-2.6841,-2.755,-2.7625,-2.7625,-2.7625,-2.7475,-2.7126,-2.6632,-2.5824,-2.5076,-2.4403,-2.3295,-2.2817,-2.3116,-2.2832,-2.2906,-2.3355,-2.3634,-2.4074,-2.4632,-2.5144,-2.5884,-2.6687,-2.6139,-2.6471,-2.7462,-2.7496,-2.7537,-2.7486,-2.6928,-2.7029,-2.7486,-2.6911,-2.7097,-2.7657,-2.7511,-2.75,-2.7631,0.0,0.0,0.0,0.0,0.0,0.0,0.0,0.0,0.0,0.0,0.0,0.0,-2.2547,-2.1971,-2.2049,-2.3252,-2.3927,-2.5456,-2.8082,-2.7818,-2.8437,-3.0287,-3.0432,0.0,-3.1362,-3.1407,-3.148,-3.1537,-3.1509,-3.2168,-3.3441,-3.2796,-3.2826,-3.3335,-3.2093,-3.0791,-2.949,-2.8914,-2.8171,-2.7272,-2.6063,-2.6125,-2.6742,-2.557,-2.6032,-2.7376,-2.8105,-2.8132,-2.7888,-2.8251,-2.7881,-2.721,-2.6808,-2.6708,-2.6657,0.0,0.0,0.0,-2.5541,-2.5575,-2.5948,-2.7466,-2.7906,-2.7861,-2.7501,-2.7471,-2.7375,-2.6819,-2.6672,-2.6687,-2.6748,-2.6759,-2.6692,-2.6692,-2.6108,-2.5899,-2.6557,-2.6617,-2.6841,-2.755,-2.7625,-2.7625,-2.7625,-2.7006,-2.6632,-2.6587,-2.5405,-2.4373,-2.3684,-2.3041,-2.2398,-2.1814,-2.2368,-2.2739,-2.2768,-2.381,-2.4632,-2.5182,-2.5689,-2.5843,-2.5695,-2.5644,-2.5678,-2.5779,-2.6471,-2.6759,-2.6742,-2.6708,-2.6708,-2.6742,-2.6708,-2.6956,-2.7386,-2.7725,-2.8075,-2.8394,0.0,0.0,0.0,0.0,0.0,0.0,0.0,0.0,0.0,0.0,0.0,0.0,0.0,-2.2018,-2.2196,-2.2649,-2.4002,-2.5579,-2.7329,-2.8196,-2.8973,-2.9725,-3.0626,-3.148,-3.2153,-3.1691,-3.1935,-3.2772,-3.1935,-3.1995,-3.2894,-3.2643,-3.2422,-3.2228,-3.2183,-3.142,-3.0133,-2.9505,-2.8788,-2.7967,-2.7117,-2.6635,-2.6444,-2.636,-2.6692,-2.7262,-2.7793,-2.7929,-2.7856,-2.7981,-2.7538,-2.6906,-2.6758,-2.6691,-2.6607,-2.6133,-2.5473,-2.4881,-2.4881,-2.5251,-2.5725,-2.6252,-2.7097,-2.7674,-2.7169,-2.7187,-2.713,-2.6603,-2.6214,-2.5952,-2.5978,-2.6336,-2.6452,-2.6033,-2.542,-2.5211,-2.5869,-2.56,-2.557,-2.6243,-2.6318,-2.6318,-2.6318,-2.6093,-2.5779,-2.536,-2.4477,-2.3684,-2.3041,-2.1994,-2.15,-2.1695,-2.1919,-2.2395,-2.3071,-2.3826,-2.4212,-2.4235,-2.4763,-2.5007,-2.4898,-2.5389,-2.5609,-2.5625,-2.5879,-2.6251,-2.6691,-2.6691,-2.6691,-2.6691,-2.6691,-2.6787,-2.6961,-2.7449,-2.7843,-2.8167,0.0,0.0,0.0,0.0,0.0,0.0,0.0,0.0,0.0,0.0,0.0,0.0,0.0,0.0,-2.2309,-2.2862,-2.4213,-2.5651,-2.7149,-2.8037,-2.8727,-2.9203,-3.0172,-3.1042,-3.1722,-3.1102,-3.1407,-3.2844,-3.1709,-3.1634,-3.2568,-3.2297,-3.1958,-3.1482,-3.1749,-3.1225,-3.0163,-2.952,-2.8852,-2.8033,-2.698,-2.6572,-2.6635,-2.6805,-2.7082,-2.7569,-2.8572,-2.8636,-2.8213,-2.8213,-2.7706,-2.7029,-2.6776,-2.6691,-2.659,-2.6116,-2.5609,-2.522,-2.522,-2.559,-2.5963,-2.5964,-2.6707,-2.7267,-2.674,-2.6733,-2.67,-2.6177,-2.5777,-2.5484,-2.5304,-2.5422,-2.545,-2.5001,-2.4567,-2.4433,-2.4881,-2.4762,-2.4821,-2.554,-2.5615,-2.5615,-2.5615,-2.542,-2.5091,-2.4612,-2.3789,-2.3011,-2.2383,-2.1321,-2.0917,-2.135,-2.1491,-2.2026,-2.294,-2.3644,-2.3888,-2.372,-2.4255,-2.4388,-2.4137,-2.4644,-2.4864,-2.4864,-2.4864,-2.5558,-2.6657,-2.6351,-2.6385,-2.6707,-2.6707,-2.6693,-2.6777,-2.7401,-2.7897,-2.8336,0.0,0.0,0.0,0.0,0.0,0.0,0.0,0.0,0.0,-2.2797,0.0,0.0,0.0,0.0,0.0,-2.4124,-2.4607,-2.5633,-2.7546,-2.7178,-2.7524,-2.8876,-2.9016,-2.9393,-3.0297,-2.9678,-3.0032,-3.1497,-3.0866,-3.121,-3.2482,-3.1765,-3.1467,-3.1452,-3.075,-3.0108,-2.9535,-2.8876,-2.8233,-2.7455,-2.548,-2.5743,-2.7288,-2.6659,-2.7104,-2.8333,-3.0348,-3.0171,-2.8972,-2.8938,-2.8448,-2.7653,-2.6962,-2.6759,-2.6759,-2.6742,-2.6725,-2.6708,0.0,0.0,0.0,-2.6691,-2.6691,-2.6589,-2.6109,-2.6023,-2.588,-2.5477,-2.5373,-2.5207,-2.4673,-2.3993,-2.3565,-2.352,-2.3535,-2.3535,-2.3535,-2.4118,-2.4777,-2.542,-2.5495,-2.5495,-2.5495,-2.4911,-2.4492,-2.4492,-2.3355,-2.2338,-2.1695,-2.1036,-2.0692,-2.0707,-2.1115,-2.161,-2.2307,-2.3213,-2.3671,-2.3654,-2.4204,-2.4052,-2.3359,-2.3376,-2.3393,-2.3393,-2.3393,-2.4628,-2.6539,-2.5584,-2.578,-2.6649,-2.6649,-2.6658,-2.6809,-2.7579,-2.836,-2.8994,0.0,0.0,0.0,0.0,0.0,0.0,-2.4328,-2.4747,-2.4637,0.0,0.0,0.0,-2.1716,-2.2345,-2.3857,-2.6246,-2.5798,-2.5762,-2.6734,-2.7203,-2.7676,-2.8011,-2.8641,-2.9638,-3.0902,-3.0312,-3.0762,-3.2243,-3.1569,-3.1435,-3.1735,-3.0984,-3.0644,-3.0615,-2.9915,-2.9275,-2.865,-2.8595,-2.8771,-2.8846,-2.6856,-2.6354,-2.6803,-2.6497,-2.6628,-2.7047,-2.7969,-2.8387,-2.8403,-2.7859,-2.7551,-2.7396,-2.7646,-2.7995,-2.8252,-2.7671,-2.7504,-2.7368,-2.6826,0.0,0.0,0.0,0.0,0.0,-2.6555,-2.6243,-2.5954,-2.587,-2.5211,-2.4472,-2.386,-2.3299,-2.2622,-2.1665,-2.1919,-2.2218,-2.2218,-2.2398,-2.2577,-2.2757,-2.2772,-2.2772,-2.2772,-2.2607,-2.2503,-2.2503,-2.1739,-2.1171,-2.0991,-2.0348,-2.0315,-2.11,-2.1229,-2.1698,-2.2521,-2.2785,-2.2843,-2.271,-2.2844,-2.2801,-2.2632,-2.3156,-2.3393,-2.3393,-2.3393,-2.4036,-2.5116,-2.519,-2.5357,-2.5578,-2.5255,-2.5756,-2.6729,-2.6954,-2.7869,-2.8994,0.0,0.0,0.0,0.0,0.0,-2.4595,-2.4611,-2.5195,-2.5131,0.0,0.0,0.0,-2.2803,-2.33,-2.4634,-2.6793,-2.6756,-2.6809,-2.7118,-2.7623,-2.7756,-2.7516,-2.8013,-2.8763,-2.9742,-2.9094,-2.9728,-3.1589,-3.0881,-3.0894,-3.1467,-3.0703,-3.0125,-2.9851,-2.885,-2.821,-2.788,-2.7779,-2.8284,-2.9026,-2.729,-2.6931,-2.745,-2.7349,-2.7302,-2.7425,-2.8291,-2.8834,-2.9026,-2.7992,-2.7438,-2.7251,-2.7591,-2.7974,-2.8189,-2.7998,-2.769,-2.7464,-2.7622,-2.7402,-2.7249,-2.7603,0.0,0.0,-2.7165,-2.6705,-2.6227,-2.6049,-2.5486,-2.4766,-2.3856,-2.3087,-2.223,-2.1129,-2.0881,-2.0961,-2.1246,-2.1515,-2.1695,-2.1695,-2.1695,-2.1695,-2.1695,-2.1695,-2.1695,-2.1695,-2.1081,-2.0587,-2.0303,-2.0065,-2.0238,-2.0852,-2.1248,-2.1681,-2.2176,-2.2363,-2.2438,-2.231,-2.231,-2.231,-2.2327,-2.275,-2.2936,-2.2936,-2.2936,-2.3173,-2.3608,-2.3898,-2.4355,-2.4812,-2.3916,-2.4861,-2.6792,-2.7431,-2.8224,-2.8994,0.0,0.0,-2.3713,-2.3713,-2.4334,-2.4852,-2.4919,-2.5423,-2.5373,0.0,-2.4082,-2.4236,-2.4378,-2.4235,-2.4855,-2.6552,-2.7419,-2.7996,-2.8118,-2.8118,-2.7862,-2.7411,-2.7372,-2.7575,-2.7867,-2.7262,-2.8098,-3.0248,-2.9748,-3.0163,-3.1351,-3.0524,-2.9846,-2.9228,-2.7875,-2.7218,-2.7228,-2.6935,-2.7506,-2.8472,-2.7195,-2.7425,-2.8464,-2.8501,-2.8401,-2.8432,-2.9737,-3.0132,-2.991,-2.8719,-2.7945,-2.7461,-2.7551,-2.7599,-2.7756,-2.8135,-2.7781,-2.7509,-2.8612,-2.8416,-2.811,-2.8831,-2.8426,0.0,-2.7806,-2.7231,-2.6605,-2.6173,-2.6049,-2.5606,-2.4337,-2.3191,-2.2222,-2.1408,-2.0416,-1.9972,-2.0513,-2.1096,-2.147,-2.147,-2.147,-2.147,-2.147,-2.147,-2.147,-2.147,-2.0932,-2.0333,-1.9812,-2.0089,-2.0348,-2.0434,-2.1197,-2.1628,-2.1688,-2.2106,-2.231,-2.231,-2.231,-2.231,-2.231,-2.231,-2.231,-2.231,-2.231,-2.231,-2.2293,-2.2304,-2.3079,-2.4132,-2.2815,-2.3895,-2.6422,-2.8317,-2.8982,-2.8998,0.0,-2.4023,-2.4422,-2.4422,-2.5423,-2.6367,-2.6913,-2.713,-2.6894,-2.5994,-2.4104,-2.3525,-2.5181,-2.4205,-2.4489,-2.6913,-2.6988,-2.7152,-2.801,-2.811,-2.8014,-2.7927,-2.7946,-2.8311,-2.9052,-2.8934,-2.9228,-2.9914,-3.0452,-3.0704,-3.0524,-2.9628,-2.9185,-2.9011,-2.8015,-2.7307,-2.6907,-2.8217,-2.8612,-2.8318,-2.7647,-2.7545,-2.7805,-2.7806,-2.7429,-2.7101,-2.7898,-2.8191,-2.8191,-2.8449,-2.8773,-2.9138,-2.9666,-3.0203,-3.037,-2.9369,-2.9311,-2.9358,-2.851,-2.8527,-2.8789,-2.8975,-2.8507,0.0,-2.7853,-2.7317,-2.68,-2.6588,-2.6262,-2.5582,-2.4179,-2.3391,-2.2547,-2.1275,-2.0577,-2.0115,-1.9927,-2.0004,-2.0079,-2.0079,-2.0079,-2.0079,-2.0079,-2.0079,-2.0079,-2.0079,-1.9959,-1.999,-2.0158,-2.0246,-2.0634,-2.1321,-2.1521,-2.1794,-2.2163,-2.2237,-2.231,-2.231,-2.231,-2.231,-2.231,-2.231,-2.231,-2.231,-2.231,-2.231,-2.231,-2.2298,-2.248,-2.2693,-2.2409,-2.2635,-2.3643,-2.7548,-2.8996,-2.8997,-2.4038,-2.4646,-2.5102,-2.5103,-2.592,-2.6829,-2.7506,-2.7867,-2.7808,-2.6895,-2.4732,-2.3838,-2.5451,-2.4689,-2.4852,-2.6713,-2.6679,-2.6769,-2.7242,-2.7813,-2.7973,-2.7694,-2.8213,-2.8543,-2.871,-2.8782,-2.9039,-2.9619,-2.9775,-3.0121,-3.0668,-2.9519,-2.8837,-2.8547,-2.7675,-2.6906,-2.634,-2.7257,-2.7886,-2.831,-2.8142,-2.8083,-2.8053,-2.7745,-2.7415,-2.7171,-2.7844,-2.8336,-2.8628,-2.8981,-2.9319,-2.9529,-2.9546,-2.9977,-3.0412,-3.0024,-2.9831,-2.9672,-2.9351,-2.9426,-2.9526,-2.9264,-2.8976,0.0,0.0,-2.7271,-2.6574,-2.6753,-2.6054,-2.5157,-2.4362,-2.3506,-2.2557,-2.1485,-2.091,-2.0499,-2.007,-1.9854,-1.969,-1.969,-1.969,-1.969,-1.969,-1.969,-1.969,-1.969,-1.9874,-2.0089,-2.028,-2.0699,-2.1165,-2.1582,-2.1823,-2.2061,-2.231,-2.231,-2.231,-2.231,-2.231,-2.231,-2.231,-2.231,-2.231,-2.231,-2.231,-2.231,-2.2293,-2.2307,-2.2306,-2.237,-2.3016,-2.2863,-2.2655,-2.5546,-2.7616,-2.9005,-2.4582,-2.5227,-2.5727,-2.5623,-2.6382,-2.7189,-2.7861,-2.8454,-2.8426,-2.7489,-2.5422,-2.4353,-2.5308,-2.4897,-2.5061,-2.6399,-2.6279,-2.6326,-2.6864,-2.7575,-2.7699,-2.7035,-2.8332,-2.875,-2.8039,-2.8299,-2.8715,-2.9282,-2.8878,-2.9402,-3.0799,-2.9596,-2.8865,-2.8577,-2.7539,-2.6781,-2.6235,-2.6303,-2.6917,-2.7867,-2.8492,-2.8785,-2.8712,-2.8038,-2.7844,-2.809,-2.8592,-2.9155,-2.9622,-2.9858,-2.9963,-2.9928,-2.9654,-2.9858,-3.0201,-3.0578,-3.0243,-2.9809,-3.0306,-3.0402,-3.0307,-2.9888,-2.9543,-2.9212,0.0,0.0,0.0,-2.6825,-2.5905,-2.4927,-2.4582,-2.3703,-2.2756,-2.1897,-2.1385,-2.0991,-2.0601,-2.0193,-1.9925,-1.9854,-1.9747,-1.9711,-1.9818,-1.9747,-1.9711,-1.9818,-2.0124,-2.0382,-2.0534,-2.1228,-2.1658,-2.1718,-2.2106,-2.231,-2.231,-2.231,-2.231,-2.231,-2.231,-2.231,-2.231,-2.231,-2.231,-2.231,-2.231,-2.231,-2.2293,-2.2312,-2.2296,-2.2446,-2.3714,-2.3584,-2.2771,-2.3812,-2.6236,-2.9008,-2.449,-2.5579,-2.6253,-2.5618,-2.7126,-2.861,-2.9282,-2.9451,-2.9116,-2.8033,-2.5647,-2.426,-2.4791,-2.3971,-2.4205,-2.648,-2.5322,-2.5498,-2.8044,-2.7825,-2.7113,-2.6052,-2.8348,-2.9006,-2.7572,-2.8932,-2.9416,-2.8975,-2.9165,-2.9495,-2.9951,-2.9279,-2.9414,-3.0004,-2.8524,-2.7741,-2.7499,-2.7669,-2.7128,-2.6363,-2.842,-2.9327,-2.94,-2.8727,-2.8846,-2.937,-2.9445,-2.9561,-2.9758,-3.0908,-3.1261,-3.15,-3.2586,-3.2571,-3.2093,-3.1537,-3.1277,-3.1041,-3.0623,-3.0854,-3.1262,-3.1182,-3.0336,-2.942,-2.9227,0.0,-2.6471,-2.6814,0.0,-2.5584,-2.4652,0.0,0.0,-2.2456,-2.1823,-2.1521,-2.146,-2.1118,-2.0698,-2.028,-1.9909,-1.9839,-2.0177,-1.9909,-1.9839,-2.0227,-2.028,-2.0634,-2.1413,-2.1552,-2.1794,-2.2209,-2.2282,-2.231,-2.231,-2.231,-2.231,-2.231,-2.231,-2.231,-2.231,-2.231,-2.231,-2.231,-2.231,-2.231,-2.231,-2.2304,-2.2293,-2.2443,-2.3696,-2.4118,-2.3999,-2.4144,-2.6239,-2.9003,-2.491,-2.5856,-2.6605,-2.6696,-2.7759,-2.8834,-2.9503,-2.94,-2.9088,-2.8647,-2.6171,-2.4713,-2.548,-2.4533,-2.448,-2.5999,-2.5027,-2.4795,-2.597,-2.6174,-2.6295,-2.6181,-2.8125,-2.9077,-2.8876,-2.9499,-2.9503,-2.8925,-2.9045,-2.908,-2.9013,-2.9313,-2.9344,-2.9106,-2.9266,-2.8809,-2.799,-2.7894,-2.7988,-2.817,-2.8296,-2.9181,-3.0409,-2.9516,-2.9552,-3.0113,-3.0113,-3.0393,-3.0739,-3.0851,-3.1441,-3.2031,-3.1857,-3.2109,-3.2377,-3.1676,-3.1471,-3.1304,-3.0691,-3.096,-3.1282,-3.0551,-2.9944,-2.9459,-2.8996,-2.7684,-2.6551,-2.6588,0.0,0.0,0.0,0.0,0.0,0.0,-2.2135,-2.1907,-2.1649,-2.1453,-2.1181,-2.0764,-2.0565,-2.0499,-2.0682,-2.0405,-2.0371,-2.0682,-2.0863,-2.1132,-2.1582,-2.1869,-2.2106,-2.2282,-2.231,-2.231,-2.231,-2.231,-2.231,-2.231,-2.231,-2.231,-2.231,-2.231,-2.231,-2.231,-2.231,-2.231,-2.231,-2.231,-2.2289,-2.2349,-2.289,-2.3547,-2.4192,-2.4203,-2.5051,-2.6478,-2.5173,-2.612,-2.6933,-2.7395,-2.8368,-2.9337,-3.0,-2.9464,-2.9066,-2.9187,-2.6937,-2.5498,-2.6234,-2.5523,-2.5362,-2.6328,-2.542,-2.4873,-2.5117,-2.5371,-2.5548,-2.5406,-2.775,-2.8807,-2.8258,-2.944,-2.9561,-2.8669,-2.8837,-2.8915,-2.896,-2.9309,-2.9288,-2.9035,-2.9883,-2.9754,-2.875,-2.8507,-2.8641,-2.8988,-2.857,-2.9561,-3.1123,-3.0383,-3.0283,-3.0543,-3.0698,-3.1076,-3.1422,-3.1165,-3.1811,-3.263,-3.1857,-3.2138,-3.2691,-3.2213,-3.1824,-3.1362,-3.0926,-3.115,-3.13,-3.0357,-2.9849,-2.946,-2.8988,-2.7694,-2.6546,-2.6429,-2.5768,0.0,0.0,0.0,-2.3029,-2.2099,0.0,-2.199,-2.1653,-2.1699,-2.1645,-2.1213,-2.115,-2.1134,-2.1022,-2.0751,-2.0719,-2.107,-2.1201,-2.144,-2.1777,-2.2108,-2.2309,-2.231,-2.231,-2.231,-2.231,-2.231,-2.231,-2.231,-2.231,-2.231,-2.231,-2.231,-2.231,-2.231,-2.231,-2.231,-2.231,-2.231,-2.2313,-2.2297,-2.2315,-2.2877,-2.3718,-2.4078,-2.4205,-2.4658,-2.4951,-2.6396,-2.7414,-2.7214,-2.8976,-3.0643,-3.1327,-3.006,-2.9199,-2.9708,-2.7803,-2.6553,-2.6856,-2.6759,-2.7023,-2.8133,-2.667,-2.6045,-2.6875,-2.6357,-2.5067,-2.2758,-2.7133,-2.7897,-2.4498,-2.845,-2.9794,-2.8152,-2.863,-2.9323,-3.0099,-2.9013,-2.9386,-3.0993,-3.0528,-3.0254,-3.024,-3.0194,-2.8982,-2.7163,-2.9358,-3.0715,-3.1497,-3.1437,-3.1031,-3.0618,-3.124,-3.1452,-3.1571,-3.2243,-3.2916,-3.3604,-3.4173,-3.3948,-3.3455,-3.344,-3.2527,-3.1482,-3.1452,-3.1452,-3.1467,-3.1422,-3.0522,-2.9579,-2.9549,-2.8051,-2.6576,-2.645,-2.5846,-2.4922,-2.3394,-2.3125,-2.2657,-2.1275,-2.1371,0.0,0.0,-2.2006,-2.2106,-2.1628,-2.1582,-2.1425,-2.1032,-2.0766,-2.083,-2.136,-2.1151,-2.1379,-2.2248,-2.2295,-2.2287,-2.231,-2.231,-2.231,-2.231,-2.231,-2.231,-2.231,-2.231,-2.231,-2.231,-2.231,-2.231,-2.231,-2.231,-2.231,-2.231,-2.231,-2.231,-2.2287,-2.2297,-2.2323,-2.251,-2.3766,-2.4204,-2.4654,-2.5252,-2.6322,-2.7256,-2.7842,-2.8936,-3.0261,-3.1892,-3.0749,-3.0162,-3.1401,-3.0121,-2.9151,-2.9266,-2.8944,-2.8859,-2.918,-2.8048,-2.7409,-2.748,-2.6755,-2.6411,-2.6487,-2.8044,-2.8798,-2.8419,-2.9893,-2.9928,-2.863,-2.9237,-2.9252,-2.8788,-2.9386,-2.9502,-2.9399,-3.0397,-3.0657,-3.0329,-3.0329,-3.004,-2.9758,-3.0521,-3.1034,-3.1319,-3.1452,-3.1375,-3.118,-3.145,-3.1482,-3.1511,-3.1735,-3.23,-3.2809,-3.2601,-3.2976,-3.332,-3.2452,-3.2198,-3.2078,-3.1601,-3.1482,-3.1482,-3.1482,-3.0552,-2.9604,-2.9576,-2.8402,-2.7141,-2.6627,-2.6266,-2.5613,-2.4153,-2.3834,-2.3305,-2.1884,-2.2422,-2.2655,0.0,-2.2015,-2.2237,-2.2077,-2.2061,-2.2015,-2.189,-2.1786,-2.1803,-2.1982,-2.2167,-2.2388,-2.2666,-2.2598,-2.2548,-2.2546,-2.2388,-2.2388,-2.2563,-2.2388,-2.231,-2.231,-2.231,-2.231,-2.231,-2.231,-2.231,-2.231,-2.231,-2.231,-2.231,-2.231,-2.231,-2.231,-2.2303,-2.2293,-2.2367,-2.2776,-2.2959,-2.3383,-2.5469,-2.6214,-2.7167,-2.8326,-2.9348,-3.0294,-3.1369,-3.0901,-3.0826,-3.2139,-3.173,-3.1402,-3.1585,-3.1145,-3.0766,-3.066,-2.9555,-2.8661,-2.7728,-2.7474,-2.7511,-2.8011,-2.8921,-2.9432,-2.974,-3.0443,-3.0132,-2.8654,-2.9437,-2.9415,-2.8712,-2.9407,-2.9496,-2.9174,-3.0349,-3.0757,-3.0614,-3.0845,-3.0879,-3.0807,-3.0827,-3.0992,-3.1319,-3.1452,-3.182,-3.2146,-3.1687,-3.1614,-3.1835,-3.1584,-3.1942,-3.2434,-3.1973,-3.2467,-3.2976,-3.2138,-3.2018,-3.2078,-3.1644,-3.1482,-3.1482,-3.1482,-3.0354,-2.9163,-2.9163,-2.8122,-2.6959,-2.5992,-2.5997,-2.5621,-2.3941,-2.3631,-2.3218,-2.2102,-2.2639,-2.292,0.0,-2.2145,-2.231,-2.231,-2.231,-2.231,-2.231,-2.231,-2.231,-2.231,-2.2721,-2.311,-2.334,-2.3135,-2.2979,-2.2968,-2.2756,-2.2695,-2.2873,-2.2695,-2.2571,-2.2436,-2.2436,-2.2388,-2.231,-2.231,-2.231,-2.231,-2.231,-2.231,-2.231,-2.231,-2.231,-2.231,-2.231,-2.2309,-2.2432,-2.348,-2.4206,-2.4953,-2.5635,-2.6177,-2.713,-2.871,-3.0045,-3.0707,-2.9998,-3.0581,-3.1311,-3.1978,-3.2748,-3.3409,-3.36,-3.3192,-3.2803,-3.2448,-3.1037,-2.9518,-2.7984,-2.8568,-2.8475,-2.7402,-2.9505,-2.9964,-2.8344,-3.0367,-3.0313,-2.8211,-2.9312,-2.9817,-2.9779,-2.9227,-2.9436,-3.025,-3.0421,-3.0719,-3.1171,-3.1838,-3.1454,-3.0343,-3.0352,-3.0849,-3.1599,-3.1569,-3.2412,-3.3426,-3.2013,-3.191,-3.2412,-3.1732,-3.1901,-3.2467,-3.2437,-3.2482,-3.2497,-3.2482,-3.2048,-3.1511,-3.1482,-3.1482,-3.1482,-3.1482,-2.9927,-2.8424,-2.8423,-2.7477,-2.6147,-2.4805,-2.5097,-2.5003,-2.3001,-2.27,-2.251,-2.1869,-2.2037,-2.2358,-2.2622,-2.2441,-2.2265,-2.231,-2.2316,-2.2333,-2.231,-2.231,-2.231,-2.231,-2.2857,-2.3477,-2.4102,-2.3754,-2.3508,-2.3513,-2.3301,-2.3189,-2.3189,-2.3189,-2.3021,-2.2695,-2.2721,-2.259,-2.2338,-2.2338,-2.231,-2.231,-2.231,-2.231,-2.231,-2.231,-2.231,-2.231,-2.231,-2.2298,-2.2627,-2.5466,-2.749,-2.889,-2.6189,-2.7169,-2.8092,-2.8265,-2.8812,-2.9605,-3.0926,-3.1795,-3.2693,-3.368,-3.5468,-3.6265,-3.527,-3.446,-3.3671,-3.2986,-3.154,-3.0432,-2.9565,-2.9488,-2.9819,-3.0895,-3.0227,-3.0447,-3.1761,-3.1365,-3.076,-2.9973,-3.0236,-3.0193,-2.9792,-3.0327,-3.0537,-3.0421,-3.182,-3.1928,-3.1238,-3.2027,-3.1901,-3.1219,-3.119,-3.1898,-3.2904,-3.2428,-3.3426,-3.469,-3.2324,-3.191,-3.2412,-3.1732,-3.1601,-3.1765,-3.1735,-3.2123,-3.2422,-3.1928,-3.2018,-3.2153,-3.1616,-3.1482,-3.1482,-3.1482,-3.0279,-2.9059,-2.9045,-2.8067,-2.6963,-2.6643,-2.6001,-2.5402,-2.4917,-2.3992,-2.3093,-2.2542,-2.1926,-2.1996,-2.326,-2.2452,-2.1911,-2.2248,-2.2786,-2.2908,-2.235,-2.231,-2.231,-2.231,-2.2857,-2.3217,-2.3223,-2.3494,-2.3653,-2.366,-2.3111,-2.2947,-2.3189,-2.2947,-2.2797,-2.2695,-2.2947,-2.2915,-2.2599,-2.2599,-2.2473,-2.231,-2.231,-2.231,-2.231,-2.231,-2.231,-2.231,-2.231,-2.2298,-2.2371,-2.3161,-2.5063,-2.7285,-2.6784,-2.7678,-2.8375,-2.8413,-2.9019,-2.9844,-3.0958,-3.1769,-3.2587,-3.3698,-3.5603,-3.6595,-3.6081,-3.5647,-3.5074,-3.417,-3.2744,-3.1291,-3.0073,-2.9838,-3.0374,-3.1658,-3.059,-3.0718,-3.2031,-3.0873,-2.9853,-2.9068,-2.9338,-2.9322,-2.9106,-3.0506,-3.1008,-3.0791,-3.2263,-3.2549,-3.2046,-3.2359,-3.2302,-3.1958,-3.1958,-3.2402,0.0,-3.2959,-3.3819,-3.4821,-3.3019,-3.2826,-3.3291,-3.2591,-3.2161,-3.1968,-3.1968,-3.2182,-3.2377,-3.1676,-3.2003,-3.2362,-3.1661,-3.1482,-3.1482,-3.1482,-3.0177,-2.884,-2.8792,-2.7551,-2.624,-2.5929,-2.5384,-2.4902,-2.466,-2.4018,-2.3406,-2.315,-2.2586,-2.2394,-2.2992,-2.2328,-2.1818,-2.1961,-2.2348,-2.2542,-2.2333,-2.2586,-2.2654,-2.2299,-2.2704,-2.294,-2.2833,-2.3224,-2.3544,-2.3692,-2.3684,-2.3638,-2.3649,-2.3799,-2.362,-2.3141,-2.3346,-2.3165,-2.2695,-2.2695,-2.2563,-2.231,-2.231,-2.231,-2.231,-2.231,-2.2496,-2.2767,-2.2428,-2.2308,-2.2438,-2.3765,-2.5264,-2.6694,-2.7468,-2.7841,-2.837,-2.8889,-2.9932,-3.0762,-3.0972,-3.1538,-3.232,-3.335,-3.4891,-3.6022,-3.6528,-3.6548,-3.6308,-3.5501,-3.3973,-3.2137,-3.0219,-3.0121,-3.0489,-3.1064,-3.0727,-3.0621,-3.0804,-2.9687,-2.855,-2.7394,-2.7777,-2.803,-2.8018,-3.0037,-3.1079,-3.1228,-3.2307,-3.2944,-3.3129,-3.2579,-3.2318,-3.2318,-3.2318,-3.2407,-3.2657,-3.3366,-3.4047,-3.4564,-3.398,-3.4068,-3.4429,-3.3722,-3.3107,-3.2628,-3.2654,-3.2615,-3.2512,-3.1854,-3.2063,-3.2362,-3.1661,-3.1482,-3.1482,-3.1482,-2.9959,-2.8432,-2.8236,-2.6716,-2.5127,-2.4319,-2.4243,-2.4211,-2.3559,-2.3533,-2.3667,-2.3822,-2.3581,-2.3173,-2.2729,-2.2313,-2.1963,-2.1791,-2.1786,0.0,-2.2197,-2.2832,-2.2979,-2.2333,-2.2537,-2.2695,-2.2695,-2.3021,-2.3346,-2.3692,-2.4356,-2.4556,-2.4278,-2.4884,-2.4725,-2.3855,-2.3789,-2.3455,-2.2822,-2.2797,-2.2616,-2.2349,-2.231,-2.231,-2.231,-2.231,-2.2682,-2.3177,-2.2547,-2.2291,-2.2605,-2.5183,-2.6377,-2.6742,-2.8512,-2.8731,-2.8978,-2.9537,-3.0573,-3.1757,-3.306,-3.4171,-3.5053,-3.5722,-3.6825,-3.7623,-3.7763,-3.6653,-3.6081,-3.6391,-3.3946,-3.2448,-3.2464,-3.1044,-3.0581,-3.1434,-3.0028,-2.9915,-3.1339,-2.9363,-2.849,-2.8823,-2.7888,-2.7402,-2.7307,-2.8986,-3.0213,-3.1095,-3.2905,-3.3593,-3.3342,-3.2021,-3.1377,-3.1344,-3.1438,-3.2056,-3.3065,-3.4,-3.4766,-3.5335,-3.5195,-3.4882,-3.4386,-3.3746,-3.3441,-3.3343,-3.3291,-3.3291,-3.3185,-3.2542,-3.2422,-3.2362,-3.1661,-3.1482,-3.1482,-3.1482,-3.0704,-2.9614,-2.8464,-2.7497,-2.6451,-2.5187,-2.4616,-2.4268,-2.4232,-2.4292,-2.4525,-2.5131,-2.4298,-2.3814,-2.4675,-2.3326,-2.2393,-2.2713,-2.282,-2.2556,-2.1804,-2.2195,-2.2434,-2.2327,-2.2537,-2.2695,-2.2695,-2.3021,-2.3346,-2.3692,-2.358,-2.3902,-2.4751,-2.4266,-2.4245,-2.4685,-2.4285,-2.3917,-2.3522,-2.3236,-2.2982,-2.2703,-2.2432,-2.231,-2.231,-2.231,-2.2395,-2.2485,-2.2346,-2.2285,-2.2363,-2.2879,-2.4618,-2.6876,-2.9609,-2.9526,-2.9804,-3.1268,-3.2184,-3.337,-3.5349,-3.6271,-3.6688,-3.6467,-3.6571,-3.6817,-3.7159,-3.6771,-3.6418,-3.6214,-3.4493,-3.3054,-3.2354,-3.0804,-3.0098,-3.0539,-2.9451,-2.9246,-2.9827,-2.7627,-2.6437,-2.6361,-2.5664,-2.5242,-2.5251,-2.7602,-2.926,-3.0325,-3.257,-3.3434,-3.3226,-3.2144,-3.1666,-3.1605,-3.1461,-3.2101,-3.3201,-3.3978,-3.4767,-3.5504,-3.5504,-3.532,-3.4996,-3.4623,-3.4301,-3.4015,-3.4029,-3.4038,-3.383,-3.2796,-3.2766,-3.2811,-3.1809,-3.1482,-3.1482,-3.1482,-3.0535,-2.9417,-2.8437,-2.705,-2.5652,-2.4728,-2.4086,-2.3839,-2.4327,-2.4141,-2.4315,-2.5416,-2.4754,-2.4327,-2.4851,-2.4079,-2.3407,-2.3163,-2.3168,-2.2853,-2.1892,-2.2001,-2.2195,-2.2271,-2.2426,-2.25,-2.25,-2.266,-2.2857,-2.3165,-2.3467,-2.3735,-2.4027,-2.4222,-2.4306,-2.427,-2.4218,-2.4016,-2.3692,-2.3346,-2.3038,-2.273,-2.2443,-2.253,-2.2936,-2.3714,-2.3562,-2.2924,-2.3547,-2.3681,-2.3348,-2.2576,-2.4172,-2.6925,-3.0679,-3.0692,-3.1099,-3.3133,-3.4007,-3.5092,-3.6924,-3.7779,-3.7879,-3.7073,-3.6332,-3.6056,-3.6483,-3.6822,-3.678,-3.6124,-3.5151,-3.3818,-3.2175,-3.071,-2.9784,-2.9507,-2.9004,-2.8652,-2.8294,-2.6073,-2.465,-2.3841,-2.3159,-2.2938,-2.3163,-2.5786,-2.7862,-2.958,-3.1916,-3.3059,-3.3039,-3.2125,-3.1846,-3.1961,-3.1537,-3.1866,-3.2797,-3.3691,-3.4469,-3.521,-3.5394,-3.5504,-3.5504,-3.5504,-3.5165,-3.4718,-3.4718,-3.4718,-3.443,-3.3095,-3.2959,-3.2941,-3.1634,-3.1102,-3.0969,-3.0967,-2.9992,-2.8804,-2.7922,-2.6343,-2.4844,-2.3987,-2.3577,-2.3612,-2.4464,-2.4286,-2.4443,-2.5604,-2.536,-2.5018,-2.5023,-2.4775,-2.4371,-2.3662,-2.3197,-2.2724,-2.2141,-2.1829,-2.1843,-2.2346,-2.237,-2.2428,-2.2547,-2.2547,-2.2664,-2.2955,-2.3432,-2.3702,-2.3684,-2.4334,-2.4486,-2.4198,-2.4121,-2.3955,-2.3692,-2.3277,-2.2947,-2.2686,-2.2596,-2.2953,-2.3714,-2.4898,-2.4678,-2.3731,-2.4686,-2.4814,-2.4432,-2.3926,-2.5638,-2.8378,-3.1818,-3.2437,-3.3121,-3.4345,-3.5417,-3.6417,-3.7109,-3.8152,-3.8814,-3.8693,-3.7701,-3.7048,-3.7098,-3.6709,-3.6634,-3.7002,-3.5728,-3.4541,-3.3632,-3.1876,-3.0328,-2.9072,-2.8524,-2.834,-2.831,-2.5961,-2.4739,-2.4386,-2.2115,-2.1371,-2.2135,-2.3271,-2.5837,-2.958,-3.1697,-3.2854,-3.2963,-3.131,-3.0965,-3.1611,-3.085,-3.089,-3.1572,-3.3311,-3.4089,-3.4271,-3.518,-3.5504,-3.5504,-3.5504,-3.5489,-3.5394,-3.5394,-3.5429,-3.513,-3.3799,-3.2901,-3.2072,-3.0736,-2.9811,-2.9227,-2.9203,-2.9145,-2.851,-2.6741,-2.6149,-2.5421,-2.3568,-2.3734,-2.4439,-2.5149,-2.5809,-2.6275,-2.6446,-2.6459,-2.6415,-2.6435,-2.5352,-2.4582,-2.4507,-2.2903,-2.1946,-2.2223,-2.1186,-2.1031,-2.2456,-2.2615,-2.2865,-2.3262,-2.3291,-2.3448,-2.3794,-2.3163,-2.3606,-2.5277,-2.4311,-2.4486,-2.5757,-2.44,-2.3714,-2.3671,-2.3045,-2.2721,-2.2704,-2.3124,-2.3714,-2.4421,-2.4557,-2.454,-2.4408,-2.4523,-2.4532,-2.4829,-2.7413,-3.0384,-3.3175,-3.3997,-3.4095,-3.461,-3.6383,-3.6768,-3.7318,-3.8506,-3.8851,-3.8792,-3.8417,-3.7952,-3.755,-3.7224,-3.6684,-3.6458,-3.6671,-3.5672,-3.4722,-3.4194,-3.2209,-3.0581,-2.9796,-2.8838,-2.8291,-2.8291,-2.6328,-2.4963,-2.4382,-2.3186,-2.2435,-2.223,-2.3227,-2.5052,-2.7775,-2.9467,-3.0646,-3.1278,-3.0609,-3.0501,-3.0686,-3.0246,-3.0482,-3.137,-3.2643,-3.3506,-3.4133,-3.5165,-3.5504,-3.5504,-3.5504,-3.5504,-3.5504,-3.5504,-3.5244,-3.4721,-3.3811,-3.2629,-3.1386,-3.0517,-2.9666,-2.9022,-2.9031,-2.8361,-2.7444,-2.6317,-2.5449,-2.4525,-2.3349,-2.3774,-2.4644,-2.5823,-2.5983,-2.6165,-2.7083,-2.684,-2.6716,-2.7155,-2.6408,-2.5646,-2.5255,-2.4178,-2.3173,-2.2606,-2.1682,-2.151,-2.2374,-2.2167,-2.2255,-2.2704,-2.3156,-2.3248,-2.2931,-2.3488,-2.3933,-2.4229,-2.3972,-2.4355,-2.5367,-2.4046,-2.3868,-2.4746,-2.3842,-2.3547,-2.3796,-2.399,-2.4235,-2.454,-2.5257,-2.5384,-2.5217,-2.5666,-2.6014,-2.6504,-2.8323,-3.0441,-3.233,-3.5818,-3.5843,-3.6232,-3.8187,-3.8189,-3.8266,-3.9295,-3.912,-3.8605,-3.7864,-3.7764,-3.755,-3.6998,-3.6596,-3.6358,-3.6358,-3.5806,-3.5122,-3.4391,-3.2476,-3.107,-3.0298,-2.9013,-2.8291,-2.8291,-2.6607,-2.533,-2.4519,-2.3628,-2.297,-2.2476,-2.3585,-2.4944,-2.656,-2.7842,-2.9176,-3.0451,-3.0219,-3.0233,-3.044,-2.9974,-3.0188,-3.0868,-3.1824,-3.2736,-3.3703,-3.4718,-3.5225,-3.5504,-3.5504,-3.5504,-3.5504,-3.5504,-3.503,-3.4388,-3.3716,-3.2405,-3.1089,-3.0446,-2.9508,-2.8652,-2.866,-2.7574,-2.6401,-2.5853,-2.4979,-2.4218,-2.387,-2.4429,-2.5287,-2.6322,-2.6299,-2.637,-2.7179,-2.706,-2.7015,-2.728,-2.6882,-2.6333,-2.5708,-2.4807,-2.3969,-2.3041,-2.2188,-2.1952,-2.257,-2.2253,-2.2322,-2.3003,-2.3485,-2.3579,-2.3291,-2.4069,-2.434,-2.4052,-2.4179,-2.459,-2.5305,-2.4226,-2.4304,-2.5322,-2.4469,-2.4372,-2.4845,-2.4951,-2.5132,-2.5401,-2.6311,-2.6472,-2.621,-2.6718,-2.7216,-2.7743,-2.8647,-3.0114,-3.1562,-3.6948,-3.76,-3.8329,-3.9471,-3.9672,-3.9484,-3.8956,-3.8881,-3.8467,-3.7349,-3.7199,-3.6985,-3.6433,-3.6358,-3.6358,-3.6358,-3.637,-3.5824,-3.4477,-3.3051,-3.169,-3.0364,-2.9013,-2.8291,-2.8291,-2.6877,-2.5791,-2.5139,-2.3139,-2.2281,-2.2602,-2.4094,-2.5432,-2.6568,-2.7596,-2.9257,-3.1113,-3.0163,-3.0303,-3.1113,-3.0175,-2.9792,-2.9919,-3.0855,-3.1825,-3.2775,-3.3688,-3.4623,-3.5504,-3.5504,-3.5504,-3.5504,-3.5504,-3.5041,-3.4386,-3.3695,-3.2408,-3.1072,-3.0448,-2.9015,-2.773,-2.773,-2.6668,-2.5448,-2.4918,-2.4944,-2.5127,-2.5314,-2.596,-2.6457,-2.651,-2.7086,-2.739,-2.6701,-2.717,-2.7375,-2.6701,-2.6592,-2.6362,-2.5681,-2.4446,-2.361,-2.3595,-2.2443,-2.2133,-2.3194,-2.3159,-2.3587,-2.4705,-2.4577,-2.4814,-2.5541,-2.4864,-2.4831,-2.5575,-2.518,-2.5357,-2.607,-2.5322,-2.4988,-2.5005,-2.4641,-2.4881,-2.5592,-2.5997,-2.6593,-2.7299,-2.7707,-2.7727,-2.7476,-2.7476,-2.7664,-2.7982,-2.8717,-3.0341,-3.2127,-3.868,-3.9032,-3.927,-3.9634,-3.9383,-3.9082,-3.8894,-3.8216,-3.7588,-3.7236,-3.686,-3.6558,-3.6383,-3.6358,-3.6358,-3.6358,-3.6358,-3.6011,-3.5208,-3.3863,-3.2396,-3.0797,-2.9718,-2.872,-2.7873,-2.7718,-2.7176,-2.6454,-2.5722,-2.5082,-2.4325,-2.4137,-2.4707,-2.5776,-2.6668,-2.7753,-2.913,-2.9639,-2.9945,-3.02,-2.9919,-2.9792,-2.9907,-3.0855,-3.1402,-3.1888,-3.3413,-3.4242,-3.4579,-3.524,-3.5504,-3.5504,-3.5504,-3.4711,-3.3696,-3.3006,-3.1766,-3.0513,-3.0351,-2.945,-2.8616,-2.8563,-2.7994,-2.7176,-2.6555,-2.5838,-2.5453,-2.6014,-2.6336,-2.6669,-2.7152,-2.7458,-2.753,-2.7309,-2.7434,-2.753,-2.7294,-2.689,-2.6501,-2.6307,-2.5497,-2.4957,-2.4956,-2.4193,-2.3818,-2.4187,-2.392,-2.3874,-2.4048,-2.4794,-2.5118,-2.4847,-2.5592,-2.5862,-2.5609,-2.5482,-2.58,-2.6483,-2.5255,-2.4914,-2.5411,-2.5825,-2.6116,-2.6352,-2.622,-2.661,-2.7313,-2.746,-2.7478,-2.7586,-2.8246,-2.8352,-2.817,-2.8797,-3.0134,-3.1574,-3.9559,-3.9697,-3.9622,-3.9473,-3.9069,-3.873,-3.8304,-3.7638,-3.7111,-3.691,-3.6571,-3.6358,-3.6358,-3.6358,-3.6358,-3.6358,-3.6358,-3.6163,-3.5536,-3.42,-3.2923,-3.1582,-3.0274,-2.9184,-2.8417,-2.8301,-2.8009,-2.7456,-2.6969,-2.6153,-2.4831,-2.4296,-2.4626,-2.5641,-2.6163,-2.7081,-2.8382,-2.913,-2.9549,-2.9792,-2.9792,-2.9792,-2.9894,-3.0457,-3.0868,-3.1408,-3.2941,-3.37,-3.4147,-3.518,-3.5504,-3.5459,-3.519,-3.437,-3.3412,-3.3004,-3.1857,-3.0762,-3.0719,-3.0113,-2.951,-2.9492,-2.882,-2.8112,-2.7741,-2.689,-2.6408,-2.7152,-2.7106,-2.7034,-2.7524,-2.7625,-2.7625,-2.7625,-2.7625,-2.7625,-2.7625,-2.7229,-2.6901,-2.6643,-2.6243,-2.5884,-2.5625,-2.5224,-2.5001,-2.5001,-2.4709,-2.4522,-2.4344,-2.5129,-2.5524,-2.5321,-2.6218,-2.6471,-2.6031,-2.6015,-2.6333,-2.6922,-2.6121,-2.5932,-2.6256,-2.6734,-2.6841,-2.6708,-2.6801,-2.711,-2.7554,-2.7828,-2.799,-2.812,-2.8732,-2.8808,-2.8601,-2.9323,-3.025,-3.1064,-3.9672,-3.9685,-3.9496,-3.8995,-3.8907,-3.8454,-3.74,-3.7174,-3.6948,-3.6433,-3.6358,-3.6358,-3.6358,-3.6358,-3.6358,-3.6358,-3.6402,-3.6088,-3.5511,-3.4261,-3.323,-3.2623,-3.0627,-2.9547,-2.9413,-2.871,-2.8281,-2.8165,-2.6981,-2.5684,-2.4452,-2.4373,-2.4996,-2.6003,-2.6013,-2.6952,-2.8579,-2.8655,-2.913,-2.9664,-2.9779,-2.9792,-2.9792,-2.9792,-3.0329,-3.1255,-3.2239,-3.3176,-3.4103,-3.5165,-3.5504,-3.5385,-3.4696,-3.4023,-3.3516,-3.3412,-3.2511,-3.1482,-3.1482,-3.0964,-3.0378,-3.0382,-2.9342,-2.8404,-2.8555,-2.8062,-2.7846,-2.8487,-2.8083,-2.7685,-2.7625,-2.7625,-2.7625,-2.7625,-2.7625,-2.7625,-2.7625,-2.7625,-2.736,-2.6728,-2.6673,-2.6406,-2.5808,-2.5744,-2.5734,-2.5674,-2.5528,-2.5462,-2.5459,-2.557,-2.5932,-2.6641,-2.6691,-2.6691,-2.6691,-2.6742,-2.7009,-2.7442,-2.7865,-2.7865,-2.7521,-2.7452,-2.7201,-2.6859,-2.7624,-2.7926,-2.7954,-2.8773,-2.9085,-2.9104,-2.9161,-2.9168,-2.9278,-3.0259,-3.0629,-3.0717,-3.8997,-3.9378,-3.9647,-3.9496,-3.8768,-3.8115,-3.7852,-3.7098,-3.6508,-3.6383,-3.6358,-3.6358,-3.6358,-3.6358,-3.6358,-3.6358,-3.5941,-3.5466,-3.4887,-3.4248,-3.3093,-3.1626,-3.083,-2.9992,-2.8953,-2.8564,-2.7999,-2.7302,-2.6323,-2.5673,-2.5395,-2.4409,-2.44,-2.5376,-2.551,-2.5789,-2.632,-2.772,-2.8358,-2.8598,-2.9422,-2.9792,-2.9792,-2.9792,-2.9932,-3.0329,-3.198,-3.2753,-3.3216,-3.4901,-3.5504,-3.5385,-3.4696,-3.4023,-3.3411,-3.2898,-3.2163,-3.1482,-3.1482,-3.1367,-3.1205,-3.1246,-3.0569,-2.9982,-3.0004,-2.9555,-2.9029,-2.8644,-2.8472,-2.8203,-2.7715,-2.7625,-2.7625,-2.7625,-2.7625,-2.7625,-2.7625,-2.7625,-2.7535,-2.7375,-2.735,-2.7315,-2.7136,-2.7126,-2.6901,-2.6393,-2.623,-2.6131,-2.6018,-2.5933,-2.5974,-2.6139,-2.6505,-2.6691,-2.6691,-2.7266,-2.8049,-2.9051,-2.9497,-2.9697,-2.9571,-2.8941,-2.8465,-2.8071,-2.8223,-2.8129,-2.7989,-2.9355,-3.0026,-3.0252,-3.0687,-3.0827,-3.0809,-3.065,-3.0856,-3.1052,-3.8464,-3.8969,-3.9281,-3.8982,-3.8667,-3.8316,-3.8052,-3.7287,-3.6734,-3.6734,-3.6521,-3.6358,-3.6358,-3.6358,-3.6257,-3.6006,-3.5691,-3.5249,-3.4698,-3.4186,-3.349,-3.2475,-3.1332,-3.0513,-3.0079,-2.8866,-2.7863,-2.7012,-2.6323,-2.5843,-2.5438,-2.4737,-2.4607,-2.5111,-2.5373,-2.5572,-2.5818,-2.7312,-2.7983,-2.822,-2.9372,-2.9792,-2.9792,-2.9792,-2.9792,-3.0009,-3.1932,-3.2616,-3.292,-3.483,-3.5504,-3.5444,-3.5055,-3.4277,-3.3395,-3.3066,-3.2285,-3.1482,-3.1482,-3.1482,-3.1482,-3.1482,-3.1255,-3.0971,-3.0971,-3.0477,-2.9909,-2.9535,-2.9011,-2.8487,-2.8113,-2.7784,-2.7625,-2.7625,-2.7625,-2.7625,-2.7625,-2.7625,-2.7625,-2.7625,-2.7625,-2.7709,-2.8053,-2.7769,-2.761,-2.7515,-2.6877,-2.6595,-2.6765,-2.6663,-2.6524,-2.6314,-2.6875,-2.7046,-2.6691,-2.7839,-2.9004,-3.0198,-3.0632,-3.0718,-3.0545,-3.0116,-2.9698,-2.9347,-2.9482,-2.9431,-2.9357,-3.0341,-3.0968,-3.1366,-3.1641,-3.2089,-3.2463,-3.2166,-3.2269,-3.2363,-3.7948,-3.8466,-3.8803,-3.8351,-3.8579,-3.8705,-3.8216,-3.76,-3.7186,-3.7186,-3.6709,-3.6358,-3.6358,-3.6282,-3.6056,-3.5579,-3.5322,-3.5111,-3.4619,-3.413,-3.3868,-3.3906,-3.1894,-3.0995,-3.1455,-2.9434,-2.7863,-2.7012,-2.6592,-2.5987,-2.5099,-2.5036,-2.4987,-2.4985,-2.5246,-2.556,-2.5832,-2.6801,-2.7474,-2.798,-2.9118,-2.9651,-2.9792,-2.9792,-2.9792,-3.0049,-3.191,-3.2574,-3.2903,-3.4832,-3.5504,-3.5489,-3.5385,-3.4502,-3.3499,-3.3499,-3.2557,-3.1482,-3.1482,-3.1482,-3.1482,-3.1482,-3.1482,-3.1482,-3.1482,-3.1076,-3.0627,-3.0522,-2.9639,-2.8831,-2.8637,-2.8113,-2.7694,-2.764,-2.7625,-2.7625,-2.7625,-2.7625,-2.764,-2.775,-2.776,-2.806,-2.8824,-2.8321,-2.8165,-2.8839,-2.7635,-2.7142,-2.775,-2.7556,-2.731,-2.7046,-2.7655,-2.7758,-2.7318,-2.8714,-3.0058,-3.1245,-3.1597,-3.1623,-3.1329,-3.1202,-3.0934,-3.0606,-3.0864,-3.0957,-3.093,-3.1386,-3.1831,-3.2268,-3.2386,-3.3007,-3.3802,-3.3797,-3.3807,-3.3807,-3.7927,-3.8452,-3.9045,-3.932,-3.9107,-3.8843,-3.8743,-3.7852,-3.7186,-3.7186,-3.6709,-3.6358,-3.6358,-3.5956,-3.5642,-3.5554,-3.465,-3.4149,-3.3997,-3.3972,-3.3858,-3.3879,-3.2305,-3.142,-3.1476,-2.9434,-2.7863,-2.7012,-2.6592,-2.5987,-2.5068,-2.473,-2.4477,-2.4472,-2.4221,-2.4082,-2.4231,-2.4976,-2.5841,-2.6865,-2.7968,-2.8901,-2.9792,-2.9792,-2.9792,-3.0049,-3.191,-3.2568,-3.2905,-3.4824,-3.5504,-3.54,-3.4816,-3.4113,-3.3499,-3.3499,-3.2557,-3.1482,-3.1482,-3.1482,-3.1482,-3.1482,-3.1482,-3.1482,-3.1482,-3.1392,-3.121,-3.0627,-3.0342,-2.9879,-2.8801,-2.8502,-2.8248,-2.7715,-2.7625,-2.7625,-2.7625,-2.7625,-2.7795,-2.8394,-2.8441,-2.8934,-3.0152,-2.9657,-2.9546,-3.0217,-2.8969,-2.8435,-2.8992,-2.8394,-2.8229,-2.8636,-2.8738,-2.9208,-3.0076,-3.0733,-3.1635,-3.2852,-3.3241,-3.3395,-3.3323,-3.2645,-3.2156,-3.1794,-3.1472,-3.1154,-3.0966,-3.2007,-3.2467,-3.2596,-3.3293,-3.3642,-3.3815,-3.3788,-3.3807,-3.3807,-3.7543,-3.7755,-3.8165,-3.8693,-3.8831,-3.8969,-3.927,-3.8354,-3.7626,-3.7626,-3.6885,-3.6358,-3.6358,-3.5868,-3.5416,-3.5127,-3.4638,-3.4236,-3.3896,-3.3934,-3.4132,-3.4694,-3.2662,-3.0983,-2.9835,-2.8846,-2.7863,-2.7012,-2.6592,-2.5978,-2.5142,-2.4903,-2.4784,-2.474,-2.4842,-2.472,-2.4549,-2.5811,-2.6543,-2.6989,-2.8397,-2.9372,-2.9792,-2.9792,-2.9792,-3.0023,-3.193,-3.2588,-3.289,-3.4839,-3.5504,-3.5444,-3.513,-3.4562,-3.4023,-3.4023,-3.3095,-3.1988,-3.1571,-3.1482,-3.1556,-3.1973,-3.2063,-3.2063,-3.2063,-3.2063,-3.1869,-3.1195,-3.0761,-3.0328,-2.9729,-2.9056,-2.8607,-2.8652,-2.809,-2.7865,-2.8562,-2.8353,-2.8701,-3.0084,-2.9583,-2.9959,-3.2053,-3.0977,-3.0592,-3.1602,-3.0733,-3.0243,-3.0464,-3.0156,-3.0037,-3.0168,-2.9135,-2.9323,-3.0957,-3.0878,-3.2014,-3.4426,-3.3982,-3.4027,-3.4449,-3.4247,-3.3726,-3.3022,-3.3258,-3.3012,-3.2493,-3.3038,-3.3256,-3.3293,-3.366,-3.3807,-3.3807,-3.3807,-3.3807,-3.3807,-3.7402,-3.7267,-3.7377,-3.7927,-3.8379,-3.8818,-3.9233,-3.8454,-3.7814,-3.7814,-3.6973,-3.6358,-3.6358,-3.5868,-3.5366,-3.4951,-3.4914,-3.4726,-3.4311,-3.4385,-3.4826,-3.5458,-3.3047,-3.0647,-2.8398,-2.8291,-2.7883,-2.7157,-2.6851,-2.6269,-2.545,-2.538,-2.532,-2.5207,-2.5421,-2.5358,-2.5196,-2.6697,-2.7289,-2.7238,-2.8937,-2.9674,-2.9792,-2.9792,-2.9792,-2.9998,-3.1696,-3.2393,-3.289,-3.4543,-3.5294,-3.5504,-3.5504,-3.504,-3.4502,-3.4666,-3.3888,-3.2826,-3.2168,-3.1884,-3.1913,-3.2572,-3.2736,-3.2736,-3.2736,-3.2736,-3.2602,-3.2093,-3.1569,-3.1106,-3.0806,-2.9939,-2.9355,-2.9549,-2.8712,-2.8397,-2.9445,-2.9146,-2.9546,-3.1428,-3.0846,-3.1257,-3.3665,-3.2482,-3.1983,-3.2999,-3.2305,-3.1882,-3.1945,-3.2073,-3.2007,-3.17,-2.9899,-2.9861,-3.1899,-3.1512,-3.262,-3.5235,-3.4458,-3.4293,-3.4724,-3.4981,-3.4853,-3.4385,-3.4623,-3.4358,-3.379,-3.3798,-3.3807,-3.3825,-3.4082,-3.4027,-3.3844,-3.4247,-3.4137,-3.3844,-3.7854,-3.7492,-3.7362,-3.7914,-3.804,-3.809,-3.8128,-3.7626,-3.7249,-3.7249,-3.6734,-3.6358,-3.6358,-3.5868,-3.5437,-3.5399,-3.5399,-3.5374,-3.5336,-3.5906,-3.5994,-3.5554,-3.3418,-3.0966,-2.8398,-2.8291,-2.8135,-2.7601,-2.7653,-2.7191,-2.6279,-2.6277,-2.6019,-2.5637,-2.5334,-2.516,-2.5121,-2.6064,-2.67,-2.7228,-2.85,-2.9315,-2.9792,-2.9792,-2.9792,-2.9934,-3.097,-3.1888,-3.2749,-3.3739,-3.4758,-3.5504,-3.5504,-3.504,-3.4607,-3.5235,-3.4906,-3.4188,-3.3529,-3.2901,-3.2602,-3.326,-3.3425,-3.3425,-3.3425,-3.3425,-3.341,-3.3365,-3.3305,-3.2901,-3.1689,-3.1317,-3.0941,-2.9774,-2.9505,-2.9475,-2.9564,-2.9549,-3.0038,-3.1357,-3.2064,-3.299,-3.443,-3.4429,-3.4399,-3.4462,-3.3367,-3.2924,-3.3327,-3.3755,-3.3778,-3.3246,-3.1765,-3.193,-3.3973,-3.4164,-3.436,-3.4483,-3.4765,-3.4559,-3.3908,-3.3899,-3.4723,-3.6024,-3.4549,-3.3844,-3.3785,-3.3808,-3.3807,-3.3899,-3.4954,-3.4734,-3.399,-3.5532,-3.5128,-3.3954,-3.7553,-3.7111,-3.6847,-3.74,-3.75,-3.7613,-3.7952,-3.7538,-3.7211,-3.7202,-3.6747,-3.6358,-3.6358,-3.5856,-3.5538,-3.5538,-3.5862,-3.5906,-3.5567,-3.6383,-3.5766,-3.3229,-3.2279,-3.0589,-2.798,-2.8155,-2.8135,-2.7718,-2.7656,-2.7344,-2.6775,-2.6775,-2.6703,-2.6454,-2.6371,-2.6189,-2.6024,-2.7157,-2.7544,-2.7603,-2.8911,-2.9621,-2.9792,-2.9792,-2.9792,-2.9934,-3.0833,-3.1462,-3.196,-3.3518,-3.4245,-3.4691,-3.5279,-3.5325,-3.516,-3.5429,-3.5026,-3.4517,-3.4696,-3.3948,-3.3275,-3.3933,-3.4098,-3.4098,-3.4098,-3.4098,-3.3978,-3.3589,-3.3499,-3.3335,-3.2841,-3.2422,-3.2108,-3.2018,-3.133,-3.1076,-3.1898,-3.1659,-3.2043,-3.3842,-3.3531,-3.406,-3.634,-3.5817,-3.5558,-3.6114,-3.5609,-3.5132,-3.4806,-3.4975,-3.4965,-3.478,-3.4245,-3.4309,-3.5083,-3.5186,-3.5116,-3.4882,-3.4855,-3.4673,-3.444,-3.4595,-3.4652,-3.4607,-3.4304,-3.4166,-3.416,-3.3908,-3.41,-3.4614,-3.5248,-3.5653,-3.5892,-3.6185,-3.5679,-3.4899,-3.7349,-3.6772,-3.6483,-3.686,-3.6923,-3.7048,-3.7425,-3.7174,-3.696,-3.6952,-3.6646,-3.6358,-3.6358,-3.6018,-3.5817,-3.6028,-3.6551,-3.6679,-3.6094,-3.6445,-3.5199,-3.2059,-3.1838,-3.0638,-2.8105,-2.8398,-2.8447,-2.8269,-2.8269,-2.8122,-2.7819,-2.7697,-2.7552,-2.7558,-2.7332,-2.703,-2.6695,-2.8212,-2.8418,-2.7827,-2.9589,-3.0077,-2.9792,-2.9792,-2.9792,-2.9856,-3.0558,-3.097,-3.1462,-3.3031,-3.3739,-3.4177,-3.5213,-3.5504,-3.5504,-3.5504,-3.5175,-3.4906,-3.5385,-3.4831,-3.4233,-3.4681,-3.4801,-3.4801,-3.4801,-3.4801,-3.4666,-3.4218,-3.4128,-3.4053,-3.3844,-3.344,-3.3215,-3.3455,-3.2736,-3.2467,-3.3365,-3.3095,-3.3457,-3.5064,-3.4636,-3.4957,-3.691,-3.6406,-3.6303,-3.6922,-3.6645,-3.619,-3.5611,-3.5622,-3.5599,-3.5596,-3.5596,-3.5626,-3.5607,-3.5602,-3.5527,-3.5308,-3.5153,-3.5065,-3.5048,-3.512,-3.4553,-3.3599,-3.4267,-3.4727,-3.4979,-3.4538,-3.4881,-3.5689,-3.5725,-3.6205,-3.6869,-3.6993,-3.6321,-3.5358,-3.7267,-3.6739,-3.637,-3.637,-3.6358,-3.6358,-3.6358,-3.6358,-3.6358,-3.6358,-3.6358,-3.6358,-3.6358,-3.6358,-3.6634,-3.713,-3.7686,-3.7758,-3.7211,-3.6157,-3.4508,-3.2409,-3.2331,-3.1184,-2.8962,-2.8872,-2.9137,-2.957,-2.957,-2.957,-2.956,-2.9125,-2.8888,-2.8823,-2.8084,-2.7427,-2.7084,-2.9107,-2.9079,-2.7928,-3.0423,-3.0798,-2.9804,-2.9792,-2.9792,-2.9792,-2.9792,-3.0419,-3.1315,-3.2249,-3.3241,-3.4177,-3.5213,-3.5504,-3.5504,-3.5504,-3.5504,-3.5504,-3.5504,-3.5504,-3.5504,-3.5504,-3.5504,-3.5504,-3.5504,-3.5504,-3.5504,-3.5504,-3.5504,-3.5295,-3.4607,-3.4487,-3.4262,-3.3619,-3.3514,-3.3514,-3.3514,-3.3514,-3.3754,-3.4412,-3.5118,-3.5568,-3.5505,-3.6228,-3.671,-3.6678,-3.6007,-3.5595,-3.5611,-3.5577,-3.5577,-3.5622,-3.5639,-3.5639,-3.5622,-3.558,-3.5613,-3.5584,-3.5794,-3.577,-3.5594,-3.5171,-3.4436,-3.347,-3.448,-3.5444,-3.6256,-3.5739,-3.614,-3.7051,-3.6515,-3.6303,-3.6505,-3.8102,-3.7147,-3.5137,-3.7865,-3.7311,-3.6975,-3.6975,-3.6647,-3.6358,-3.6358,-3.6358,-3.6358,-3.6358,-3.6685,-3.6818,-3.6477,-3.678,-3.7001,-3.7142,-3.7667,-3.7953,-3.7776,-3.6734,-3.498,-3.2431,-3.1906,-3.0611,-2.8086,-2.7544,-2.7304,-2.7479,-2.771,-2.786,-2.7897,-2.8525,-2.8855,-2.8843,-2.8369,-2.7666,-2.7084,-2.9107,-2.929,-2.8487,-3.0191,-3.0661,-3.0353,-2.9967,-2.9792,-2.9792,-2.9792,-3.0011,-3.0343,-3.1328,-3.2249,-3.331,-3.4986,-3.5504,-3.5504,-3.5504,-3.5504,-3.5504,-3.5504,-3.5504,-3.5504,-3.5504,-3.5504,-3.5504,-3.5504,-3.5504,-3.5504,-3.5504,-3.5504,-3.5444,-3.5235,-3.519,-3.513,-3.4936,-3.4906,-3.4906,-3.4906,-3.4906,-3.4981,-3.5175,-3.5424,-3.5752,-3.6189,-3.7016,-3.762,-3.8015,-3.7503,-3.6762,-3.5663,-3.5613,-3.5592,-3.558,-3.767,-3.7733,-3.5639,-3.5596,-3.5326,-3.4832,-3.5386,-3.5385,-3.4819,-3.4682,-3.4685,-3.4748,-3.48,-3.5522,-3.66,-3.6218,-3.6589,-3.736,-3.7213,-3.7129,-3.7184,-3.7661,-3.7268,-3.6379,-3.8124,-3.7543,-3.7197,-3.7197,-3.6792,-3.6358,-3.6358,-3.6358,-3.649,-3.6672,-3.7026,-3.7127,-3.6723,-3.6568,-3.6676,-3.7418,-3.7842,-3.7954,-3.8015,-3.6478,-3.4654,-3.2431,-3.1449,-3.0084,-2.8261,-2.7924,-2.7505,-2.6971,-2.8113,-2.8223,-2.7614,-2.8691,-2.9176,-2.9128,-2.8418,-2.7705,-2.71,-2.8568,-2.8981,-2.8701,-2.9772,-3.0387,-3.0536,-2.998,-2.9792,-2.9792,-2.9792,-2.9792,-2.9959,-3.0903,-3.205,-3.338,-3.4543,-3.5213,-3.5504,-3.5504,-3.5504,-3.5504,-3.5504,-3.5504,-3.5504,-3.5504,-3.5504,-3.5504,-3.5504,-3.5504,-3.5504,-3.5504,-3.5504,-3.5504,-3.5504,-3.5504,-3.5504,-3.5504,-3.5504,-3.5504,-3.5504,-3.5504,-3.5504,-3.5504,-3.5504,-3.5674,-3.614,-3.6894,-3.7605,-3.8224,-3.8606,-3.8376,-3.7424,-3.7374,-3.7371,-3.7394,-3.8001,-3.8031,-3.7381,-3.6207,-3.5357,-3.4945,-3.5402,-3.5385,-3.4945,-3.4945,-3.5086,-3.5418,-3.5653,-3.6203,-3.6931,-3.6845,-3.7239,-3.7936,-3.7606,-3.7679,-3.7936,-3.7606,-3.7195,-3.6618,-3.8288,-3.7679,-3.7274,-3.7242,-3.683,-3.6358,-3.6358,-3.6358,-3.6553,-3.7102,-3.7265,-3.7232,-3.7216,-3.6088,-3.5997,-3.7866,-3.8079,-3.8078,-3.8065,-3.5807,-3.3895,-3.2465,-3.1019,-2.9908,-2.8926,-2.9235,-2.8823,-2.7544,-2.9685,-2.9776,-2.8161,-2.9146,-2.957,-2.9521,-2.8281,-2.7464,-2.7069,-2.7928,-2.8455,-2.876,-2.9328,-3.007,-3.0699,-3.002,-2.9842,-2.9892,-2.9817,-2.9792,-2.9919,-3.0894,-3.2399,-3.3876,-3.3959,-3.4691,-3.5504,-3.5504,-3.5504,-3.5519,-3.5579,-3.5549,-3.5519,-3.5579,-3.5594,-3.5579,-3.5519,-3.5504,-3.5504,-3.5504,-3.5504,-3.5504,-3.5504,-3.5504,-3.5504,-3.5504,-3.5504,-3.5504,-3.5504,-3.5504,-3.5504,-3.5504,-3.5504,-3.5504,-3.5504,-3.6228,-3.7054,-3.7949,-3.9295,-4.0112,-4.012,-4.0103,-4.0069,-3.9983,-3.7376,-3.7259,-3.9782,-3.7208,-3.5827,-3.5729,-3.5628,-3.5594,-3.5594,-3.5577,-3.5622,-3.5739,-3.6706,-3.7173,-3.7269,-3.7402,-3.7967,-3.8634,-3.7833,-3.8016,-3.8597,-3.779,-3.6945,-3.6101,-3.9353,-3.8517,-3.7808,-3.7804,-3.7064,-3.6358,-3.6358,-3.6358,-3.6571,-3.7149,-3.7605,-3.7639,-3.724,-3.6691,-3.6771,-3.7904,-3.8454,-3.8655,-3.8667,-3.6395,-3.4465,-3.3071,-3.1294,-2.9836,-2.8933,-2.8118,-2.6928,-2.5378,-2.7721,-2.8059,-2.6574,-2.867,-2.957,-2.9531,-2.8584,-2.7736,-2.7108,-2.8157,-2.8911,-2.9243,-2.9527,-3.0506,-3.1726,-3.0315,-3.0049,-3.0375,-2.9952,-2.9792,-2.9946,-3.0875,-3.1982,-3.3031,-3.3739,-3.4691,-3.5504,-3.5504,-3.5504,-3.5609,-3.6133,-3.5893,-3.5624,-3.6148,-3.6267,-3.6148,-3.5624,-3.5504,-3.5504,-3.5504,-3.5504,-3.5504,-3.5504,-3.5504,-3.5504,-3.5504,-3.5504,-3.5504,-3.5504,-3.5504,-3.5504,-3.5504,-3.5504,-3.5504,-3.5504,-3.6707,-3.8125,-3.9512,-3.9885,-4.0103,-4.0119,-4.0119,-3.973,-3.8952,-3.9057,-3.867,-3.7756,-3.7879,-3.7545,-3.6754,-3.595,-3.5597,-3.5597,-3.5583,-3.581,-3.6224,-3.6457,-3.702,-3.7702,-3.7399,-3.7819,-3.864,-3.8034,-3.8186,-3.8597,-3.779,-3.6714,-3.553,-3.9328,-3.8806,-3.8389,-3.8389,-3.7497,-3.6759,-3.6759,-3.681,-3.701,-3.7475,-3.7817,-3.7701,-3.6775,-3.5833,-3.5596,-3.6288,-3.7234,-3.8166,-3.8806,-3.5915,-3.3866,-3.3229,-3.1516,-3.0062,-2.8888,-2.8649,-2.7362,-2.5033,-2.7274,-2.7563,-2.6089,-2.7921,-2.906,-2.9531,-2.8672,-2.797,-2.7352,-2.751,-2.8447,-2.9612,-2.8969,-2.9929,-3.1656,-3.0585,-3.0369,-3.057,-3.0544,-3.0431,-3.024,-3.0457,-3.1193,-3.2033,-3.2536,-3.3602,-3.4758,-3.4758,-3.5355,-3.6043,-3.6387,-3.6447,-3.6492,-3.6836,-3.6926,-3.6761,-3.6118,-3.5968,-3.5968,-3.5968,-3.5729,-3.5504,-3.5504,-3.5504,-3.5504,-3.5504,-3.5504,-3.5504,-3.5504,-3.5504,-3.5504,-3.5504,-3.5504,-3.5619,-3.6006,-3.7115,-3.8432,-3.9995,-4.0104,-4.007,-4.007,-4.007,-3.9851,-3.931,-3.9834,-3.9614,-3.8535,-3.9057,-3.9057,-3.8518,-3.7033,-3.6291,-3.6161,-3.578,-3.5739,-3.6011,-3.6,-3.633,-3.6834,-3.7612,-3.7933,-3.7994,-3.8194,-3.8465,-3.8597,-3.779,-3.6424,-3.483,-3.8985,-3.8955,-3.8818,-3.8718,-3.7988,-3.7299,-3.7199,-3.7227,-3.7513,-3.7922,-3.8003,-3.7479,-3.6033,-3.4877,-3.4245,-3.4367,-3.585,-3.7253,-3.8253,-3.5035,-3.3044,-3.2921,-3.1639,-3.0314,-2.9026,-2.9727,-2.8464,-2.5326,-2.7353,-2.7401,-2.5562,-2.7086,-2.8247,-2.9151,-2.8602,-2.8145,-2.7641,-2.6797,-2.7744,-2.9591,-2.8322,-2.9261,-3.1329,-3.0897,-3.0783,-3.0899,-3.1289,-3.1032,-3.0519,-3.0083,-3.0496,-3.118,-3.118,-3.2464,-3.4041,-3.4157,-3.5301,-3.6537,-3.6746,-3.7105,-3.7434,-3.7539,-3.7584,-3.7449,-3.6926,-3.6731,-3.6611,-3.6507,-3.6133,-3.5774,-3.5549,-3.5684,-3.5789,-3.5684,-3.5669,-3.5669,-3.5669,-3.5579,-3.5504,-3.5504,-3.5504,-3.5782,-3.6554,-3.7338,-3.8343,-3.9638,-3.993,-4.002,-3.9901,-4.002,-4.007,-4.007,-4.007,-4.007,-4.007,-4.007,-4.007,-4.0054,-3.8173,-3.7144,-3.6945,-3.6315,-3.5943,-3.5791,-3.5814,-3.5811,-3.5972,-3.7554,-3.7899,-3.7528,-3.8136,-3.8428,-3.8418,-3.7551,-3.6077,-3.4353,-3.9534,-3.922,-3.8693,-3.8191,-3.799,-3.7739,-3.7262,-3.756,-3.7934,-3.8038,-3.7992,-3.7355,-3.5489,-3.5509,-3.5062,-3.349,-3.5839,-3.697,-3.5845,-3.4497,-3.3149,-3.2083,-3.1008,-3.0158,-2.9575,-2.9598,-2.8183,-2.5328,-2.7357,-2.6848,-2.4014,-2.6585,-2.7652,-2.7481,-2.843,-2.8427,-2.7699,-2.7189,-2.7505,-2.8486,-2.8444,-2.9546,-3.1228,-3.1286,-3.1618,-3.1918,-3.1503,-3.1088,-3.0578,-3.0545,-3.0817,-3.118,-3.118,-3.2464,-3.4128,-3.4675,-3.5654,-3.6731,-3.7823,-3.7778,-3.7539,-3.8123,-3.8257,-3.8227,-3.8153,-3.7689,-3.7135,-3.6596,-3.6836,-3.6821,-3.5714,-3.6402,-3.6971,-3.6447,-3.6357,-3.6357,-3.6357,-3.5863,-3.5504,-3.5504,-3.5504,-3.5782,-3.6554,-3.7338,-3.7911,-3.8091,-3.9329,-3.9782,-3.9086,-3.9731,-4.007,-4.007,-4.007,-4.007,-4.007,-4.007,-4.007,-4.0054,-3.852,-3.7765,-3.7732,-3.7624,-3.7246,-3.662,-3.6644,-3.6758,-3.6949,-3.6284,-3.6981,-3.8405,-3.738,-3.731,-3.7711,-3.6559,-3.5545,-3.464,-3.8241,-3.8341,-3.8304,-3.8052,-3.7751,-3.7563,-3.7638,-3.761,-3.7648,-3.7952,-3.7728,-3.664,-3.4353,-3.3822,-3.3464,-3.3098,-3.4246,-3.5074,-3.526,-3.3628,-3.2295,-3.178,-3.109,-3.0391,-2.9584,-2.9848,-2.8508,-2.5732,-2.6645,-2.5888,-2.371,-2.5805,-2.6884,-2.7213,-2.8596,-2.8781,-2.8009,-2.7582,-2.7855,-2.8473,-2.8121,-2.908,-3.0735,-3.0823,-3.1402,-3.2164,-3.1938,-3.1497,-3.0989,-3.0696,-3.0735,-3.083,-3.0522,-3.1554,-3.3087,-3.3942,-3.5152,-3.6531,-3.7983,-3.8452,-3.8601,-3.8886,-3.896,-3.896,-3.896,-3.8736,-3.8347,-3.7689,-3.7479,-3.724,-3.6671,-3.703,-3.7315,-3.7045,-3.7,-3.6881,-3.6537,-3.6537,-3.6447,-3.6088,-3.5729,-3.5619,-3.5943,-3.6692,-3.7112,-3.7137,-3.8574,-3.9484,-3.9558,-3.9901,-4.007,-4.007,-4.007,-4.007,-4.007,-4.007,-4.007,-4.007,-3.9462,-3.9141,-3.9105,-3.8278,-3.7719,-3.7398,-3.7398,-3.6985,-3.6319,-3.6448,-3.6678,-3.6985,-3.6998,-3.7143,-3.7327,-3.6628,-3.6251,-3.5858]}]]